<?xml version="1.0" encoding="UTF-8" standalone="no" ?>
<gpx xmlns="http://www.topografix.com/GPX/1/1" xmlns:xsi="http://www.w3.org/2001/XMLSchema-instance" xsi:schemaLocation="http://www.topografix.com/GPX/1/1 http://www.topografix.com/GPX/1/1/gpx.xsd" version="1.1" creator="VisuGPX - https://www.visugpx.com">
  <metadata>
    <name>TN des Dourbes à Camping des Eaux chaudes</name>
    <desc><![CDATA[Best of des Terres Noires sans la traversée du Feston
Prévoir navette voiture du camping à Les Dourbes.
Inclus les crêtes fines et les toboggans]]></desc>
  </metadata>
  <trk>
    <name><![CDATA[Entrages Cyclisme]]></name>
    <trkseg>
      <trkpt lat="44.06597" lon="6.30459">
        <ele>961.59997558594</ele>
        <time>2017-05-25T07:59:28.000Z</time>
      </trkpt>
      <trkpt lat="44.06594" lon="6.30469">
        <ele>961.79998779297</ele>
        <time>2017-05-25T07:59:37.000Z</time>
      </trkpt>
      <trkpt lat="44.06599" lon="6.30488">
        <ele>963.20001220703</ele>
        <time>2017-05-25T07:59:42.000Z</time>
      </trkpt>
      <trkpt lat="44.06604" lon="6.30512">
        <ele>965.79998779297</ele>
        <time>2017-05-25T07:59:48.000Z</time>
      </trkpt>
      <trkpt lat="44.06601" lon="6.30537">
        <ele>968</ele>
        <time>2017-05-25T07:59:55.000Z</time>
      </trkpt>
      <trkpt lat="44.06591" lon="6.3056">
        <ele>969.79998779297</ele>
        <time>2017-05-25T08:00:03.000Z</time>
      </trkpt>
      <trkpt lat="44.0659" lon="6.30563">
        <ele>970</ele>
        <time>2017-05-25T08:00:04.000Z</time>
      </trkpt>
      <trkpt lat="44.06583" lon="6.30576">
        <ele>972</ele>
        <time>2017-05-25T08:00:09.000Z</time>
      </trkpt>
      <trkpt lat="44.0657" lon="6.30598">
        <ele>975.40002441406</ele>
        <time>2017-05-25T08:00:20.000Z</time>
      </trkpt>
      <trkpt lat="44.06561" lon="6.30614">
        <ele>977.79998779297</ele>
        <time>2017-05-25T08:00:28.000Z</time>
      </trkpt>
      <trkpt lat="44.06549" lon="6.30623">
        <ele>978.79998779297</ele>
        <time>2017-05-25T08:00:37.000Z</time>
      </trkpt>
      <trkpt lat="44.06536" lon="6.30626">
        <ele>978.79998779297</ele>
        <time>2017-05-25T08:00:46.000Z</time>
      </trkpt>
      <trkpt lat="44.06531" lon="6.3063">
        <ele>979.20001220703</ele>
        <time>2017-05-25T08:00:50.000Z</time>
      </trkpt>
      <trkpt lat="44.06527" lon="6.30631">
        <ele>979.20001220703</ele>
        <time>2017-05-25T08:00:53.000Z</time>
      </trkpt>
      <trkpt lat="44.06522" lon="6.30634">
        <ele>979.79998779297</ele>
        <time>2017-05-25T08:00:57.000Z</time>
      </trkpt>
      <trkpt lat="44.0652" lon="6.30639">
        <ele>980.59997558594</ele>
        <time>2017-05-25T08:01:00.000Z</time>
      </trkpt>
      <trkpt lat="44.06521" lon="6.30647">
        <ele>981.59997558594</ele>
        <time>2017-05-25T08:01:06.000Z</time>
      </trkpt>
      <trkpt lat="44.06522" lon="6.30651">
        <ele>982.79998779297</ele>
        <time>2017-05-25T08:01:08.000Z</time>
      </trkpt>
      <trkpt lat="44.06536" lon="6.30656">
        <ele>984.59997558594</ele>
        <time>2017-05-25T08:01:19.000Z</time>
      </trkpt>
      <trkpt lat="44.06543" lon="6.3066">
        <ele>985.59997558594</ele>
        <time>2017-05-25T08:01:24.000Z</time>
      </trkpt>
      <trkpt lat="44.06554" lon="6.30665">
        <ele>987.59997558594</ele>
        <time>2017-05-25T08:01:31.000Z</time>
      </trkpt>
      <trkpt lat="44.06564" lon="6.30668">
        <ele>988.79998779297</ele>
        <time>2017-05-25T08:01:37.000Z</time>
      </trkpt>
      <trkpt lat="44.06582" lon="6.30674">
        <ele>991</ele>
        <time>2017-05-25T08:01:47.000Z</time>
      </trkpt>
      <trkpt lat="44.0659" lon="6.3069">
        <ele>995</ele>
        <time>2017-05-25T08:01:56.000Z</time>
      </trkpt>
      <trkpt lat="44.06585" lon="6.30696">
        <ele>996.20001220703</ele>
        <time>2017-05-25T08:02:00.000Z</time>
      </trkpt>
      <trkpt lat="44.06566" lon="6.30693">
        <ele>994.59997558594</ele>
        <time>2017-05-25T08:02:11.000Z</time>
      </trkpt>
      <trkpt lat="44.06547" lon="6.3069">
        <ele>993.79998779297</ele>
        <time>2017-05-25T08:02:20.000Z</time>
      </trkpt>
      <trkpt lat="44.06528" lon="6.30696">
        <ele>995</ele>
        <time>2017-05-25T08:02:31.000Z</time>
      </trkpt>
      <trkpt lat="44.06514" lon="6.30712">
        <ele>998.20001220703</ele>
        <time>2017-05-25T08:02:41.000Z</time>
      </trkpt>
      <trkpt lat="44.06503" lon="6.30732">
        <ele>1000</ele>
        <time>2017-05-25T08:02:51.000Z</time>
      </trkpt>
      <trkpt lat="44.06498" lon="6.30759">
        <ele>1006.799987793</ele>
        <time>2017-05-25T08:03:02.000Z</time>
      </trkpt>
      <trkpt lat="44.06494" lon="6.30778">
        <ele>1011.799987793</ele>
        <time>2017-05-25T08:03:10.000Z</time>
      </trkpt>
      <trkpt lat="44.06476" lon="6.30786">
        <ele>1010.200012207</ele>
        <time>2017-05-25T08:03:22.000Z</time>
      </trkpt>
      <trkpt lat="44.06459" lon="6.30794">
        <ele>1008.200012207</ele>
        <time>2017-05-25T08:03:34.000Z</time>
      </trkpt>
      <trkpt lat="44.06443" lon="6.30807">
        <ele>1008</ele>
        <time>2017-05-25T08:03:43.000Z</time>
      </trkpt>
      <trkpt lat="44.06432" lon="6.30828">
        <ele>1008.4000244141</ele>
        <time>2017-05-25T08:03:53.000Z</time>
      </trkpt>
      <trkpt lat="44.06423" lon="6.30852">
        <ele>1007.799987793</ele>
        <time>2017-05-25T08:04:03.000Z</time>
      </trkpt>
      <trkpt lat="44.06413" lon="6.30872">
        <ele>1006.4000244141</ele>
        <time>2017-05-25T08:04:12.000Z</time>
      </trkpt>
      <trkpt lat="44.06417" lon="6.30897">
        <ele>1007.799987793</ele>
        <time>2017-05-25T08:04:22.000Z</time>
      </trkpt>
      <trkpt lat="44.06432" lon="6.30911">
        <ele>1010.799987793</ele>
        <time>2017-05-25T08:04:32.000Z</time>
      </trkpt>
      <trkpt lat="44.06448" lon="6.30925">
        <ele>1013.200012207</ele>
        <time>2017-05-25T08:04:42.000Z</time>
      </trkpt>
      <trkpt lat="44.0646" lon="6.30943">
        <ele>1013.5999755859</ele>
        <time>2017-05-25T08:04:51.000Z</time>
      </trkpt>
      <trkpt lat="44.06476" lon="6.30958">
        <ele>1015</ele>
        <time>2017-05-25T08:05:01.000Z</time>
      </trkpt>
      <trkpt lat="44.06494" lon="6.3096">
        <ele>1018.200012207</ele>
        <time>2017-05-25T08:05:12.000Z</time>
      </trkpt>
      <trkpt lat="44.06512" lon="6.30957">
        <ele>1022</ele>
        <time>2017-05-25T08:05:22.000Z</time>
      </trkpt>
      <trkpt lat="44.06531" lon="6.30951">
        <ele>1026.1999511719</ele>
        <time>2017-05-25T08:05:34.000Z</time>
      </trkpt>
      <trkpt lat="44.06551" lon="6.30956">
        <ele>1027</ele>
        <time>2017-05-25T08:05:42.000Z</time>
      </trkpt>
      <trkpt lat="44.06572" lon="6.30967">
        <ele>1027</ele>
        <time>2017-05-25T08:05:47.000Z</time>
      </trkpt>
      <trkpt lat="44.06587" lon="6.30982">
        <ele>1026.4000244141</ele>
        <time>2017-05-25T08:05:51.000Z</time>
      </trkpt>
      <trkpt lat="44.06602" lon="6.30995">
        <ele>1028.1999511719</ele>
        <time>2017-05-25T08:07:16.000Z</time>
      </trkpt>
      <trkpt lat="44.06619" lon="6.31011">
        <ele>1029.1999511719</ele>
        <time>2017-05-25T08:07:24.000Z</time>
      </trkpt>
      <trkpt lat="44.06635" lon="6.31026">
        <ele>1029.1999511719</ele>
        <time>2017-05-25T08:07:29.000Z</time>
      </trkpt>
      <trkpt lat="44.06651" lon="6.31042">
        <ele>1029.4000244141</ele>
        <time>2017-05-25T08:07:35.000Z</time>
      </trkpt>
      <trkpt lat="44.06667" lon="6.3106">
        <ele>1029.8000488281</ele>
        <time>2017-05-25T08:07:41.000Z</time>
      </trkpt>
      <trkpt lat="44.06682" lon="6.31074">
        <ele>1030.4000244141</ele>
        <time>2017-05-25T08:07:47.000Z</time>
      </trkpt>
      <trkpt lat="44.06696" lon="6.31096">
        <ele>1031.8000488281</ele>
        <time>2017-05-25T08:07:52.000Z</time>
      </trkpt>
      <trkpt lat="44.06713" lon="6.31117">
        <ele>1032</ele>
        <time>2017-05-25T08:07:56.000Z</time>
      </trkpt>
      <trkpt lat="44.06722" lon="6.31131">
        <ele>1032.4000244141</ele>
        <time>2017-05-25T08:07:58.000Z</time>
      </trkpt>
      <trkpt lat="44.06733" lon="6.31158">
        <ele>1034.5999755859</ele>
        <time>2017-05-25T08:08:01.000Z</time>
      </trkpt>
      <trkpt lat="44.06737" lon="6.31167">
        <ele>1035.8000488281</ele>
        <time>2017-05-25T08:08:02.000Z</time>
      </trkpt>
      <trkpt lat="44.06754" lon="6.31182">
        <ele>1036.5999755859</ele>
        <time>2017-05-25T08:08:05.000Z</time>
      </trkpt>
      <trkpt lat="44.06769" lon="6.31183">
        <ele>1035.4000244141</ele>
        <time>2017-05-25T08:08:08.000Z</time>
      </trkpt>
      <trkpt lat="44.06788" lon="6.31181">
        <ele>1035.4000244141</ele>
        <time>2017-05-25T08:08:14.000Z</time>
      </trkpt>
      <trkpt lat="44.06804" lon="6.31171">
        <ele>1035.1999511719</ele>
        <time>2017-05-25T08:08:21.000Z</time>
      </trkpt>
      <trkpt lat="44.06811" lon="6.31147">
        <ele>1030.5999755859</ele>
        <time>2017-05-25T08:08:28.000Z</time>
      </trkpt>
      <trkpt lat="44.06811" lon="6.31121">
        <ele>1028</ele>
        <time>2017-05-25T08:08:36.000Z</time>
      </trkpt>
      <trkpt lat="44.06814" lon="6.31107">
        <ele>1026.8000488281</ele>
        <time>2017-05-25T08:08:41.000Z</time>
      </trkpt>
      <trkpt lat="44.0683" lon="6.31112">
        <ele>1028.4000244141</ele>
        <time>2017-05-25T08:08:49.000Z</time>
      </trkpt>
      <trkpt lat="44.06835" lon="6.31118">
        <ele>1029.4000244141</ele>
        <time>2017-05-25T08:08:52.000Z</time>
      </trkpt>
      <trkpt lat="44.06845" lon="6.3114">
        <ele>1032.1999511719</ele>
        <time>2017-05-25T08:09:00.000Z</time>
      </trkpt>
      <trkpt lat="44.06847" lon="6.3115">
        <ele>1033.8000488281</ele>
        <time>2017-05-25T08:09:04.000Z</time>
      </trkpt>
      <trkpt lat="44.06855" lon="6.31175">
        <ele>1039.8000488281</ele>
        <time>2017-05-25T08:09:13.000Z</time>
      </trkpt>
      <trkpt lat="44.06871" lon="6.31189">
        <ele>1043</ele>
        <time>2017-05-25T08:09:22.000Z</time>
      </trkpt>
      <trkpt lat="44.06888" lon="6.312">
        <ele>1044.8000488281</ele>
        <time>2017-05-25T08:09:30.000Z</time>
      </trkpt>
      <trkpt lat="44.06906" lon="6.31207">
        <ele>1046</ele>
        <time>2017-05-25T08:09:38.000Z</time>
      </trkpt>
      <trkpt lat="44.06924" lon="6.3121">
        <ele>1046.1999511719</ele>
        <time>2017-05-25T08:09:46.000Z</time>
      </trkpt>
      <trkpt lat="44.06937" lon="6.3121">
        <ele>1046.5999755859</ele>
        <time>2017-05-25T08:09:53.000Z</time>
      </trkpt>
      <trkpt lat="44.06951" lon="6.31211">
        <ele>1046.4000244141</ele>
        <time>2017-05-25T08:10:01.000Z</time>
      </trkpt>
      <trkpt lat="44.0697" lon="6.31211">
        <ele>1045.4000244141</ele>
        <time>2017-05-25T08:10:11.000Z</time>
      </trkpt>
      <trkpt lat="44.06982" lon="6.3123">
        <ele>1047.5999755859</ele>
        <time>2017-05-25T08:10:21.000Z</time>
      </trkpt>
      <trkpt lat="44.06976" lon="6.31253">
        <ele>1051</ele>
        <time>2017-05-25T08:10:30.000Z</time>
      </trkpt>
      <trkpt lat="44.06969" lon="6.31276">
        <ele>1055.5999755859</ele>
        <time>2017-05-25T08:10:39.000Z</time>
      </trkpt>
      <trkpt lat="44.06976" lon="6.31301">
        <ele>1059.5999755859</ele>
        <time>2017-05-25T08:10:49.000Z</time>
      </trkpt>
      <trkpt lat="44.0699" lon="6.31317">
        <ele>1061</ele>
        <time>2017-05-25T08:10:57.000Z</time>
      </trkpt>
      <trkpt lat="44.07001" lon="6.31338">
        <ele>1062.8000488281</ele>
        <time>2017-05-25T08:11:06.000Z</time>
      </trkpt>
      <trkpt lat="44.07015" lon="6.31357">
        <ele>1064</ele>
        <time>2017-05-25T08:11:15.000Z</time>
      </trkpt>
      <trkpt lat="44.07028" lon="6.31376">
        <ele>1065.4000244141</ele>
        <time>2017-05-25T08:11:24.000Z</time>
      </trkpt>
      <trkpt lat="44.07039" lon="6.314">
        <ele>1068.1999511719</ele>
        <time>2017-05-25T08:11:33.000Z</time>
      </trkpt>
      <trkpt lat="44.07042" lon="6.31426">
        <ele>1072.4000244141</ele>
        <time>2017-05-25T08:11:41.000Z</time>
      </trkpt>
      <trkpt lat="44.07051" lon="6.3145">
        <ele>1075.4000244141</ele>
        <time>2017-05-25T08:11:50.000Z</time>
      </trkpt>
      <trkpt lat="44.07066" lon="6.31465">
        <ele>1077</ele>
        <time>2017-05-25T08:11:58.000Z</time>
      </trkpt>
      <trkpt lat="44.07082" lon="6.31479">
        <ele>1078.1999511719</ele>
        <time>2017-05-25T08:12:07.000Z</time>
      </trkpt>
      <trkpt lat="44.07101" lon="6.31481">
        <ele>1077.5999755859</ele>
        <time>2017-05-25T08:12:16.000Z</time>
      </trkpt>
      <trkpt lat="44.0712" lon="6.31478">
        <ele>1076.8000488281</ele>
        <time>2017-05-25T08:12:26.000Z</time>
      </trkpt>
      <trkpt lat="44.07139" lon="6.31481">
        <ele>1077.8000488281</ele>
        <time>2017-05-25T08:12:35.000Z</time>
      </trkpt>
      <trkpt lat="44.07156" lon="6.31468">
        <ele>1075.5999755859</ele>
        <time>2017-05-25T08:12:44.000Z</time>
      </trkpt>
      <trkpt lat="44.07165" lon="6.31467">
        <ele>1075.5999755859</ele>
        <time>2017-05-25T08:12:49.000Z</time>
      </trkpt>
      <trkpt lat="44.07164" lon="6.31489">
        <ele>1080</ele>
        <time>2017-05-25T08:12:58.000Z</time>
      </trkpt>
      <trkpt lat="44.07162" lon="6.31491">
        <ele>1080.1999511719</ele>
        <time>2017-05-25T08:12:59.000Z</time>
      </trkpt>
      <trkpt lat="44.07145" lon="6.31501">
        <ele>1081.8000488281</ele>
        <time>2017-05-25T08:13:07.000Z</time>
      </trkpt>
      <trkpt lat="44.07128" lon="6.31512">
        <ele>1084.4000244141</ele>
        <time>2017-05-25T08:13:15.000Z</time>
      </trkpt>
      <trkpt lat="44.07111" lon="6.31525">
        <ele>1088.1999511719</ele>
        <time>2017-05-25T08:13:24.000Z</time>
      </trkpt>
      <trkpt lat="44.07094" lon="6.31535">
        <ele>1091.5999755859</ele>
        <time>2017-05-25T08:13:33.000Z</time>
      </trkpt>
      <trkpt lat="44.07075" lon="6.3154">
        <ele>1094</ele>
        <time>2017-05-25T08:13:42.000Z</time>
      </trkpt>
      <trkpt lat="44.07056" lon="6.31539">
        <ele>1094.5999755859</ele>
        <time>2017-05-25T08:13:52.000Z</time>
      </trkpt>
      <trkpt lat="44.07037" lon="6.31538">
        <ele>1095.5999755859</ele>
        <time>2017-05-25T08:14:01.000Z</time>
      </trkpt>
      <trkpt lat="44.07019" lon="6.31535">
        <ele>1096</ele>
        <time>2017-05-25T08:14:09.000Z</time>
      </trkpt>
      <trkpt lat="44.07" lon="6.31541">
        <ele>1098.5999755859</ele>
        <time>2017-05-25T08:14:18.000Z</time>
      </trkpt>
      <trkpt lat="44.06984" lon="6.31554">
        <ele>1100.4000244141</ele>
        <time>2017-05-25T08:14:28.000Z</time>
      </trkpt>
      <trkpt lat="44.06967" lon="6.31567">
        <ele>1102.4000244141</ele>
        <time>2017-05-25T08:14:38.000Z</time>
      </trkpt>
      <trkpt lat="44.06947" lon="6.31574">
        <ele>1103.1999511719</ele>
        <time>2017-05-25T08:14:48.000Z</time>
      </trkpt>
      <trkpt lat="44.06929" lon="6.31576">
        <ele>1103.8000488281</ele>
        <time>2017-05-25T08:14:57.000Z</time>
      </trkpt>
      <trkpt lat="44.06911" lon="6.31567">
        <ele>1102.5999755859</ele>
        <time>2017-05-25T08:15:06.000Z</time>
      </trkpt>
      <trkpt lat="44.06893" lon="6.31562">
        <ele>1102</ele>
        <time>2017-05-25T08:15:14.000Z</time>
      </trkpt>
      <trkpt lat="44.06875" lon="6.31555">
        <ele>1101.8000488281</ele>
        <time>2017-05-25T08:15:22.000Z</time>
      </trkpt>
      <trkpt lat="44.06858" lon="6.31546">
        <ele>1101.4000244141</ele>
        <time>2017-05-25T08:15:32.000Z</time>
      </trkpt>
      <trkpt lat="44.06851" lon="6.31541">
        <ele>1099.5999755859</ele>
        <time>2017-05-25T08:16:56.000Z</time>
      </trkpt>
      <trkpt lat="44.06857" lon="6.31565">
        <ele>1103</ele>
        <time>2017-05-25T08:17:08.000Z</time>
      </trkpt>
      <trkpt lat="44.06857" lon="6.31591">
        <ele>1107.4000244141</ele>
        <time>2017-05-25T08:17:19.000Z</time>
      </trkpt>
      <trkpt lat="44.06849" lon="6.31614">
        <ele>1110.5999755859</ele>
        <time>2017-05-25T08:17:30.000Z</time>
      </trkpt>
      <trkpt lat="44.06833" lon="6.31626">
        <ele>1111.4000244141</ele>
        <time>2017-05-25T08:17:41.000Z</time>
      </trkpt>
      <trkpt lat="44.06814" lon="6.31625">
        <ele>1110.4000244141</ele>
        <time>2017-05-25T08:17:51.000Z</time>
      </trkpt>
      <trkpt lat="44.06796" lon="6.31631">
        <ele>1110.5999755859</ele>
        <time>2017-05-25T08:18:01.000Z</time>
      </trkpt>
      <trkpt lat="44.06784" lon="6.3165">
        <ele>1113.8000488281</ele>
        <time>2017-05-25T08:18:12.000Z</time>
      </trkpt>
      <trkpt lat="44.0677" lon="6.31667">
        <ele>1116.4000244141</ele>
        <time>2017-05-25T08:18:23.000Z</time>
      </trkpt>
      <trkpt lat="44.06757" lon="6.31685">
        <ele>1119</ele>
        <time>2017-05-25T08:18:34.000Z</time>
      </trkpt>
      <trkpt lat="44.06745" lon="6.31705">
        <ele>1121.8000488281</ele>
        <time>2017-05-25T08:18:46.000Z</time>
      </trkpt>
      <trkpt lat="44.06732" lon="6.31726">
        <ele>1124.5999755859</ele>
        <time>2017-05-25T08:18:58.000Z</time>
      </trkpt>
      <trkpt lat="44.06724" lon="6.31749">
        <ele>1128</ele>
        <time>2017-05-25T08:19:09.000Z</time>
      </trkpt>
      <trkpt lat="44.06717" lon="6.31772">
        <ele>1131</ele>
        <time>2017-05-25T08:19:20.000Z</time>
      </trkpt>
      <trkpt lat="44.06712" lon="6.31797">
        <ele>1133.5999755859</ele>
        <time>2017-05-25T08:19:32.000Z</time>
      </trkpt>
      <trkpt lat="44.067" lon="6.31817">
        <ele>1135.4000244141</ele>
        <time>2017-05-25T08:19:44.000Z</time>
      </trkpt>
      <trkpt lat="44.06695" lon="6.31841">
        <ele>1140</ele>
        <time>2017-05-25T08:19:55.000Z</time>
      </trkpt>
      <trkpt lat="44.067" lon="6.31854">
        <ele>1143</ele>
        <time>2017-05-25T08:20:02.000Z</time>
      </trkpt>
      <trkpt lat="44.06708" lon="6.31855">
        <ele>1143.5999755859</ele>
        <time>2017-05-25T08:20:07.000Z</time>
      </trkpt>
      <trkpt lat="44.06727" lon="6.31849">
        <ele>1143.1999511719</ele>
        <time>2017-05-25T08:20:18.000Z</time>
      </trkpt>
      <trkpt lat="44.06744" lon="6.31838">
        <ele>1143</ele>
        <time>2017-05-25T08:20:30.000Z</time>
      </trkpt>
      <trkpt lat="44.06758" lon="6.31819">
        <ele>1141.1999511719</ele>
        <time>2017-05-25T08:20:42.000Z</time>
      </trkpt>
      <trkpt lat="44.06773" lon="6.31806">
        <ele>1140.4000244141</ele>
        <time>2017-05-25T08:20:53.000Z</time>
      </trkpt>
      <trkpt lat="44.06792" lon="6.31804">
        <ele>1142</ele>
        <time>2017-05-25T08:21:05.000Z</time>
      </trkpt>
      <trkpt lat="44.06811" lon="6.31811">
        <ele>1145.1999511719</ele>
        <time>2017-05-25T08:21:18.000Z</time>
      </trkpt>
      <trkpt lat="44.06827" lon="6.31822">
        <ele>1149.1999511719</ele>
        <time>2017-05-25T08:21:29.000Z</time>
      </trkpt>
      <trkpt lat="44.06844" lon="6.3183">
        <ele>1152.5999755859</ele>
        <time>2017-05-25T08:21:39.000Z</time>
      </trkpt>
      <trkpt lat="44.06863" lon="6.31832">
        <ele>1155.1999511719</ele>
        <time>2017-05-25T08:21:49.000Z</time>
      </trkpt>
      <trkpt lat="44.0688" lon="6.31827">
        <ele>1156.1999511719</ele>
        <time>2017-05-25T08:21:59.000Z</time>
      </trkpt>
      <trkpt lat="44.06899" lon="6.31823">
        <ele>1156.5999755859</ele>
        <time>2017-05-25T08:22:10.000Z</time>
      </trkpt>
      <trkpt lat="44.06917" lon="6.3182">
        <ele>1157.5999755859</ele>
        <time>2017-05-25T08:22:21.000Z</time>
      </trkpt>
      <trkpt lat="44.06933" lon="6.31832">
        <ele>1161.8000488281</ele>
        <time>2017-05-25T08:22:32.000Z</time>
      </trkpt>
      <trkpt lat="44.06946" lon="6.31849">
        <ele>1166.5999755859</ele>
        <time>2017-05-25T08:22:43.000Z</time>
      </trkpt>
      <trkpt lat="44.06948" lon="6.31851">
        <ele>1166.8000488281</ele>
        <time>2017-05-25T08:22:44.000Z</time>
      </trkpt>
      <trkpt lat="44.06958" lon="6.31873">
        <ele>1171</ele>
        <time>2017-05-25T08:22:56.000Z</time>
      </trkpt>
      <trkpt lat="44.06966" lon="6.31897">
        <ele>1176.1999511719</ele>
        <time>2017-05-25T08:23:09.000Z</time>
      </trkpt>
      <trkpt lat="44.0697" lon="6.31923">
        <ele>1179.8000488281</ele>
        <time>2017-05-25T08:23:21.000Z</time>
      </trkpt>
      <trkpt lat="44.0698" lon="6.31945">
        <ele>1182</ele>
        <time>2017-05-25T08:23:34.000Z</time>
      </trkpt>
      <trkpt lat="44.06987" lon="6.31969">
        <ele>1184.5999755859</ele>
        <time>2017-05-25T08:23:46.000Z</time>
      </trkpt>
      <trkpt lat="44.06994" lon="6.31995">
        <ele>1188.1999511719</ele>
        <time>2017-05-25T08:23:58.000Z</time>
      </trkpt>
      <trkpt lat="44.07008" lon="6.32011">
        <ele>1189.8000488281</ele>
        <time>2017-05-25T08:24:09.000Z</time>
      </trkpt>
      <trkpt lat="44.07023" lon="6.32028">
        <ele>1191.4000244141</ele>
        <time>2017-05-25T08:24:19.000Z</time>
      </trkpt>
      <trkpt lat="44.07033" lon="6.32049">
        <ele>1194</ele>
        <time>2017-05-25T08:24:28.000Z</time>
      </trkpt>
      <trkpt lat="44.0704" lon="6.32073">
        <ele>1197</ele>
        <time>2017-05-25T08:24:38.000Z</time>
      </trkpt>
      <trkpt lat="44.07049" lon="6.32097">
        <ele>1198.8000488281</ele>
        <time>2017-05-25T08:24:49.000Z</time>
      </trkpt>
      <trkpt lat="44.07057" lon="6.3212">
        <ele>1200</ele>
        <time>2017-05-25T08:24:59.000Z</time>
      </trkpt>
      <trkpt lat="44.0706" lon="6.32145">
        <ele>1202</ele>
        <time>2017-05-25T08:25:10.000Z</time>
      </trkpt>
      <trkpt lat="44.07061" lon="6.3217">
        <ele>1205.5999755859</ele>
        <time>2017-05-25T08:25:22.000Z</time>
      </trkpt>
      <trkpt lat="44.07068" lon="6.32194">
        <ele>1208.1999511719</ele>
        <time>2017-05-25T08:25:33.000Z</time>
      </trkpt>
      <trkpt lat="44.07084" lon="6.32211">
        <ele>1209</ele>
        <time>2017-05-25T08:25:44.000Z</time>
      </trkpt>
      <trkpt lat="44.07094" lon="6.32228">
        <ele>1210.1999511719</ele>
        <time>2017-05-25T08:25:54.000Z</time>
      </trkpt>
      <trkpt lat="44.07093" lon="6.3223">
        <ele>1210.5999755859</ele>
        <time>2017-05-25T08:25:55.000Z</time>
      </trkpt>
      <trkpt lat="44.07083" lon="6.32231">
        <ele>1211.5999755859</ele>
        <time>2017-05-25T08:26:00.000Z</time>
      </trkpt>
      <trkpt lat="44.07068" lon="6.32221">
        <ele>1211.8000488281</ele>
        <time>2017-05-25T08:26:09.000Z</time>
      </trkpt>
      <trkpt lat="44.07051" lon="6.32225">
        <ele>1214</ele>
        <time>2017-05-25T08:26:21.000Z</time>
      </trkpt>
      <trkpt lat="44.07033" lon="6.32232">
        <ele>1216.5999755859</ele>
        <time>2017-05-25T08:26:32.000Z</time>
      </trkpt>
      <trkpt lat="44.07015" lon="6.3224">
        <ele>1219.5999755859</ele>
        <time>2017-05-25T08:26:44.000Z</time>
      </trkpt>
      <trkpt lat="44.06997" lon="6.32246">
        <ele>1222.5999755859</ele>
        <time>2017-05-25T08:26:55.000Z</time>
      </trkpt>
      <trkpt lat="44.0698" lon="6.32256">
        <ele>1226</ele>
        <time>2017-05-25T08:27:06.000Z</time>
      </trkpt>
      <trkpt lat="44.06963" lon="6.32266">
        <ele>1229.5999755859</ele>
        <time>2017-05-25T08:27:17.000Z</time>
      </trkpt>
      <trkpt lat="44.06945" lon="6.32263">
        <ele>1231.5999755859</ele>
        <time>2017-05-25T08:27:28.000Z</time>
      </trkpt>
      <trkpt lat="44.06929" lon="6.32254">
        <ele>1232</ele>
        <time>2017-05-25T08:27:39.000Z</time>
      </trkpt>
      <trkpt lat="44.06911" lon="6.32243">
        <ele>1232.1999511719</ele>
        <time>2017-05-25T08:27:51.000Z</time>
      </trkpt>
      <trkpt lat="44.06895" lon="6.3223">
        <ele>1232</ele>
        <time>2017-05-25T08:28:04.000Z</time>
      </trkpt>
      <trkpt lat="44.06879" lon="6.32216">
        <ele>1231</ele>
        <time>2017-05-25T08:28:15.000Z</time>
      </trkpt>
      <trkpt lat="44.06863" lon="6.32205">
        <ele>1230.8000488281</ele>
        <time>2017-05-25T08:28:27.000Z</time>
      </trkpt>
      <trkpt lat="44.06848" lon="6.3222">
        <ele>1230.4000244141</ele>
        <time>2017-05-25T08:28:40.000Z</time>
      </trkpt>
      <trkpt lat="44.06834" lon="6.32238">
        <ele>1230.4000244141</ele>
        <time>2017-05-25T08:28:53.000Z</time>
      </trkpt>
      <trkpt lat="44.0682" lon="6.32257">
        <ele>1229.8000488281</ele>
        <time>2017-05-25T08:29:04.000Z</time>
      </trkpt>
      <trkpt lat="44.0681" lon="6.32278">
        <ele>1230.5999755859</ele>
        <time>2017-05-25T08:29:15.000Z</time>
      </trkpt>
      <trkpt lat="44.06809" lon="6.32303">
        <ele>1234.1999511719</ele>
        <time>2017-05-25T08:29:25.000Z</time>
      </trkpt>
      <trkpt lat="44.06807" lon="6.32329">
        <ele>1237.1999511719</ele>
        <time>2017-05-25T08:29:35.000Z</time>
      </trkpt>
      <trkpt lat="44.06807" lon="6.32355">
        <ele>1240.5999755859</ele>
        <time>2017-05-25T08:29:45.000Z</time>
      </trkpt>
      <trkpt lat="44.06807" lon="6.3237">
        <ele>1243</ele>
        <time>2017-05-25T08:29:51.000Z</time>
      </trkpt>
      <trkpt lat="44.06806" lon="6.32379">
        <ele>1244.5999755859</ele>
        <time>2017-05-25T08:29:55.000Z</time>
      </trkpt>
      <trkpt lat="44.06805" lon="6.32404">
        <ele>1248.5999755859</ele>
        <time>2017-05-25T08:30:07.000Z</time>
      </trkpt>
      <trkpt lat="44.068" lon="6.32429">
        <ele>1252.4000244141</ele>
        <time>2017-05-25T08:30:19.000Z</time>
      </trkpt>
      <trkpt lat="44.06789" lon="6.32449">
        <ele>1256.8000488281</ele>
        <time>2017-05-25T08:30:30.000Z</time>
      </trkpt>
      <trkpt lat="44.06788" lon="6.32454">
        <ele>1258</ele>
        <time>2017-05-25T08:30:32.000Z</time>
      </trkpt>
      <trkpt lat="44.06794" lon="6.32462">
        <ele>1260.1999511719</ele>
        <time>2017-05-25T08:30:37.000Z</time>
      </trkpt>
      <trkpt lat="44.06812" lon="6.32467">
        <ele>1262</ele>
        <time>2017-05-25T08:30:49.000Z</time>
      </trkpt>
      <trkpt lat="44.06831" lon="6.32469">
        <ele>1263.1999511719</ele>
        <time>2017-05-25T08:31:01.000Z</time>
      </trkpt>
      <trkpt lat="44.0685" lon="6.32474">
        <ele>1265.1999511719</ele>
        <time>2017-05-25T08:31:13.000Z</time>
      </trkpt>
      <trkpt lat="44.06863" lon="6.32494">
        <ele>1270.1999511719</ele>
        <time>2017-05-25T08:31:27.000Z</time>
      </trkpt>
      <trkpt lat="44.06878" lon="6.32511">
        <ele>1274</ele>
        <time>2017-05-25T08:31:39.000Z</time>
      </trkpt>
      <trkpt lat="44.06895" lon="6.32518">
        <ele>1275.1999511719</ele>
        <time>2017-05-25T08:31:49.000Z</time>
      </trkpt>
      <trkpt lat="44.06914" lon="6.3252">
        <ele>1275.1999511719</ele>
        <time>2017-05-25T08:31:59.000Z</time>
      </trkpt>
      <trkpt lat="44.06933" lon="6.32519">
        <ele>1274.4000244141</ele>
        <time>2017-05-25T08:32:11.000Z</time>
      </trkpt>
      <trkpt lat="44.06952" lon="6.32522">
        <ele>1274</ele>
        <time>2017-05-25T08:32:22.000Z</time>
      </trkpt>
      <trkpt lat="44.06965" lon="6.32538">
        <ele>1276</ele>
        <time>2017-05-25T08:32:33.000Z</time>
      </trkpt>
      <trkpt lat="44.06972" lon="6.32561">
        <ele>1280.8000488281</ele>
        <time>2017-05-25T08:32:44.000Z</time>
      </trkpt>
      <trkpt lat="44.06976" lon="6.32587">
        <ele>1286.1999511719</ele>
        <time>2017-05-25T08:32:56.000Z</time>
      </trkpt>
      <trkpt lat="44.06976" lon="6.32589">
        <ele>1286.5999755859</ele>
        <time>2017-05-25T08:32:57.000Z</time>
      </trkpt>
      <trkpt lat="44.06977" lon="6.326">
        <ele>1289</ele>
        <time>2017-05-25T08:33:02.000Z</time>
      </trkpt>
      <trkpt lat="44.06979" lon="6.32625">
        <ele>1296</ele>
        <time>2017-05-25T08:33:15.000Z</time>
      </trkpt>
      <trkpt lat="44.06993" lon="6.32643">
        <ele>1298.5999755859</ele>
        <time>2017-05-25T08:33:25.000Z</time>
      </trkpt>
      <trkpt lat="44.07009" lon="6.32658">
        <ele>1299.8000488281</ele>
        <time>2017-05-25T08:33:33.000Z</time>
      </trkpt>
      <trkpt lat="44.07028" lon="6.32664">
        <ele>1297.8000488281</ele>
        <time>2017-05-25T08:33:41.000Z</time>
      </trkpt>
      <trkpt lat="44.07048" lon="6.32666">
        <ele>1295.8000488281</ele>
        <time>2017-05-25T08:33:49.000Z</time>
      </trkpt>
      <trkpt lat="44.07068" lon="6.32666">
        <ele>1294.1999511719</ele>
        <time>2017-05-25T08:33:57.000Z</time>
      </trkpt>
      <trkpt lat="44.07087" lon="6.32666">
        <ele>1293</ele>
        <time>2017-05-25T08:34:04.000Z</time>
      </trkpt>
      <trkpt lat="44.07103" lon="6.32679">
        <ele>1294.8000488281</ele>
        <time>2017-05-25T08:34:15.000Z</time>
      </trkpt>
      <trkpt lat="44.07119" lon="6.32695">
        <ele>1297</ele>
        <time>2017-05-25T08:34:23.000Z</time>
      </trkpt>
      <trkpt lat="44.07135" lon="6.32711">
        <ele>1299.1999511719</ele>
        <time>2017-05-25T08:34:32.000Z</time>
      </trkpt>
      <trkpt lat="44.07151" lon="6.32727">
        <ele>1301</ele>
        <time>2017-05-25T08:34:41.000Z</time>
      </trkpt>
      <trkpt lat="44.07167" lon="6.32742">
        <ele>1304.1999511719</ele>
        <time>2017-05-25T08:34:49.000Z</time>
      </trkpt>
      <trkpt lat="44.07183" lon="6.32754">
        <ele>1306.8000488281</ele>
        <time>2017-05-25T08:34:57.000Z</time>
      </trkpt>
      <trkpt lat="44.072" lon="6.32767">
        <ele>1308.4000244141</ele>
        <time>2017-05-25T08:35:06.000Z</time>
      </trkpt>
      <trkpt lat="44.07212" lon="6.32787">
        <ele>1312.8000488281</ele>
        <time>2017-05-25T08:35:17.000Z</time>
      </trkpt>
      <trkpt lat="44.07226" lon="6.32802">
        <ele>1315</ele>
        <time>2017-05-25T08:35:27.000Z</time>
      </trkpt>
      <trkpt lat="44.07243" lon="6.32811">
        <ele>1314.4000244141</ele>
        <time>2017-05-25T08:35:38.000Z</time>
      </trkpt>
      <trkpt lat="44.07257" lon="6.32829">
        <ele>1319.5999755859</ele>
        <time>2017-05-25T08:35:49.000Z</time>
      </trkpt>
      <trkpt lat="44.07274" lon="6.32839">
        <ele>1321</ele>
        <time>2017-05-25T08:35:59.000Z</time>
      </trkpt>
      <trkpt lat="44.07292" lon="6.32841">
        <ele>1318.4000244141</ele>
        <time>2017-05-25T08:36:07.000Z</time>
      </trkpt>
      <trkpt lat="44.07311" lon="6.32846">
        <ele>1317.1999511719</ele>
        <time>2017-05-25T08:36:16.000Z</time>
      </trkpt>
      <trkpt lat="44.07328" lon="6.32858">
        <ele>1320</ele>
        <time>2017-05-25T08:36:25.000Z</time>
      </trkpt>
      <trkpt lat="44.07344" lon="6.32871">
        <ele>1323.4000244141</ele>
        <time>2017-05-25T08:36:34.000Z</time>
      </trkpt>
      <trkpt lat="44.07362" lon="6.32881">
        <ele>1325.4000244141</ele>
        <time>2017-05-25T08:36:44.000Z</time>
      </trkpt>
      <trkpt lat="44.0737" lon="6.32904">
        <ele>1331.5999755859</ele>
        <time>2017-05-25T08:36:55.000Z</time>
      </trkpt>
      <trkpt lat="44.07378" lon="6.32925">
        <ele>1337.5999755859</ele>
        <time>2017-05-25T08:37:07.000Z</time>
      </trkpt>
      <trkpt lat="44.07396" lon="6.32936">
        <ele>1338</ele>
        <time>2017-05-25T08:37:17.000Z</time>
      </trkpt>
      <trkpt lat="44.07413" lon="6.32946">
        <ele>1338.5999755859</ele>
        <time>2017-05-25T08:37:27.000Z</time>
      </trkpt>
      <trkpt lat="44.07426" lon="6.32966">
        <ele>1343</ele>
        <time>2017-05-25T08:37:38.000Z</time>
      </trkpt>
      <trkpt lat="44.07438" lon="6.32986">
        <ele>1347.5999755859</ele>
        <time>2017-05-25T08:37:49.000Z</time>
      </trkpt>
      <trkpt lat="44.07451" lon="6.33005">
        <ele>1350</ele>
        <time>2017-05-25T08:38:00.000Z</time>
      </trkpt>
      <trkpt lat="44.07465" lon="6.33024">
        <ele>1351.1999511719</ele>
        <time>2017-05-25T08:38:12.000Z</time>
      </trkpt>
      <trkpt lat="44.07478" lon="6.33043">
        <ele>1352.5999755859</ele>
        <time>2017-05-25T08:38:24.000Z</time>
      </trkpt>
      <trkpt lat="44.0749" lon="6.33062">
        <ele>1354.1999511719</ele>
        <time>2017-05-25T08:38:34.000Z</time>
      </trkpt>
      <trkpt lat="44.07506" lon="6.33077">
        <ele>1355</ele>
        <time>2017-05-25T08:38:44.000Z</time>
      </trkpt>
      <trkpt lat="44.07524" lon="6.33082">
        <ele>1350.5999755859</ele>
        <time>2017-05-25T08:38:53.000Z</time>
      </trkpt>
      <trkpt lat="44.07542" lon="6.33089">
        <ele>1348.1999511719</ele>
        <time>2017-05-25T08:39:02.000Z</time>
      </trkpt>
      <trkpt lat="44.07558" lon="6.33101">
        <ele>1349.1999511719</ele>
        <time>2017-05-25T08:39:12.000Z</time>
      </trkpt>
      <trkpt lat="44.07573" lon="6.33117">
        <ele>1351.5999755859</ele>
        <time>2017-05-25T08:39:22.000Z</time>
      </trkpt>
      <trkpt lat="44.07578" lon="6.33128">
        <ele>1354.5999755859</ele>
        <time>2017-05-25T08:40:16.000Z</time>
      </trkpt>
      <trkpt lat="44.07575" lon="6.33129">
        <ele>1356.1999511719</ele>
        <time>2017-05-25T08:46:28.000Z</time>
      </trkpt>
      <trkpt lat="44.07558" lon="6.33119">
        <ele>1356.8000488281</ele>
        <time>2017-05-25T08:46:37.000Z</time>
      </trkpt>
      <trkpt lat="44.07539" lon="6.33114">
        <ele>1359.8000488281</ele>
        <time>2017-05-25T08:46:49.000Z</time>
      </trkpt>
      <trkpt lat="44.0752" lon="6.33111">
        <ele>1364.5999755859</ele>
        <time>2017-05-25T08:47:02.000Z</time>
      </trkpt>
      <trkpt lat="44.07507" lon="6.33106">
        <ele>1367</ele>
        <time>2017-05-25T08:47:11.000Z</time>
      </trkpt>
      <trkpt lat="44.0749" lon="6.33113">
        <ele>1376.1999511719</ele>
        <time>2017-05-25T08:47:31.000Z</time>
      </trkpt>
      <trkpt lat="44.07472" lon="6.33107">
        <ele>1379.4000244141</ele>
        <time>2017-05-25T08:47:43.000Z</time>
      </trkpt>
      <trkpt lat="44.07454" lon="6.33099">
        <ele>1382.1999511719</ele>
        <time>2017-05-25T08:47:53.000Z</time>
      </trkpt>
      <trkpt lat="44.07439" lon="6.33086">
        <ele>1382</ele>
        <time>2017-05-25T08:48:05.000Z</time>
      </trkpt>
      <trkpt lat="44.07425" lon="6.33069">
        <ele>1379.4000244141</ele>
        <time>2017-05-25T08:48:23.000Z</time>
      </trkpt>
      <trkpt lat="44.07409" lon="6.33058">
        <ele>1379.8000488281</ele>
        <time>2017-05-25T08:48:37.000Z</time>
      </trkpt>
      <trkpt lat="44.07412" lon="6.33067">
        <ele>1382.8000488281</ele>
        <time>2017-05-25T08:48:44.000Z</time>
      </trkpt>
      <trkpt lat="44.07423" lon="6.33089">
        <ele>1388</ele>
        <time>2017-05-25T08:48:57.000Z</time>
      </trkpt>
      <trkpt lat="44.07433" lon="6.33112">
        <ele>1394.1999511719</ele>
        <time>2017-05-25T08:49:08.000Z</time>
      </trkpt>
      <trkpt lat="44.07445" lon="6.33133">
        <ele>1398.5999755859</ele>
        <time>2017-05-25T08:49:21.000Z</time>
      </trkpt>
      <trkpt lat="44.07459" lon="6.33149">
        <ele>1400.4000244141</ele>
        <time>2017-05-25T08:49:32.000Z</time>
      </trkpt>
      <trkpt lat="44.07475" lon="6.33162">
        <ele>1400.4000244141</ele>
        <time>2017-05-25T08:49:44.000Z</time>
      </trkpt>
      <trkpt lat="44.07491" lon="6.33176">
        <ele>1400.4000244141</ele>
        <time>2017-05-25T08:49:55.000Z</time>
      </trkpt>
      <trkpt lat="44.07505" lon="6.33191">
        <ele>1401.5999755859</ele>
        <time>2017-05-25T08:50:07.000Z</time>
      </trkpt>
      <trkpt lat="44.07519" lon="6.33208">
        <ele>1403.4000244141</ele>
        <time>2017-05-25T08:50:20.000Z</time>
      </trkpt>
      <trkpt lat="44.0753" lon="6.33229">
        <ele>1408.1999511719</ele>
        <time>2017-05-25T08:50:33.000Z</time>
      </trkpt>
      <trkpt lat="44.07545" lon="6.33243">
        <ele>1409.5999755859</ele>
        <time>2017-05-25T08:50:45.000Z</time>
      </trkpt>
      <trkpt lat="44.07562" lon="6.33255">
        <ele>1409.8000488281</ele>
        <time>2017-05-25T08:50:57.000Z</time>
      </trkpt>
      <trkpt lat="44.07578" lon="6.33267">
        <ele>1410</ele>
        <time>2017-05-25T08:51:08.000Z</time>
      </trkpt>
      <trkpt lat="44.07594" lon="6.3328">
        <ele>1410.5999755859</ele>
        <time>2017-05-25T08:51:20.000Z</time>
      </trkpt>
      <trkpt lat="44.07607" lon="6.33298">
        <ele>1415</ele>
        <time>2017-05-25T08:51:31.000Z</time>
      </trkpt>
      <trkpt lat="44.07623" lon="6.3331">
        <ele>1416.5999755859</ele>
        <time>2017-05-25T08:51:42.000Z</time>
      </trkpt>
      <trkpt lat="44.07638" lon="6.33328">
        <ele>1420.8000488281</ele>
        <time>2017-05-25T08:51:55.000Z</time>
      </trkpt>
      <trkpt lat="44.07654" lon="6.33341">
        <ele>1423</ele>
        <time>2017-05-25T08:52:08.000Z</time>
      </trkpt>
      <trkpt lat="44.07669" lon="6.33356">
        <ele>1426.5999755859</ele>
        <time>2017-05-25T08:52:20.000Z</time>
      </trkpt>
      <trkpt lat="44.07686" lon="6.33368">
        <ele>1428</ele>
        <time>2017-05-25T08:52:32.000Z</time>
      </trkpt>
      <trkpt lat="44.07702" lon="6.3338">
        <ele>1430</ele>
        <time>2017-05-25T08:52:44.000Z</time>
      </trkpt>
      <trkpt lat="44.07718" lon="6.33391">
        <ele>1432</ele>
        <time>2017-05-25T08:52:56.000Z</time>
      </trkpt>
      <trkpt lat="44.07735" lon="6.33403">
        <ele>1434.1999511719</ele>
        <time>2017-05-25T08:53:10.000Z</time>
      </trkpt>
      <trkpt lat="44.07753" lon="6.33415">
        <ele>1436.8000488281</ele>
        <time>2017-05-25T08:53:22.000Z</time>
      </trkpt>
      <trkpt lat="44.0777" lon="6.33426">
        <ele>1438.8000488281</ele>
        <time>2017-05-25T08:53:34.000Z</time>
      </trkpt>
      <trkpt lat="44.07787" lon="6.33437">
        <ele>1441.4000244141</ele>
        <time>2017-05-25T08:53:47.000Z</time>
      </trkpt>
      <trkpt lat="44.07805" lon="6.33445">
        <ele>1443.1999511719</ele>
        <time>2017-05-25T08:54:00.000Z</time>
      </trkpt>
      <trkpt lat="44.07823" lon="6.33452">
        <ele>1444.4000244141</ele>
        <time>2017-05-25T08:54:12.000Z</time>
      </trkpt>
      <trkpt lat="44.07841" lon="6.33462">
        <ele>1447</ele>
        <time>2017-05-25T08:54:24.000Z</time>
      </trkpt>
      <trkpt lat="44.07858" lon="6.33472">
        <ele>1449.1999511719</ele>
        <time>2017-05-25T08:54:36.000Z</time>
      </trkpt>
      <trkpt lat="44.07876" lon="6.3348">
        <ele>1451.1999511719</ele>
        <time>2017-05-25T08:54:47.000Z</time>
      </trkpt>
      <trkpt lat="44.07895" lon="6.33485">
        <ele>1451.4000244141</ele>
        <time>2017-05-25T08:54:57.000Z</time>
      </trkpt>
      <trkpt lat="44.07913" lon="6.33489">
        <ele>1451</ele>
        <time>2017-05-25T08:55:08.000Z</time>
      </trkpt>
      <trkpt lat="44.07931" lon="6.33497">
        <ele>1453.1999511719</ele>
        <time>2017-05-25T08:55:20.000Z</time>
      </trkpt>
      <trkpt lat="44.0795" lon="6.33505">
        <ele>1455.4000244141</ele>
        <time>2017-05-25T08:55:31.000Z</time>
      </trkpt>
      <trkpt lat="44.07968" lon="6.3351">
        <ele>1457.8000488281</ele>
        <time>2017-05-25T08:55:42.000Z</time>
      </trkpt>
      <trkpt lat="44.07985" lon="6.33518">
        <ele>1461.1999511719</ele>
        <time>2017-05-25T08:55:53.000Z</time>
      </trkpt>
      <trkpt lat="44.08004" lon="6.33522">
        <ele>1463</ele>
        <time>2017-05-25T08:56:04.000Z</time>
      </trkpt>
      <trkpt lat="44.08022" lon="6.33525">
        <ele>1463.8000488281</ele>
        <time>2017-05-25T08:56:16.000Z</time>
      </trkpt>
      <trkpt lat="44.08032" lon="6.33527">
        <ele>1463.5999755859</ele>
        <time>2017-05-25T08:56:24.000Z</time>
      </trkpt>
      <trkpt lat="44.08025" lon="6.33534">
        <ele>1468.5999755859</ele>
        <time>2017-05-25T08:56:31.000Z</time>
      </trkpt>
      <trkpt lat="44.08008" lon="6.33541">
        <ele>1472</ele>
        <time>2017-05-25T08:56:45.000Z</time>
      </trkpt>
      <trkpt lat="44.07989" lon="6.33549">
        <ele>1476.4000244141</ele>
        <time>2017-05-25T08:57:00.000Z</time>
      </trkpt>
      <trkpt lat="44.07971" lon="6.33556">
        <ele>1479.8000488281</ele>
        <time>2017-05-25T08:57:14.000Z</time>
      </trkpt>
      <trkpt lat="44.07953" lon="6.33564">
        <ele>1484</ele>
        <time>2017-05-25T08:57:29.000Z</time>
      </trkpt>
      <trkpt lat="44.07936" lon="6.33572">
        <ele>1488.8000488281</ele>
        <time>2017-05-25T08:57:44.000Z</time>
      </trkpt>
      <trkpt lat="44.07917" lon="6.33575">
        <ele>1492.4000244141</ele>
        <time>2017-05-25T08:58:00.000Z</time>
      </trkpt>
      <trkpt lat="44.07899" lon="6.33578">
        <ele>1495.8000488281</ele>
        <time>2017-05-25T08:58:16.000Z</time>
      </trkpt>
      <trkpt lat="44.07905" lon="6.33593">
        <ele>1502.8000488281</ele>
        <time>2017-05-25T08:58:39.000Z</time>
      </trkpt>
      <trkpt lat="44.07923" lon="6.33605">
        <ele>1506.8000488281</ele>
        <time>2017-05-25T08:58:54.000Z</time>
      </trkpt>
      <trkpt lat="44.07942" lon="6.33609">
        <ele>1507</ele>
        <time>2017-05-25T08:59:08.000Z</time>
      </trkpt>
      <trkpt lat="44.0796" lon="6.33618">
        <ele>1510.4000244141</ele>
        <time>2017-05-25T08:59:22.000Z</time>
      </trkpt>
      <trkpt lat="44.07978" lon="6.33626">
        <ele>1513.5999755859</ele>
        <time>2017-05-25T08:59:37.000Z</time>
      </trkpt>
      <trkpt lat="44.07997" lon="6.3363">
        <ele>1514.5999755859</ele>
        <time>2017-05-25T08:59:51.000Z</time>
      </trkpt>
      <trkpt lat="44.08015" lon="6.33633">
        <ele>1515.5999755859</ele>
        <time>2017-05-25T09:00:06.000Z</time>
      </trkpt>
      <trkpt lat="44.08031" lon="6.33645">
        <ele>1519.8000488281</ele>
        <time>2017-05-25T09:00:24.000Z</time>
      </trkpt>
      <trkpt lat="44.08047" lon="6.33658">
        <ele>1523.4000244141</ele>
        <time>2017-05-25T09:00:39.000Z</time>
      </trkpt>
      <trkpt lat="44.08044" lon="6.33663">
        <ele>1526.5999755859</ele>
        <time>2017-05-25T09:01:36.000Z</time>
      </trkpt>
      <trkpt lat="44.08024" lon="6.33664">
        <ele>1531.8000488281</ele>
        <time>2017-05-25T09:01:50.000Z</time>
      </trkpt>
      <trkpt lat="44.08004" lon="6.33666">
        <ele>1533.5999755859</ele>
        <time>2017-05-25T09:02:01.000Z</time>
      </trkpt>
      <trkpt lat="44.07985" lon="6.33668">
        <ele>1535.5999755859</ele>
        <time>2017-05-25T09:02:12.000Z</time>
      </trkpt>
      <trkpt lat="44.07967" lon="6.33672">
        <ele>1539</ele>
        <time>2017-05-25T09:02:23.000Z</time>
      </trkpt>
      <trkpt lat="44.07948" lon="6.33675">
        <ele>1540.5999755859</ele>
        <time>2017-05-25T09:02:34.000Z</time>
      </trkpt>
      <trkpt lat="44.0793" lon="6.33684">
        <ele>1546.4000244141</ele>
        <time>2017-05-25T09:02:45.000Z</time>
      </trkpt>
      <trkpt lat="44.07911" lon="6.33684">
        <ele>1548.4000244141</ele>
        <time>2017-05-25T09:02:55.000Z</time>
      </trkpt>
      <trkpt lat="44.07892" lon="6.33682">
        <ele>1549</ele>
        <time>2017-05-25T09:03:06.000Z</time>
      </trkpt>
      <trkpt lat="44.07873" lon="6.33681">
        <ele>1551</ele>
        <time>2017-05-25T09:03:17.000Z</time>
      </trkpt>
      <trkpt lat="44.07854" lon="6.33677">
        <ele>1551.4000244141</ele>
        <time>2017-05-25T09:03:28.000Z</time>
      </trkpt>
      <trkpt lat="44.07837" lon="6.33671">
        <ele>1552.1999511719</ele>
        <time>2017-05-25T09:03:39.000Z</time>
      </trkpt>
      <trkpt lat="44.07817" lon="6.33673">
        <ele>1558.1999511719</ele>
        <time>2017-05-25T09:03:51.000Z</time>
      </trkpt>
      <trkpt lat="44.07807" lon="6.33661">
        <ele>1554.1999511719</ele>
        <time>2017-05-25T09:04:27.000Z</time>
      </trkpt>
      <trkpt lat="44.0781" lon="6.33686">
        <ele>1566.5999755859</ele>
        <time>2017-05-25T09:05:02.000Z</time>
      </trkpt>
      <trkpt lat="44.07813" lon="6.33684">
        <ele>1565</ele>
        <time>2017-05-25T09:05:20.000Z</time>
      </trkpt>
      <trkpt lat="44.07831" lon="6.33692">
        <ele>1564.8000488281</ele>
        <time>2017-05-25T09:05:31.000Z</time>
      </trkpt>
      <trkpt lat="44.07849" lon="6.33701">
        <ele>1565.5999755859</ele>
        <time>2017-05-25T09:05:40.000Z</time>
      </trkpt>
      <trkpt lat="44.07864" lon="6.33713">
        <ele>1568.8000488281</ele>
        <time>2017-05-25T09:05:56.000Z</time>
      </trkpt>
      <trkpt lat="44.07874" lon="6.33715">
        <ele>1569.1999511719</ele>
        <time>2017-05-25T09:06:04.000Z</time>
      </trkpt>
      <trkpt lat="44.07879" lon="6.33717">
        <ele>1569.4000244141</ele>
        <time>2017-05-25T09:06:08.000Z</time>
      </trkpt>
      <trkpt lat="44.07885" lon="6.3372">
        <ele>1570.1999511719</ele>
        <time>2017-05-25T09:06:13.000Z</time>
      </trkpt>
      <trkpt lat="44.07902" lon="6.33733">
        <ele>1576.1999511719</ele>
        <time>2017-05-25T09:06:25.000Z</time>
      </trkpt>
      <trkpt lat="44.07907" lon="6.33738">
        <ele>1579.4000244141</ele>
        <time>2017-05-25T09:06:30.000Z</time>
      </trkpt>
      <trkpt lat="44.07924" lon="6.33735">
        <ele>1575</ele>
        <time>2017-05-25T09:06:43.000Z</time>
      </trkpt>
      <trkpt lat="44.07929" lon="6.33735">
        <ele>1574.8000488281</ele>
        <time>2017-05-25T09:06:47.000Z</time>
      </trkpt>
      <trkpt lat="44.07948" lon="6.33733">
        <ele>1571.4000244141</ele>
        <time>2017-05-25T09:07:03.000Z</time>
      </trkpt>
      <trkpt lat="44.07965" lon="6.33744">
        <ele>1579.8000488281</ele>
        <time>2017-05-25T09:07:15.000Z</time>
      </trkpt>
      <trkpt lat="44.07984" lon="6.33749">
        <ele>1583.1999511719</ele>
        <time>2017-05-25T09:07:30.000Z</time>
      </trkpt>
      <trkpt lat="44.07999" lon="6.33764">
        <ele>1594.1999511719</ele>
        <time>2017-05-25T09:07:44.000Z</time>
      </trkpt>
      <trkpt lat="44.08018" lon="6.33773">
        <ele>1600.1999511719</ele>
        <time>2017-05-25T09:08:03.000Z</time>
      </trkpt>
      <trkpt lat="44.08018" lon="6.33784">
        <ele>1608.8000488281</ele>
        <time>2017-05-25T09:08:42.000Z</time>
      </trkpt>
      <trkpt lat="44.08" lon="6.33779">
        <ele>1604.8000488281</ele>
        <time>2017-05-25T09:08:55.000Z</time>
      </trkpt>
      <trkpt lat="44.07982" lon="6.33774">
        <ele>1601.5999755859</ele>
        <time>2017-05-25T09:09:07.000Z</time>
      </trkpt>
      <trkpt lat="44.07963" lon="6.33783">
        <ele>1609</ele>
        <time>2017-05-25T09:09:36.000Z</time>
      </trkpt>
      <trkpt lat="44.07946" lon="6.33789">
        <ele>1614.4000244141</ele>
        <time>2017-05-25T09:09:44.000Z</time>
      </trkpt>
      <trkpt lat="44.0793" lon="6.33791">
        <ele>1617.4000244141</ele>
        <time>2017-05-25T09:10:09.000Z</time>
      </trkpt>
      <trkpt lat="44.07927" lon="6.33802">
        <ele>1626</ele>
        <time>2017-05-25T09:10:42.000Z</time>
      </trkpt>
      <trkpt lat="44.07908" lon="6.33809">
        <ele>1629.1999511719</ele>
        <time>2017-05-25T09:10:54.000Z</time>
      </trkpt>
      <trkpt lat="44.0789" lon="6.33809">
        <ele>1628</ele>
        <time>2017-05-25T09:11:04.000Z</time>
      </trkpt>
      <trkpt lat="44.07872" lon="6.33813">
        <ele>1629</ele>
        <time>2017-05-25T09:11:15.000Z</time>
      </trkpt>
      <trkpt lat="44.07865" lon="6.33818">
        <ele>1631</ele>
        <time>2017-05-25T09:11:47.000Z</time>
      </trkpt>
      <trkpt lat="44.07863" lon="6.3383">
        <ele>1638.5999755859</ele>
        <time>2017-05-25T09:12:35.000Z</time>
      </trkpt>
      <trkpt lat="44.07875" lon="6.33829">
        <ele>1636.1999511719</ele>
        <time>2017-05-25T09:13:34.000Z</time>
      </trkpt>
      <trkpt lat="44.07891" lon="6.33828">
        <ele>1637</ele>
        <time>2017-05-25T09:13:52.000Z</time>
      </trkpt>
      <trkpt lat="44.07893" lon="6.33829">
        <ele>1637.5999755859</ele>
        <time>2017-05-25T09:13:53.000Z</time>
      </trkpt>
      <trkpt lat="44.07894" lon="6.33836">
        <ele>1640.4000244141</ele>
        <time>2017-05-25T09:14:17.000Z</time>
      </trkpt>
      <trkpt lat="44.07877" lon="6.33846">
        <ele>1647</ele>
        <time>2017-05-25T09:14:39.000Z</time>
      </trkpt>
      <trkpt lat="44.0788" lon="6.33842">
        <ele>1643.5999755859</ele>
        <time>2017-05-25T09:15:24.000Z</time>
      </trkpt>
      <trkpt lat="44.07896" lon="6.33852">
        <ele>1647.5999755859</ele>
        <time>2017-05-25T09:15:59.000Z</time>
      </trkpt>
      <trkpt lat="44.0791" lon="6.33858">
        <ele>1651</ele>
        <time>2017-05-25T09:16:42.000Z</time>
      </trkpt>
      <trkpt lat="44.07922" lon="6.33861">
        <ele>1652.8000488281</ele>
        <time>2017-05-25T09:17:50.000Z</time>
      </trkpt>
      <trkpt lat="44.07939" lon="6.33872">
        <ele>1658.8000488281</ele>
        <time>2017-05-25T09:18:25.000Z</time>
      </trkpt>
      <trkpt lat="44.07956" lon="6.33862">
        <ele>1654.5999755859</ele>
        <time>2017-05-25T09:18:54.000Z</time>
      </trkpt>
      <trkpt lat="44.07966" lon="6.33874">
        <ele>1659.8000488281</ele>
        <time>2017-05-25T09:19:27.000Z</time>
      </trkpt>
      <trkpt lat="44.07983" lon="6.33878">
        <ele>1661</ele>
        <time>2017-05-25T09:20:00.000Z</time>
      </trkpt>
      <trkpt lat="44.07994" lon="6.33866">
        <ele>1656</ele>
        <time>2017-05-25T09:21:27.000Z</time>
      </trkpt>
      <trkpt lat="44.07992" lon="6.33873">
        <ele>1659</ele>
        <time>2017-05-25T09:22:52.000Z</time>
      </trkpt>
      <trkpt lat="44.07996" lon="6.33884">
        <ele>1663.5999755859</ele>
        <time>2017-05-25T09:24:41.000Z</time>
      </trkpt>
      <trkpt lat="44.08012" lon="6.33876">
        <ele>1659.5999755859</ele>
        <time>2017-05-25T09:25:23.000Z</time>
      </trkpt>
      <trkpt lat="44.08034" lon="6.3388">
        <ele>1658.8000488281</ele>
        <time>2017-05-25T09:25:28.000Z</time>
      </trkpt>
      <trkpt lat="44.08052" lon="6.33883">
        <ele>1656.1999511719</ele>
        <time>2017-05-25T09:25:34.000Z</time>
      </trkpt>
      <trkpt lat="44.08055" lon="6.33885">
        <ele>1656.1999511719</ele>
        <time>2017-05-25T09:25:36.000Z</time>
      </trkpt>
      <trkpt lat="44.08073" lon="6.33887">
        <ele>1653</ele>
        <time>2017-05-25T09:26:06.000Z</time>
      </trkpt>
      <trkpt lat="44.0809" lon="6.33899">
        <ele>1653.5999755859</ele>
        <time>2017-05-25T09:26:13.000Z</time>
      </trkpt>
      <trkpt lat="44.08106" lon="6.33913">
        <ele>1650.1999511719</ele>
        <time>2017-05-25T09:26:20.000Z</time>
      </trkpt>
      <trkpt lat="44.08114" lon="6.33919">
        <ele>1649</ele>
        <time>2017-05-25T09:49:50.000Z</time>
      </trkpt>
      <trkpt lat="44.08098" lon="6.33934">
        <ele>1652.5999755859</ele>
        <time>2017-05-25T09:49:57.000Z</time>
      </trkpt>
      <trkpt lat="44.08092" lon="6.3394">
        <ele>1654.1999511719</ele>
        <time>2017-05-25T09:50:00.000Z</time>
      </trkpt>
      <trkpt lat="44.08113" lon="6.33944">
        <ele>1649.8000488281</ele>
        <time>2017-05-25T09:50:06.000Z</time>
      </trkpt>
      <trkpt lat="44.08135" lon="6.33949">
        <ele>1647.5999755859</ele>
        <time>2017-05-25T09:50:12.000Z</time>
      </trkpt>
      <trkpt lat="44.08154" lon="6.33957">
        <ele>1645.5999755859</ele>
        <time>2017-05-25T09:50:16.000Z</time>
      </trkpt>
      <trkpt lat="44.08163" lon="6.3396">
        <ele>1644.5999755859</ele>
        <time>2017-05-25T09:50:18.000Z</time>
      </trkpt>
      <trkpt lat="44.08183" lon="6.33963">
        <ele>1642</ele>
        <time>2017-05-25T09:50:23.000Z</time>
      </trkpt>
      <trkpt lat="44.08192" lon="6.33966">
        <ele>1640.5999755859</ele>
        <time>2017-05-25T09:50:26.000Z</time>
      </trkpt>
      <trkpt lat="44.08206" lon="6.33973">
        <ele>1641</ele>
        <time>2017-05-25T09:50:29.000Z</time>
      </trkpt>
      <trkpt lat="44.08228" lon="6.33981">
        <ele>1641.5999755859</ele>
        <time>2017-05-25T09:50:33.000Z</time>
      </trkpt>
      <trkpt lat="44.08239" lon="6.3399">
        <ele>1639</ele>
        <time>2017-05-25T09:50:36.000Z</time>
      </trkpt>
      <trkpt lat="44.08245" lon="6.33998">
        <ele>1637.1999511719</ele>
        <time>2017-05-25T09:50:40.000Z</time>
      </trkpt>
      <trkpt lat="44.08226" lon="6.34002">
        <ele>1636.1999511719</ele>
        <time>2017-05-25T09:50:45.000Z</time>
      </trkpt>
      <trkpt lat="44.08204" lon="6.34012">
        <ele>1634.1999511719</ele>
        <time>2017-05-25T09:50:49.000Z</time>
      </trkpt>
      <trkpt lat="44.08193" lon="6.34019">
        <ele>1632.8000488281</ele>
        <time>2017-05-25T09:50:53.000Z</time>
      </trkpt>
      <trkpt lat="44.08209" lon="6.34037">
        <ele>1628</ele>
        <time>2017-05-25T09:51:01.000Z</time>
      </trkpt>
      <trkpt lat="44.08228" lon="6.34047">
        <ele>1625.4000244141</ele>
        <time>2017-05-25T09:51:05.000Z</time>
      </trkpt>
      <trkpt lat="44.0824" lon="6.3406">
        <ele>1622</ele>
        <time>2017-05-25T09:51:09.000Z</time>
      </trkpt>
      <trkpt lat="44.08254" lon="6.3408">
        <ele>1615.5999755859</ele>
        <time>2017-05-25T09:51:14.000Z</time>
      </trkpt>
      <trkpt lat="44.08268" lon="6.34098">
        <ele>1609.5999755859</ele>
        <time>2017-05-25T09:51:20.000Z</time>
      </trkpt>
      <trkpt lat="44.08282" lon="6.34098">
        <ele>1609.5999755859</ele>
        <time>2017-05-25T09:51:59.000Z</time>
      </trkpt>
      <trkpt lat="44.08299" lon="6.34103">
        <ele>1608.8000488281</ele>
        <time>2017-05-25T09:52:48.000Z</time>
      </trkpt>
      <trkpt lat="44.08318" lon="6.34104">
        <ele>1609.5999755859</ele>
        <time>2017-05-25T09:52:56.000Z</time>
      </trkpt>
      <trkpt lat="44.08336" lon="6.34108">
        <ele>1609.5999755859</ele>
        <time>2017-05-25T09:53:03.000Z</time>
      </trkpt>
      <trkpt lat="44.08355" lon="6.34111">
        <ele>1609.8000488281</ele>
        <time>2017-05-25T09:53:09.000Z</time>
      </trkpt>
      <trkpt lat="44.08375" lon="6.34113">
        <ele>1609</ele>
        <time>2017-05-25T09:53:15.000Z</time>
      </trkpt>
      <trkpt lat="44.08394" lon="6.34114">
        <ele>1608.1999511719</ele>
        <time>2017-05-25T09:53:21.000Z</time>
      </trkpt>
      <trkpt lat="44.08413" lon="6.34115">
        <ele>1607.8000488281</ele>
        <time>2017-05-25T09:53:27.000Z</time>
      </trkpt>
      <trkpt lat="44.08432" lon="6.34118">
        <ele>1607.4000244141</ele>
        <time>2017-05-25T09:53:39.000Z</time>
      </trkpt>
      <trkpt lat="44.08451" lon="6.34119">
        <ele>1607</ele>
        <time>2017-05-25T09:54:08.000Z</time>
      </trkpt>
      <trkpt lat="44.0847" lon="6.34118">
        <ele>1607.4000244141</ele>
        <time>2017-05-25T09:54:29.000Z</time>
      </trkpt>
      <trkpt lat="44.0849" lon="6.34113">
        <ele>1609</ele>
        <time>2017-05-25T09:54:39.000Z</time>
      </trkpt>
      <trkpt lat="44.0851" lon="6.34113">
        <ele>1608.8000488281</ele>
        <time>2017-05-25T09:54:45.000Z</time>
      </trkpt>
      <trkpt lat="44.0853" lon="6.34118">
        <ele>1607</ele>
        <time>2017-05-25T09:54:51.000Z</time>
      </trkpt>
      <trkpt lat="44.08549" lon="6.34119">
        <ele>1606.4000244141</ele>
        <time>2017-05-25T09:54:56.000Z</time>
      </trkpt>
      <trkpt lat="44.08569" lon="6.34121">
        <ele>1605.8000488281</ele>
        <time>2017-05-25T09:55:02.000Z</time>
      </trkpt>
      <trkpt lat="44.08588" lon="6.34121">
        <ele>1605.8000488281</ele>
        <time>2017-05-25T09:55:22.000Z</time>
      </trkpt>
      <trkpt lat="44.08606" lon="6.34121">
        <ele>1606.1999511719</ele>
        <time>2017-05-25T09:55:31.000Z</time>
      </trkpt>
      <trkpt lat="44.08624" lon="6.34124">
        <ele>1606.5999755859</ele>
        <time>2017-05-25T09:55:38.000Z</time>
      </trkpt>
      <trkpt lat="44.08644" lon="6.34126">
        <ele>1607.5999755859</ele>
        <time>2017-05-25T09:55:45.000Z</time>
      </trkpt>
      <trkpt lat="44.08663" lon="6.34127">
        <ele>1608.8000488281</ele>
        <time>2017-05-25T09:55:51.000Z</time>
      </trkpt>
      <trkpt lat="44.08681" lon="6.34125">
        <ele>1610.5999755859</ele>
        <time>2017-05-25T09:55:57.000Z</time>
      </trkpt>
      <trkpt lat="44.08701" lon="6.34124">
        <ele>1611.8000488281</ele>
        <time>2017-05-25T09:56:04.000Z</time>
      </trkpt>
      <trkpt lat="44.08721" lon="6.3412">
        <ele>1614</ele>
        <time>2017-05-25T09:56:11.000Z</time>
      </trkpt>
      <trkpt lat="44.08739" lon="6.34117">
        <ele>1615.4000244141</ele>
        <time>2017-05-25T09:56:17.000Z</time>
      </trkpt>
      <trkpt lat="44.08759" lon="6.34115">
        <ele>1616.5999755859</ele>
        <time>2017-05-25T09:56:24.000Z</time>
      </trkpt>
      <trkpt lat="44.08779" lon="6.34113">
        <ele>1617.5999755859</ele>
        <time>2017-05-25T09:56:31.000Z</time>
      </trkpt>
      <trkpt lat="44.08799" lon="6.34111">
        <ele>1617.5999755859</ele>
        <time>2017-05-25T09:56:38.000Z</time>
      </trkpt>
      <trkpt lat="44.08817" lon="6.34111">
        <ele>1617.4000244141</ele>
        <time>2017-05-25T09:56:44.000Z</time>
      </trkpt>
      <trkpt lat="44.08837" lon="6.34108">
        <ele>1618.1999511719</ele>
        <time>2017-05-25T09:56:52.000Z</time>
      </trkpt>
      <trkpt lat="44.08857" lon="6.34105">
        <ele>1619.4000244141</ele>
        <time>2017-05-25T09:57:01.000Z</time>
      </trkpt>
      <trkpt lat="44.08875" lon="6.34102">
        <ele>1620</ele>
        <time>2017-05-25T09:57:08.000Z</time>
      </trkpt>
      <trkpt lat="44.08895" lon="6.34098">
        <ele>1620.4000244141</ele>
        <time>2017-05-25T09:57:16.000Z</time>
      </trkpt>
      <trkpt lat="44.08913" lon="6.34097">
        <ele>1620.8000488281</ele>
        <time>2017-05-25T09:57:23.000Z</time>
      </trkpt>
      <trkpt lat="44.08933" lon="6.34095">
        <ele>1621.5999755859</ele>
        <time>2017-05-25T09:57:30.000Z</time>
      </trkpt>
      <trkpt lat="44.08951" lon="6.34094">
        <ele>1621.5999755859</ele>
        <time>2017-05-25T09:57:36.000Z</time>
      </trkpt>
      <trkpt lat="44.0897" lon="6.34092">
        <ele>1621.5999755859</ele>
        <time>2017-05-25T09:57:42.000Z</time>
      </trkpt>
      <trkpt lat="44.08989" lon="6.34091">
        <ele>1622</ele>
        <time>2017-05-25T09:57:48.000Z</time>
      </trkpt>
      <trkpt lat="44.09008" lon="6.34092">
        <ele>1621.5999755859</ele>
        <time>2017-05-25T09:57:54.000Z</time>
      </trkpt>
      <trkpt lat="44.09027" lon="6.34093">
        <ele>1621.1999511719</ele>
        <time>2017-05-25T09:57:59.000Z</time>
      </trkpt>
      <trkpt lat="44.09046" lon="6.34097">
        <ele>1620.5999755859</ele>
        <time>2017-05-25T09:58:05.000Z</time>
      </trkpt>
      <trkpt lat="44.09051" lon="6.34097">
        <ele>1620.8000488281</ele>
        <time>2017-05-25T09:58:06.000Z</time>
      </trkpt>
      <trkpt lat="44.09069" lon="6.34093">
        <ele>1622</ele>
        <time>2017-05-25T09:58:11.000Z</time>
      </trkpt>
      <trkpt lat="44.09087" lon="6.3409">
        <ele>1622.1999511719</ele>
        <time>2017-05-25T09:58:17.000Z</time>
      </trkpt>
      <trkpt lat="44.09105" lon="6.3409">
        <ele>1621.5999755859</ele>
        <time>2017-05-25T09:58:23.000Z</time>
      </trkpt>
      <trkpt lat="44.09125" lon="6.34091">
        <ele>1621.1999511719</ele>
        <time>2017-05-25T09:58:31.000Z</time>
      </trkpt>
      <trkpt lat="44.09144" lon="6.34096">
        <ele>1619.8000488281</ele>
        <time>2017-05-25T09:58:38.000Z</time>
      </trkpt>
      <trkpt lat="44.09162" lon="6.34099">
        <ele>1617.4000244141</ele>
        <time>2017-05-25T09:58:47.000Z</time>
      </trkpt>
      <trkpt lat="44.09183" lon="6.34101">
        <ele>1615.1999511719</ele>
        <time>2017-05-25T09:58:56.000Z</time>
      </trkpt>
      <trkpt lat="44.09202" lon="6.341">
        <ele>1614.8000488281</ele>
        <time>2017-05-25T09:59:06.000Z</time>
      </trkpt>
      <trkpt lat="44.09221" lon="6.34106">
        <ele>1614.8000488281</ele>
        <time>2017-05-25T09:59:15.000Z</time>
      </trkpt>
      <trkpt lat="44.09241" lon="6.34112">
        <ele>1615.1999511719</ele>
        <time>2017-05-25T09:59:22.000Z</time>
      </trkpt>
      <trkpt lat="44.0926" lon="6.34115">
        <ele>1616</ele>
        <time>2017-05-25T09:59:27.000Z</time>
      </trkpt>
      <trkpt lat="44.09264" lon="6.34116">
        <ele>1616</ele>
        <time>2017-05-25T09:59:28.000Z</time>
      </trkpt>
      <trkpt lat="44.09283" lon="6.34122">
        <ele>1616.8000488281</ele>
        <time>2017-05-25T09:59:32.000Z</time>
      </trkpt>
      <trkpt lat="44.09301" lon="6.34127">
        <ele>1617.8000488281</ele>
        <time>2017-05-25T09:59:36.000Z</time>
      </trkpt>
      <trkpt lat="44.09319" lon="6.34132">
        <ele>1619</ele>
        <time>2017-05-25T09:59:41.000Z</time>
      </trkpt>
      <trkpt lat="44.09338" lon="6.34144">
        <ele>1618.8000488281</ele>
        <time>2017-05-25T09:59:47.000Z</time>
      </trkpt>
      <trkpt lat="44.09355" lon="6.34155">
        <ele>1618</ele>
        <time>2017-05-25T09:59:52.000Z</time>
      </trkpt>
      <trkpt lat="44.09375" lon="6.34166">
        <ele>1618.1999511719</ele>
        <time>2017-05-25T09:59:58.000Z</time>
      </trkpt>
      <trkpt lat="44.09394" lon="6.34173">
        <ele>1618.8000488281</ele>
        <time>2017-05-25T10:00:03.000Z</time>
      </trkpt>
      <trkpt lat="44.09405" lon="6.3418">
        <ele>1618.5999755859</ele>
        <time>2017-05-25T10:00:06.000Z</time>
      </trkpt>
      <trkpt lat="44.09421" lon="6.34193">
        <ele>1617.5999755859</ele>
        <time>2017-05-25T10:00:10.000Z</time>
      </trkpt>
      <trkpt lat="44.09434" lon="6.34202">
        <ele>1617</ele>
        <time>2017-05-25T10:00:13.000Z</time>
      </trkpt>
      <trkpt lat="44.09451" lon="6.34211">
        <ele>1617.1999511719</ele>
        <time>2017-05-25T10:00:17.000Z</time>
      </trkpt>
      <trkpt lat="44.09471" lon="6.34222">
        <ele>1617.5999755859</ele>
        <time>2017-05-25T10:00:22.000Z</time>
      </trkpt>
      <trkpt lat="44.09486" lon="6.34235">
        <ele>1617.4000244141</ele>
        <time>2017-05-25T10:00:28.000Z</time>
      </trkpt>
      <trkpt lat="44.09505" lon="6.34246">
        <ele>1617.8000488281</ele>
        <time>2017-05-25T10:00:36.000Z</time>
      </trkpt>
      <trkpt lat="44.09519" lon="6.34262">
        <ele>1616.4000244141</ele>
        <time>2017-05-25T10:00:41.000Z</time>
      </trkpt>
      <trkpt lat="44.09536" lon="6.34276">
        <ele>1617.4000244141</ele>
        <time>2017-05-25T10:00:48.000Z</time>
      </trkpt>
      <trkpt lat="44.09553" lon="6.34287">
        <ele>1619.8000488281</ele>
        <time>2017-05-25T10:00:54.000Z</time>
      </trkpt>
      <trkpt lat="44.09568" lon="6.34307">
        <ele>1619.5999755859</ele>
        <time>2017-05-25T10:01:00.000Z</time>
      </trkpt>
      <trkpt lat="44.0957" lon="6.34325">
        <ele>1619.1999511719</ele>
        <time>2017-05-25T10:01:04.000Z</time>
      </trkpt>
      <trkpt lat="44.09562" lon="6.34349">
        <ele>1618.8000488281</ele>
        <time>2017-05-25T10:01:10.000Z</time>
      </trkpt>
      <trkpt lat="44.09555" lon="6.3437">
        <ele>1615</ele>
        <time>2017-05-25T10:01:44.000Z</time>
      </trkpt>
      <trkpt lat="44.09544" lon="6.34394">
        <ele>1610</ele>
        <time>2017-05-25T10:01:49.000Z</time>
      </trkpt>
      <trkpt lat="44.09536" lon="6.34417">
        <ele>1608.1999511719</ele>
        <time>2017-05-25T10:01:53.000Z</time>
      </trkpt>
      <trkpt lat="44.09529" lon="6.34442">
        <ele>1605.1999511719</ele>
        <time>2017-05-25T10:01:57.000Z</time>
      </trkpt>
      <trkpt lat="44.09522" lon="6.34467">
        <ele>1603</ele>
        <time>2017-05-25T10:02:01.000Z</time>
      </trkpt>
      <trkpt lat="44.09517" lon="6.34491">
        <ele>1601.4000244141</ele>
        <time>2017-05-25T10:02:05.000Z</time>
      </trkpt>
      <trkpt lat="44.09512" lon="6.34519">
        <ele>1600.5999755859</ele>
        <time>2017-05-25T10:02:09.000Z</time>
      </trkpt>
      <trkpt lat="44.09504" lon="6.34548">
        <ele>1598.5999755859</ele>
        <time>2017-05-25T10:02:13.000Z</time>
      </trkpt>
      <trkpt lat="44.09497" lon="6.34573">
        <ele>1595.1999511719</ele>
        <time>2017-05-25T10:02:17.000Z</time>
      </trkpt>
      <trkpt lat="44.09487" lon="6.34603">
        <ele>1590.8000488281</ele>
        <time>2017-05-25T10:02:21.000Z</time>
      </trkpt>
      <trkpt lat="44.09478" lon="6.34628">
        <ele>1585.1999511719</ele>
        <time>2017-05-25T10:02:24.000Z</time>
      </trkpt>
      <trkpt lat="44.09469" lon="6.34653">
        <ele>1580</ele>
        <time>2017-05-25T10:02:27.000Z</time>
      </trkpt>
      <trkpt lat="44.09464" lon="6.34668">
        <ele>1578</ele>
        <time>2017-05-25T10:02:29.000Z</time>
      </trkpt>
      <trkpt lat="44.09458" lon="6.34694">
        <ele>1576.5999755859</ele>
        <time>2017-05-25T10:02:32.000Z</time>
      </trkpt>
      <trkpt lat="44.09449" lon="6.34721">
        <ele>1573.1999511719</ele>
        <time>2017-05-25T10:02:35.000Z</time>
      </trkpt>
      <trkpt lat="44.0944" lon="6.34748">
        <ele>1569.5999755859</ele>
        <time>2017-05-25T10:02:38.000Z</time>
      </trkpt>
      <trkpt lat="44.09431" lon="6.34776">
        <ele>1565.8000488281</ele>
        <time>2017-05-25T10:02:41.000Z</time>
      </trkpt>
      <trkpt lat="44.09425" lon="6.34807">
        <ele>1563.5999755859</ele>
        <time>2017-05-25T10:02:44.000Z</time>
      </trkpt>
      <trkpt lat="44.09423" lon="6.34826">
        <ele>1561.4000244141</ele>
        <time>2017-05-25T10:02:46.000Z</time>
      </trkpt>
      <trkpt lat="44.09425" lon="6.34857">
        <ele>1560.1999511719</ele>
        <time>2017-05-25T10:02:50.000Z</time>
      </trkpt>
      <trkpt lat="44.09425" lon="6.3487">
        <ele>1558.4000244141</ele>
        <time>2017-05-25T10:02:52.000Z</time>
      </trkpt>
      <trkpt lat="44.09426" lon="6.34898">
        <ele>1558.4000244141</ele>
        <time>2017-05-25T10:02:56.000Z</time>
      </trkpt>
      <trkpt lat="44.0943" lon="6.34926">
        <ele>1557.5999755859</ele>
        <time>2017-05-25T10:03:01.000Z</time>
      </trkpt>
      <trkpt lat="44.0944" lon="6.34942">
        <ele>1560.4000244141</ele>
        <time>2017-05-25T10:03:07.000Z</time>
      </trkpt>
      <trkpt lat="44.09435" lon="6.34972">
        <ele>1555</ele>
        <time>2017-05-25T10:03:13.000Z</time>
      </trkpt>
      <trkpt lat="44.09433" lon="6.34993">
        <ele>1553</ele>
        <time>2017-05-25T10:03:16.000Z</time>
      </trkpt>
      <trkpt lat="44.09433" lon="6.35023">
        <ele>1552</ele>
        <time>2017-05-25T10:03:20.000Z</time>
      </trkpt>
      <trkpt lat="44.09423" lon="6.35052">
        <ele>1546</ele>
        <time>2017-05-25T10:03:24.000Z</time>
      </trkpt>
      <trkpt lat="44.09415" lon="6.35076">
        <ele>1541.4000244141</ele>
        <time>2017-05-25T10:03:29.000Z</time>
      </trkpt>
      <trkpt lat="44.09415" lon="6.35104">
        <ele>1542.5999755859</ele>
        <time>2017-05-25T10:03:32.000Z</time>
      </trkpt>
      <trkpt lat="44.09416" lon="6.35138">
        <ele>1541.8000488281</ele>
        <time>2017-05-25T10:03:35.000Z</time>
      </trkpt>
      <trkpt lat="44.09417" lon="6.35173">
        <ele>1539.4000244141</ele>
        <time>2017-05-25T10:03:38.000Z</time>
      </trkpt>
      <trkpt lat="44.09415" lon="6.35203">
        <ele>1535</ele>
        <time>2017-05-25T10:03:41.000Z</time>
      </trkpt>
      <trkpt lat="44.09414" lon="6.3523">
        <ele>1529.1999511719</ele>
        <time>2017-05-25T10:03:44.000Z</time>
      </trkpt>
      <trkpt lat="44.09413" lon="6.35254">
        <ele>1525.5999755859</ele>
        <time>2017-05-25T10:03:47.000Z</time>
      </trkpt>
      <trkpt lat="44.09417" lon="6.35284">
        <ele>1524.5999755859</ele>
        <time>2017-05-25T10:03:51.000Z</time>
      </trkpt>
      <trkpt lat="44.09428" lon="6.35311">
        <ele>1529.4000244141</ele>
        <time>2017-05-25T10:03:55.000Z</time>
      </trkpt>
      <trkpt lat="44.09431" lon="6.35327">
        <ele>1532.1999511719</ele>
        <time>2017-05-25T10:03:57.000Z</time>
      </trkpt>
      <trkpt lat="44.09431" lon="6.35355">
        <ele>1533</ele>
        <time>2017-05-25T10:04:00.000Z</time>
      </trkpt>
      <trkpt lat="44.09428" lon="6.35361">
        <ele>1531.5999755859</ele>
        <time>2017-05-25T10:04:01.000Z</time>
      </trkpt>
      <trkpt lat="44.09415" lon="6.35379">
        <ele>1523</ele>
        <time>2017-05-25T10:04:05.000Z</time>
      </trkpt>
      <trkpt lat="44.09401" lon="6.35403">
        <ele>1515</ele>
        <time>2017-05-25T10:04:09.000Z</time>
      </trkpt>
      <trkpt lat="44.09387" lon="6.35427">
        <ele>1510</ele>
        <time>2017-05-25T10:04:14.000Z</time>
      </trkpt>
      <trkpt lat="44.09378" lon="6.35449">
        <ele>1508</ele>
        <time>2017-05-25T10:04:18.000Z</time>
      </trkpt>
      <trkpt lat="44.0937" lon="6.35474">
        <ele>1506.5999755859</ele>
        <time>2017-05-25T10:04:23.000Z</time>
      </trkpt>
      <trkpt lat="44.09363" lon="6.35499">
        <ele>1508</ele>
        <time>2017-05-25T10:04:28.000Z</time>
      </trkpt>
      <trkpt lat="44.09354" lon="6.35522">
        <ele>1508.5999755859</ele>
        <time>2017-05-25T10:04:33.000Z</time>
      </trkpt>
      <trkpt lat="44.09343" lon="6.35546">
        <ele>1508</ele>
        <time>2017-05-25T10:04:38.000Z</time>
      </trkpt>
      <trkpt lat="44.09331" lon="6.35564">
        <ele>1506.4000244141</ele>
        <time>2017-05-25T10:04:42.000Z</time>
      </trkpt>
      <trkpt lat="44.09317" lon="6.35587">
        <ele>1503.8000488281</ele>
        <time>2017-05-25T10:04:46.000Z</time>
      </trkpt>
      <trkpt lat="44.09305" lon="6.35609">
        <ele>1502.8000488281</ele>
        <time>2017-05-25T10:04:50.000Z</time>
      </trkpt>
      <trkpt lat="44.09292" lon="6.35632">
        <ele>1503.1999511719</ele>
        <time>2017-05-25T10:04:54.000Z</time>
      </trkpt>
      <trkpt lat="44.09282" lon="6.3566">
        <ele>1504.4000244141</ele>
        <time>2017-05-25T10:04:59.000Z</time>
      </trkpt>
      <trkpt lat="44.09271" lon="6.35687">
        <ele>1503.5999755859</ele>
        <time>2017-05-25T10:05:04.000Z</time>
      </trkpt>
      <trkpt lat="44.09263" lon="6.35715">
        <ele>1504</ele>
        <time>2017-05-25T10:05:08.000Z</time>
      </trkpt>
      <trkpt lat="44.09254" lon="6.35744">
        <ele>1503.1999511719</ele>
        <time>2017-05-25T10:05:12.000Z</time>
      </trkpt>
      <trkpt lat="44.09245" lon="6.35768">
        <ele>1500.4000244141</ele>
        <time>2017-05-25T10:05:15.000Z</time>
      </trkpt>
      <trkpt lat="44.09235" lon="6.3579">
        <ele>1497.8000488281</ele>
        <time>2017-05-25T10:05:18.000Z</time>
      </trkpt>
      <trkpt lat="44.09227" lon="6.35816">
        <ele>1496.8000488281</ele>
        <time>2017-05-25T10:05:21.000Z</time>
      </trkpt>
      <trkpt lat="44.09222" lon="6.35841">
        <ele>1494.1999511719</ele>
        <time>2017-05-25T10:05:24.000Z</time>
      </trkpt>
      <trkpt lat="44.09221" lon="6.35856">
        <ele>1494.4000244141</ele>
        <time>2017-05-25T10:05:26.000Z</time>
      </trkpt>
      <trkpt lat="44.09221" lon="6.35889">
        <ele>1495.8000488281</ele>
        <time>2017-05-25T10:05:30.000Z</time>
      </trkpt>
      <trkpt lat="44.09221" lon="6.35916">
        <ele>1498.1999511719</ele>
        <time>2017-05-25T10:05:33.000Z</time>
      </trkpt>
      <trkpt lat="44.09218" lon="6.35925">
        <ele>1497.8000488281</ele>
        <time>2017-05-25T10:05:34.000Z</time>
      </trkpt>
      <trkpt lat="44.09207" lon="6.35951">
        <ele>1492.1999511719</ele>
        <time>2017-05-25T10:05:37.000Z</time>
      </trkpt>
      <trkpt lat="44.09197" lon="6.35974">
        <ele>1487.5999755859</ele>
        <time>2017-05-25T10:05:40.000Z</time>
      </trkpt>
      <trkpt lat="44.09192" lon="6.35999">
        <ele>1486.5999755859</ele>
        <time>2017-05-25T10:05:43.000Z</time>
      </trkpt>
      <trkpt lat="44.09188" lon="6.36012">
        <ele>1486</ele>
        <time>2017-05-25T10:05:45.000Z</time>
      </trkpt>
      <trkpt lat="44.09182" lon="6.36037">
        <ele>1485</ele>
        <time>2017-05-25T10:05:49.000Z</time>
      </trkpt>
      <trkpt lat="44.09177" lon="6.36055">
        <ele>1483.8000488281</ele>
        <time>2017-05-25T10:05:51.000Z</time>
      </trkpt>
      <trkpt lat="44.09175" lon="6.36079">
        <ele>1483.8000488281</ele>
        <time>2017-05-25T10:05:55.000Z</time>
      </trkpt>
      <trkpt lat="44.09177" lon="6.36109">
        <ele>1486.4000244141</ele>
        <time>2017-05-25T10:06:36.000Z</time>
      </trkpt>
      <trkpt lat="44.09179" lon="6.36119">
        <ele>1487.5999755859</ele>
        <time>2017-05-25T10:09:30.000Z</time>
      </trkpt>
      <trkpt lat="44.09182" lon="6.36134">
        <ele>1490</ele>
        <time>2017-05-25T10:12:10.000Z</time>
      </trkpt>
      <trkpt lat="44.09186" lon="6.3616">
        <ele>1493.1999511719</ele>
        <time>2017-05-25T10:12:22.000Z</time>
      </trkpt>
      <trkpt lat="44.09182" lon="6.36185">
        <ele>1492</ele>
        <time>2017-05-25T10:12:33.000Z</time>
      </trkpt>
      <trkpt lat="44.09175" lon="6.36209">
        <ele>1489.4000244141</ele>
        <time>2017-05-25T10:12:44.000Z</time>
      </trkpt>
      <trkpt lat="44.09176" lon="6.36236">
        <ele>1491.8000488281</ele>
        <time>2017-05-25T10:12:54.000Z</time>
      </trkpt>
      <trkpt lat="44.09183" lon="6.3626">
        <ele>1495</ele>
        <time>2017-05-25T10:13:06.000Z</time>
      </trkpt>
      <trkpt lat="44.09189" lon="6.36286">
        <ele>1498</ele>
        <time>2017-05-25T10:13:18.000Z</time>
      </trkpt>
      <trkpt lat="44.09196" lon="6.36311">
        <ele>1501</ele>
        <time>2017-05-25T10:13:30.000Z</time>
      </trkpt>
      <trkpt lat="44.09207" lon="6.36333">
        <ele>1503.8000488281</ele>
        <time>2017-05-25T10:13:41.000Z</time>
      </trkpt>
      <trkpt lat="44.0922" lon="6.36352">
        <ele>1507.4000244141</ele>
        <time>2017-05-25T10:13:53.000Z</time>
      </trkpt>
      <trkpt lat="44.0923" lon="6.36374">
        <ele>1510.1999511719</ele>
        <time>2017-05-25T10:14:05.000Z</time>
      </trkpt>
      <trkpt lat="44.09241" lon="6.36396">
        <ele>1512.5999755859</ele>
        <time>2017-05-25T10:14:17.000Z</time>
      </trkpt>
      <trkpt lat="44.09241" lon="6.36421">
        <ele>1513.1999511719</ele>
        <time>2017-05-25T10:14:28.000Z</time>
      </trkpt>
      <trkpt lat="44.09243" lon="6.36447">
        <ele>1514.5999755859</ele>
        <time>2017-05-25T10:14:39.000Z</time>
      </trkpt>
      <trkpt lat="44.09249" lon="6.36472">
        <ele>1515.1999511719</ele>
        <time>2017-05-25T10:14:51.000Z</time>
      </trkpt>
      <trkpt lat="44.09254" lon="6.36498">
        <ele>1517</ele>
        <time>2017-05-25T10:15:05.000Z</time>
      </trkpt>
      <trkpt lat="44.09262" lon="6.36521">
        <ele>1520.5999755859</ele>
        <time>2017-05-25T10:15:18.000Z</time>
      </trkpt>
      <trkpt lat="44.09268" lon="6.36547">
        <ele>1523</ele>
        <time>2017-05-25T10:15:30.000Z</time>
      </trkpt>
      <trkpt lat="44.0927" lon="6.36572">
        <ele>1525.1999511719</ele>
        <time>2017-05-25T10:15:41.000Z</time>
      </trkpt>
      <trkpt lat="44.09271" lon="6.36599">
        <ele>1527.8000488281</ele>
        <time>2017-05-25T10:15:54.000Z</time>
      </trkpt>
      <trkpt lat="44.09273" lon="6.36615">
        <ele>1529.4000244141</ele>
        <time>2017-05-25T10:16:00.000Z</time>
      </trkpt>
      <trkpt lat="44.09269" lon="6.36631">
        <ele>1529.1999511719</ele>
        <time>2017-05-25T10:16:06.000Z</time>
      </trkpt>
      <trkpt lat="44.09262" lon="6.36655">
        <ele>1530.8000488281</ele>
        <time>2017-05-25T10:16:15.000Z</time>
      </trkpt>
      <trkpt lat="44.09263" lon="6.36666">
        <ele>1530.4000244141</ele>
        <time>2017-05-25T10:16:19.000Z</time>
      </trkpt>
      <trkpt lat="44.09281" lon="6.36667">
        <ele>1531.8000488281</ele>
        <time>2017-05-25T10:16:29.000Z</time>
      </trkpt>
      <trkpt lat="44.09282" lon="6.36665">
        <ele>1531.5999755859</ele>
        <time>2017-05-25T10:16:30.000Z</time>
      </trkpt>
      <trkpt lat="44.09296" lon="6.36648">
        <ele>1533.4000244141</ele>
        <time>2017-05-25T10:16:39.000Z</time>
      </trkpt>
      <trkpt lat="44.09309" lon="6.36629">
        <ele>1532.4000244141</ele>
        <time>2017-05-25T10:16:48.000Z</time>
      </trkpt>
      <trkpt lat="44.09325" lon="6.36611">
        <ele>1531.8000488281</ele>
        <time>2017-05-25T10:16:57.000Z</time>
      </trkpt>
      <trkpt lat="44.09337" lon="6.36592">
        <ele>1537.8000488281</ele>
        <time>2017-05-25T10:17:05.000Z</time>
      </trkpt>
      <trkpt lat="44.0935" lon="6.36575">
        <ele>1543.8000488281</ele>
        <time>2017-05-25T10:17:13.000Z</time>
      </trkpt>
      <trkpt lat="44.09365" lon="6.3656">
        <ele>1547.8000488281</ele>
        <time>2017-05-25T10:17:21.000Z</time>
      </trkpt>
      <trkpt lat="44.09381" lon="6.36544">
        <ele>1547</ele>
        <time>2017-05-25T10:17:30.000Z</time>
      </trkpt>
      <trkpt lat="44.09395" lon="6.36527">
        <ele>1546.4000244141</ele>
        <time>2017-05-25T10:17:39.000Z</time>
      </trkpt>
      <trkpt lat="44.09412" lon="6.36511">
        <ele>1548.1999511719</ele>
        <time>2017-05-25T10:17:48.000Z</time>
      </trkpt>
      <trkpt lat="44.09426" lon="6.36494">
        <ele>1551</ele>
        <time>2017-05-25T10:17:56.000Z</time>
      </trkpt>
      <trkpt lat="44.09441" lon="6.36475">
        <ele>1554.1999511719</ele>
        <time>2017-05-25T10:18:05.000Z</time>
      </trkpt>
      <trkpt lat="44.09454" lon="6.36458">
        <ele>1557</ele>
        <time>2017-05-25T10:18:13.000Z</time>
      </trkpt>
      <trkpt lat="44.09465" lon="6.36438">
        <ele>1559.8000488281</ele>
        <time>2017-05-25T10:18:22.000Z</time>
      </trkpt>
      <trkpt lat="44.09477" lon="6.36419">
        <ele>1561.1999511719</ele>
        <time>2017-05-25T10:18:30.000Z</time>
      </trkpt>
      <trkpt lat="44.09491" lon="6.36403">
        <ele>1560</ele>
        <time>2017-05-25T10:18:38.000Z</time>
      </trkpt>
      <trkpt lat="44.09507" lon="6.36386">
        <ele>1560</ele>
        <time>2017-05-25T10:18:46.000Z</time>
      </trkpt>
      <trkpt lat="44.09522" lon="6.36369">
        <ele>1563.5999755859</ele>
        <time>2017-05-25T10:18:54.000Z</time>
      </trkpt>
      <trkpt lat="44.09526" lon="6.36343">
        <ele>1573.5999755859</ele>
        <time>2017-05-25T10:19:02.000Z</time>
      </trkpt>
      <trkpt lat="44.09536" lon="6.36318">
        <ele>1580.5999755859</ele>
        <time>2017-05-25T10:19:09.000Z</time>
      </trkpt>
      <trkpt lat="44.09553" lon="6.36305">
        <ele>1580.1999511719</ele>
        <time>2017-05-25T10:19:16.000Z</time>
      </trkpt>
      <trkpt lat="44.0957" lon="6.36296">
        <ele>1578.1999511719</ele>
        <time>2017-05-25T10:19:24.000Z</time>
      </trkpt>
      <trkpt lat="44.09588" lon="6.36295">
        <ele>1573</ele>
        <time>2017-05-25T10:19:32.000Z</time>
      </trkpt>
      <trkpt lat="44.09607" lon="6.36296">
        <ele>1565.4000244141</ele>
        <time>2017-05-25T10:19:41.000Z</time>
      </trkpt>
      <trkpt lat="44.09625" lon="6.36287">
        <ele>1564.8000488281</ele>
        <time>2017-05-25T10:19:50.000Z</time>
      </trkpt>
      <trkpt lat="44.09641" lon="6.36274">
        <ele>1566.5999755859</ele>
        <time>2017-05-25T10:19:58.000Z</time>
      </trkpt>
      <trkpt lat="44.09655" lon="6.36257">
        <ele>1569.5999755859</ele>
        <time>2017-05-25T10:20:06.000Z</time>
      </trkpt>
      <trkpt lat="44.09674" lon="6.36248">
        <ele>1568.5999755859</ele>
        <time>2017-05-25T10:20:14.000Z</time>
      </trkpt>
      <trkpt lat="44.09689" lon="6.3623">
        <ele>1571</ele>
        <time>2017-05-25T10:20:22.000Z</time>
      </trkpt>
      <trkpt lat="44.09701" lon="6.36211">
        <ele>1574.5999755859</ele>
        <time>2017-05-25T10:20:30.000Z</time>
      </trkpt>
      <trkpt lat="44.09719" lon="6.36204">
        <ele>1574</ele>
        <time>2017-05-25T10:20:39.000Z</time>
      </trkpt>
      <trkpt lat="44.09738" lon="6.36197">
        <ele>1572.5999755859</ele>
        <time>2017-05-25T10:20:48.000Z</time>
      </trkpt>
      <trkpt lat="44.09753" lon="6.36179">
        <ele>1576.8000488281</ele>
        <time>2017-05-25T10:20:57.000Z</time>
      </trkpt>
      <trkpt lat="44.09766" lon="6.36159">
        <ele>1581.8000488281</ele>
        <time>2017-05-25T10:21:06.000Z</time>
      </trkpt>
      <trkpt lat="44.09777" lon="6.36147">
        <ele>1584.1999511719</ele>
        <time>2017-05-25T10:22:49.000Z</time>
      </trkpt>
      <trkpt lat="44.09793" lon="6.36136">
        <ele>1585</ele>
        <time>2017-05-25T10:22:57.000Z</time>
      </trkpt>
      <trkpt lat="44.0981" lon="6.36127">
        <ele>1585</ele>
        <time>2017-05-25T10:23:04.000Z</time>
      </trkpt>
      <trkpt lat="44.09828" lon="6.36115">
        <ele>1585.8000488281</ele>
        <time>2017-05-25T10:23:12.000Z</time>
      </trkpt>
      <trkpt lat="44.09845" lon="6.36103">
        <ele>1586.8000488281</ele>
        <time>2017-05-25T10:23:20.000Z</time>
      </trkpt>
      <trkpt lat="44.09862" lon="6.36091">
        <ele>1588</ele>
        <time>2017-05-25T10:23:29.000Z</time>
      </trkpt>
      <trkpt lat="44.09878" lon="6.36075">
        <ele>1592.1999511719</ele>
        <time>2017-05-25T10:23:38.000Z</time>
      </trkpt>
      <trkpt lat="44.09894" lon="6.36061">
        <ele>1595.1999511719</ele>
        <time>2017-05-25T10:23:47.000Z</time>
      </trkpt>
      <trkpt lat="44.09911" lon="6.36049">
        <ele>1597.8000488281</ele>
        <time>2017-05-25T10:23:57.000Z</time>
      </trkpt>
      <trkpt lat="44.09928" lon="6.3604">
        <ele>1599.4000244141</ele>
        <time>2017-05-25T10:24:06.000Z</time>
      </trkpt>
      <trkpt lat="44.09947" lon="6.36042">
        <ele>1596.8000488281</ele>
        <time>2017-05-25T10:24:16.000Z</time>
      </trkpt>
      <trkpt lat="44.09966" lon="6.3604">
        <ele>1596.1999511719</ele>
        <time>2017-05-25T10:24:27.000Z</time>
      </trkpt>
      <trkpt lat="44.09982" lon="6.36027">
        <ele>1598.5999755859</ele>
        <time>2017-05-25T10:24:36.000Z</time>
      </trkpt>
      <trkpt lat="44.09991" lon="6.36006">
        <ele>1603.4000244141</ele>
        <time>2017-05-25T10:24:45.000Z</time>
      </trkpt>
      <trkpt lat="44.10005" lon="6.35988">
        <ele>1605.8000488281</ele>
        <time>2017-05-25T10:24:54.000Z</time>
      </trkpt>
      <trkpt lat="44.10016" lon="6.35967">
        <ele>1610.1999511719</ele>
        <time>2017-05-25T10:25:03.000Z</time>
      </trkpt>
      <trkpt lat="44.10031" lon="6.35951">
        <ele>1612.5999755859</ele>
        <time>2017-05-25T10:25:12.000Z</time>
      </trkpt>
      <trkpt lat="44.10047" lon="6.35938">
        <ele>1613.5999755859</ele>
        <time>2017-05-25T10:25:21.000Z</time>
      </trkpt>
      <trkpt lat="44.10063" lon="6.35925">
        <ele>1614.8000488281</ele>
        <time>2017-05-25T10:25:31.000Z</time>
      </trkpt>
      <trkpt lat="44.10075" lon="6.35905">
        <ele>1618</ele>
        <time>2017-05-25T10:25:40.000Z</time>
      </trkpt>
      <trkpt lat="44.10089" lon="6.35889">
        <ele>1620.1999511719</ele>
        <time>2017-05-25T10:25:49.000Z</time>
      </trkpt>
      <trkpt lat="44.10106" lon="6.35879">
        <ele>1621.1999511719</ele>
        <time>2017-05-25T10:25:58.000Z</time>
      </trkpt>
      <trkpt lat="44.10124" lon="6.35881">
        <ele>1619.4000244141</ele>
        <time>2017-05-25T10:26:07.000Z</time>
      </trkpt>
      <trkpt lat="44.10142" lon="6.35877">
        <ele>1620.8000488281</ele>
        <time>2017-05-25T10:26:19.000Z</time>
      </trkpt>
      <trkpt lat="44.10159" lon="6.35866">
        <ele>1625.1999511719</ele>
        <time>2017-05-25T10:26:31.000Z</time>
      </trkpt>
      <trkpt lat="44.10177" lon="6.35857">
        <ele>1626.4000244141</ele>
        <time>2017-05-25T10:26:43.000Z</time>
      </trkpt>
      <trkpt lat="44.10193" lon="6.35847">
        <ele>1628.5999755859</ele>
        <time>2017-05-25T10:26:56.000Z</time>
      </trkpt>
      <trkpt lat="44.10205" lon="6.35828">
        <ele>1635.4000244141</ele>
        <time>2017-05-25T10:27:08.000Z</time>
      </trkpt>
      <trkpt lat="44.10223" lon="6.35824">
        <ele>1637.1999511719</ele>
        <time>2017-05-25T10:27:19.000Z</time>
      </trkpt>
      <trkpt lat="44.10242" lon="6.35828">
        <ele>1636.8000488281</ele>
        <time>2017-05-25T10:27:30.000Z</time>
      </trkpt>
      <trkpt lat="44.10261" lon="6.35831">
        <ele>1636.8000488281</ele>
        <time>2017-05-25T10:27:42.000Z</time>
      </trkpt>
      <trkpt lat="44.1028" lon="6.35827">
        <ele>1638.1999511719</ele>
        <time>2017-05-25T10:27:54.000Z</time>
      </trkpt>
      <trkpt lat="44.10297" lon="6.3582">
        <ele>1638.4000244141</ele>
        <time>2017-05-25T10:28:03.000Z</time>
      </trkpt>
      <trkpt lat="44.10314" lon="6.35807">
        <ele>1640.5999755859</ele>
        <time>2017-05-25T10:28:13.000Z</time>
      </trkpt>
      <trkpt lat="44.10331" lon="6.35797">
        <ele>1641.8000488281</ele>
        <time>2017-05-25T10:28:23.000Z</time>
      </trkpt>
      <trkpt lat="44.10349" lon="6.35791">
        <ele>1643</ele>
        <time>2017-05-25T10:28:33.000Z</time>
      </trkpt>
      <trkpt lat="44.10365" lon="6.35781">
        <ele>1647.1999511719</ele>
        <time>2017-05-25T10:28:43.000Z</time>
      </trkpt>
      <trkpt lat="44.1038" lon="6.35765">
        <ele>1654</ele>
        <time>2017-05-25T10:28:54.000Z</time>
      </trkpt>
      <trkpt lat="44.10397" lon="6.35754">
        <ele>1657</ele>
        <time>2017-05-25T10:29:05.000Z</time>
      </trkpt>
      <trkpt lat="44.10413" lon="6.35742">
        <ele>1658.4000244141</ele>
        <time>2017-05-25T10:29:16.000Z</time>
      </trkpt>
      <trkpt lat="44.10428" lon="6.35727">
        <ele>1660.8000488281</ele>
        <time>2017-05-25T10:29:27.000Z</time>
      </trkpt>
      <trkpt lat="44.10444" lon="6.35714">
        <ele>1664.1999511719</ele>
        <time>2017-05-25T10:29:37.000Z</time>
      </trkpt>
      <trkpt lat="44.10456" lon="6.35709">
        <ele>1667.8000488281</ele>
        <time>2017-05-25T10:29:44.000Z</time>
      </trkpt>
      <trkpt lat="44.10474" lon="6.35717">
        <ele>1667.4000244141</ele>
        <time>2017-05-25T10:29:54.000Z</time>
      </trkpt>
      <trkpt lat="44.10492" lon="6.35726">
        <ele>1666.5999755859</ele>
        <time>2017-05-25T10:30:03.000Z</time>
      </trkpt>
      <trkpt lat="44.10507" lon="6.35743">
        <ele>1664.8000488281</ele>
        <time>2017-05-25T10:30:12.000Z</time>
      </trkpt>
      <trkpt lat="44.10521" lon="6.3576">
        <ele>1663.1999511719</ele>
        <time>2017-05-25T10:30:22.000Z</time>
      </trkpt>
      <trkpt lat="44.10536" lon="6.35777">
        <ele>1662.4000244141</ele>
        <time>2017-05-25T10:30:30.000Z</time>
      </trkpt>
      <trkpt lat="44.10551" lon="6.35795">
        <ele>1662</ele>
        <time>2017-05-25T10:30:37.000Z</time>
      </trkpt>
      <trkpt lat="44.10565" lon="6.35811">
        <ele>1661.5999755859</ele>
        <time>2017-05-25T10:30:43.000Z</time>
      </trkpt>
      <trkpt lat="44.1058" lon="6.35831">
        <ele>1663.1999511719</ele>
        <time>2017-05-25T10:30:48.000Z</time>
      </trkpt>
      <trkpt lat="44.10597" lon="6.35846">
        <ele>1666.1999511719</ele>
        <time>2017-05-25T10:30:53.000Z</time>
      </trkpt>
      <trkpt lat="44.10606" lon="6.35842">
        <ele>1668</ele>
        <time>2017-05-25T10:38:32.000Z</time>
      </trkpt>
      <trkpt lat="44.10609" lon="6.35842">
        <ele>1668.8000488281</ele>
        <time>2017-05-25T10:57:02.000Z</time>
      </trkpt>
      <trkpt lat="44.10629" lon="6.35832">
        <ele>1670.1999511719</ele>
        <time>2017-05-25T10:57:26.000Z</time>
      </trkpt>
      <trkpt lat="44.10633" lon="6.35831">
        <ele>1669.5999755859</ele>
        <time>2017-05-25T10:57:27.000Z</time>
      </trkpt>
      <trkpt lat="44.10653" lon="6.35834">
        <ele>1668.1999511719</ele>
        <time>2017-05-25T10:57:31.000Z</time>
      </trkpt>
      <trkpt lat="44.10661" lon="6.35839">
        <ele>1668</ele>
        <time>2017-05-25T10:57:33.000Z</time>
      </trkpt>
      <trkpt lat="44.10681" lon="6.35838">
        <ele>1666.4000244141</ele>
        <time>2017-05-25T10:57:39.000Z</time>
      </trkpt>
      <trkpt lat="44.10698" lon="6.35838">
        <ele>1665.5999755859</ele>
        <time>2017-05-25T10:57:45.000Z</time>
      </trkpt>
      <trkpt lat="44.10715" lon="6.35835">
        <ele>1666.1999511719</ele>
        <time>2017-05-25T10:58:49.000Z</time>
      </trkpt>
      <trkpt lat="44.10728" lon="6.35812">
        <ele>1660.8000488281</ele>
        <time>2017-05-25T10:58:58.000Z</time>
      </trkpt>
      <trkpt lat="44.1074" lon="6.3579">
        <ele>1662.1999511719</ele>
        <time>2017-05-25T10:59:02.000Z</time>
      </trkpt>
      <trkpt lat="44.10756" lon="6.35766">
        <ele>1656.1999511719</ele>
        <time>2017-05-25T10:59:05.000Z</time>
      </trkpt>
      <trkpt lat="44.10774" lon="6.35743">
        <ele>1645.8000488281</ele>
        <time>2017-05-25T10:59:08.000Z</time>
      </trkpt>
      <trkpt lat="44.10789" lon="6.35724">
        <ele>1641.1999511719</ele>
        <time>2017-05-25T10:59:11.000Z</time>
      </trkpt>
      <trkpt lat="44.10803" lon="6.35707">
        <ele>1638.8000488281</ele>
        <time>2017-05-25T10:59:16.000Z</time>
      </trkpt>
      <trkpt lat="44.10807" lon="6.35702">
        <ele>1638</ele>
        <time>2017-05-25T10:59:17.000Z</time>
      </trkpt>
      <trkpt lat="44.10821" lon="6.35684">
        <ele>1632.4000244141</ele>
        <time>2017-05-25T10:59:23.000Z</time>
      </trkpt>
      <trkpt lat="44.10826" lon="6.35681">
        <ele>1628.4000244141</ele>
        <time>2017-05-25T10:59:27.000Z</time>
      </trkpt>
      <trkpt lat="44.10835" lon="6.35702">
        <ele>1633.1999511719</ele>
        <time>2017-05-25T10:59:33.000Z</time>
      </trkpt>
      <trkpt lat="44.10843" lon="6.35711">
        <ele>1632.5999755859</ele>
        <time>2017-05-25T10:59:35.000Z</time>
      </trkpt>
      <trkpt lat="44.10851" lon="6.35718">
        <ele>1631.5999755859</ele>
        <time>2017-05-25T10:59:37.000Z</time>
      </trkpt>
      <trkpt lat="44.10867" lon="6.3573">
        <ele>1631</ele>
        <time>2017-05-25T10:59:43.000Z</time>
      </trkpt>
      <trkpt lat="44.10869" lon="6.35724">
        <ele>1627.8000488281</ele>
        <time>2017-05-25T10:59:53.000Z</time>
      </trkpt>
      <trkpt lat="44.10858" lon="6.35704">
        <ele>1622.1999511719</ele>
        <time>2017-05-25T10:59:59.000Z</time>
      </trkpt>
      <trkpt lat="44.10846" lon="6.35685">
        <ele>1619.5999755859</ele>
        <time>2017-05-25T11:00:09.000Z</time>
      </trkpt>
      <trkpt lat="44.10861" lon="6.35698">
        <ele>1617.8000488281</ele>
        <time>2017-05-25T11:00:20.000Z</time>
      </trkpt>
      <trkpt lat="44.10878" lon="6.35705">
        <ele>1617</ele>
        <time>2017-05-25T11:00:25.000Z</time>
      </trkpt>
      <trkpt lat="44.10894" lon="6.357">
        <ele>1610.8000488281</ele>
        <time>2017-05-25T11:00:30.000Z</time>
      </trkpt>
      <trkpt lat="44.10904" lon="6.35698">
        <ele>1607.4000244141</ele>
        <time>2017-05-25T11:00:36.000Z</time>
      </trkpt>
      <trkpt lat="44.10888" lon="6.35683">
        <ele>1604.4000244141</ele>
        <time>2017-05-25T11:00:42.000Z</time>
      </trkpt>
      <trkpt lat="44.10879" lon="6.35681">
        <ele>1605.8000488281</ele>
        <time>2017-05-25T11:00:46.000Z</time>
      </trkpt>
      <trkpt lat="44.10867" lon="6.35668">
        <ele>1602.5999755859</ele>
        <time>2017-05-25T11:00:51.000Z</time>
      </trkpt>
      <trkpt lat="44.10851" lon="6.3566">
        <ele>1605.5999755859</ele>
        <time>2017-05-25T11:01:03.000Z</time>
      </trkpt>
      <trkpt lat="44.10866" lon="6.35654">
        <ele>1596.4000244141</ele>
        <time>2017-05-25T11:01:15.000Z</time>
      </trkpt>
      <trkpt lat="44.10884" lon="6.35658">
        <ele>1593.1999511719</ele>
        <time>2017-05-25T11:01:20.000Z</time>
      </trkpt>
      <trkpt lat="44.10893" lon="6.35656">
        <ele>1589.5999755859</ele>
        <time>2017-05-25T11:01:22.000Z</time>
      </trkpt>
      <trkpt lat="44.10895" lon="6.35653">
        <ele>1587.1999511719</ele>
        <time>2017-05-25T11:01:35.000Z</time>
      </trkpt>
      <trkpt lat="44.10876" lon="6.35643">
        <ele>1589</ele>
        <time>2017-05-25T11:01:41.000Z</time>
      </trkpt>
      <trkpt lat="44.10872" lon="6.3564">
        <ele>1588.8000488281</ele>
        <time>2017-05-25T11:01:42.000Z</time>
      </trkpt>
      <trkpt lat="44.10855" lon="6.35633">
        <ele>1594.8000488281</ele>
        <time>2017-05-25T11:01:47.000Z</time>
      </trkpt>
      <trkpt lat="44.10849" lon="6.35629">
        <ele>1599</ele>
        <time>2017-05-25T11:01:52.000Z</time>
      </trkpt>
      <trkpt lat="44.10855" lon="6.35618">
        <ele>1589.8000488281</ele>
        <time>2017-05-25T11:02:01.000Z</time>
      </trkpt>
      <trkpt lat="44.10867" lon="6.35605">
        <ele>1579.8000488281</ele>
        <time>2017-05-25T11:02:09.000Z</time>
      </trkpt>
      <trkpt lat="44.10876" lon="6.35607">
        <ele>1577.5999755859</ele>
        <time>2017-05-25T11:02:11.000Z</time>
      </trkpt>
      <trkpt lat="44.1089" lon="6.35607">
        <ele>1573.4000244141</ele>
        <time>2017-05-25T11:02:14.000Z</time>
      </trkpt>
      <trkpt lat="44.10911" lon="6.356">
        <ele>1562.8000488281</ele>
        <time>2017-05-25T11:02:18.000Z</time>
      </trkpt>
      <trkpt lat="44.10923" lon="6.35594">
        <ele>1554.4000244141</ele>
        <time>2017-05-25T11:02:21.000Z</time>
      </trkpt>
      <trkpt lat="44.1094" lon="6.35588">
        <ele>1544.1999511719</ele>
        <time>2017-05-25T11:02:25.000Z</time>
      </trkpt>
      <trkpt lat="44.10959" lon="6.35588">
        <ele>1541</ele>
        <time>2017-05-25T11:02:29.000Z</time>
      </trkpt>
      <trkpt lat="44.10969" lon="6.35589">
        <ele>1540.4000244141</ele>
        <time>2017-05-25T11:02:33.000Z</time>
      </trkpt>
      <trkpt lat="44.10957" lon="6.35567">
        <ele>1531.1999511719</ele>
        <time>2017-05-25T11:02:42.000Z</time>
      </trkpt>
      <trkpt lat="44.10949" lon="6.35563">
        <ele>1530.8000488281</ele>
        <time>2017-05-25T11:02:45.000Z</time>
      </trkpt>
      <trkpt lat="44.1093" lon="6.35564">
        <ele>1537.8000488281</ele>
        <time>2017-05-25T11:02:52.000Z</time>
      </trkpt>
      <trkpt lat="44.10928" lon="6.35562">
        <ele>1538.4000244141</ele>
        <time>2017-05-25T11:02:53.000Z</time>
      </trkpt>
      <trkpt lat="44.10928" lon="6.3556">
        <ele>1538.1999511719</ele>
        <time>2017-05-25T11:02:55.000Z</time>
      </trkpt>
      <trkpt lat="44.10937" lon="6.35554">
        <ele>1532.4000244141</ele>
        <time>2017-05-25T11:03:00.000Z</time>
      </trkpt>
      <trkpt lat="44.10933" lon="6.35548">
        <ele>1532.5999755859</ele>
        <time>2017-05-25T11:03:09.000Z</time>
      </trkpt>
      <trkpt lat="44.10934" lon="6.35545">
        <ele>1531.5999755859</ele>
        <time>2017-05-25T11:03:11.000Z</time>
      </trkpt>
      <trkpt lat="44.10943" lon="6.35533">
        <ele>1523</ele>
        <time>2017-05-25T11:03:15.000Z</time>
      </trkpt>
      <trkpt lat="44.10963" lon="6.35518">
        <ele>1515.8000488281</ele>
        <time>2017-05-25T11:03:19.000Z</time>
      </trkpt>
      <trkpt lat="44.10966" lon="6.35507">
        <ele>1512.4000244141</ele>
        <time>2017-05-25T11:03:28.000Z</time>
      </trkpt>
      <trkpt lat="44.10949" lon="6.35504">
        <ele>1513.8000488281</ele>
        <time>2017-05-25T11:03:32.000Z</time>
      </trkpt>
      <trkpt lat="44.10937" lon="6.35486">
        <ele>1512.5999755859</ele>
        <time>2017-05-25T11:03:38.000Z</time>
      </trkpt>
      <trkpt lat="44.10937" lon="6.35473">
        <ele>1509.8000488281</ele>
        <time>2017-05-25T11:03:40.000Z</time>
      </trkpt>
      <trkpt lat="44.10936" lon="6.35447">
        <ele>1503</ele>
        <time>2017-05-25T11:03:43.000Z</time>
      </trkpt>
      <trkpt lat="44.10935" lon="6.35428">
        <ele>1498.4000244141</ele>
        <time>2017-05-25T11:03:45.000Z</time>
      </trkpt>
      <trkpt lat="44.10933" lon="6.35402">
        <ele>1492.1999511719</ele>
        <time>2017-05-25T11:03:51.000Z</time>
      </trkpt>
      <trkpt lat="44.10944" lon="6.35423">
        <ele>1492</ele>
        <time>2017-05-25T11:04:01.000Z</time>
      </trkpt>
      <trkpt lat="44.10947" lon="6.35431">
        <ele>1493.1999511719</ele>
        <time>2017-05-25T11:04:02.000Z</time>
      </trkpt>
      <trkpt lat="44.10965" lon="6.35443">
        <ele>1491</ele>
        <time>2017-05-25T11:04:06.000Z</time>
      </trkpt>
      <trkpt lat="44.10977" lon="6.35438">
        <ele>1485.5999755859</ele>
        <time>2017-05-25T11:04:10.000Z</time>
      </trkpt>
      <trkpt lat="44.10991" lon="6.35432">
        <ele>1478.8000488281</ele>
        <time>2017-05-25T11:04:13.000Z</time>
      </trkpt>
      <trkpt lat="44.10999" lon="6.35426">
        <ele>1473.5999755859</ele>
        <time>2017-05-25T11:04:21.000Z</time>
      </trkpt>
      <trkpt lat="44.10988" lon="6.35419">
        <ele>1475</ele>
        <time>2017-05-25T11:04:26.000Z</time>
      </trkpt>
      <trkpt lat="44.10984" lon="6.3541">
        <ele>1473.5999755859</ele>
        <time>2017-05-25T11:04:28.000Z</time>
      </trkpt>
      <trkpt lat="44.10979" lon="6.35385">
        <ele>1468.8000488281</ele>
        <time>2017-05-25T11:04:33.000Z</time>
      </trkpt>
      <trkpt lat="44.10982" lon="6.35371">
        <ele>1464.1999511719</ele>
        <time>2017-05-25T11:04:35.000Z</time>
      </trkpt>
      <trkpt lat="44.10982" lon="6.35347">
        <ele>1459.1999511719</ele>
        <time>2017-05-25T11:04:39.000Z</time>
      </trkpt>
      <trkpt lat="44.10976" lon="6.35321">
        <ele>1454.5999755859</ele>
        <time>2017-05-25T11:04:43.000Z</time>
      </trkpt>
      <trkpt lat="44.1097" lon="6.35297">
        <ele>1452.4000244141</ele>
        <time>2017-05-25T11:04:46.000Z</time>
      </trkpt>
      <trkpt lat="44.10967" lon="6.35266">
        <ele>1447.5999755859</ele>
        <time>2017-05-25T11:04:49.000Z</time>
      </trkpt>
      <trkpt lat="44.10966" lon="6.35254">
        <ele>1445.8000488281</ele>
        <time>2017-05-25T11:04:50.000Z</time>
      </trkpt>
      <trkpt lat="44.10965" lon="6.35221">
        <ele>1439.4000244141</ele>
        <time>2017-05-25T11:04:53.000Z</time>
      </trkpt>
      <trkpt lat="44.10961" lon="6.35185">
        <ele>1436.4000244141</ele>
        <time>2017-05-25T11:04:56.000Z</time>
      </trkpt>
      <trkpt lat="44.10959" lon="6.35151">
        <ele>1433</ele>
        <time>2017-05-25T11:04:59.000Z</time>
      </trkpt>
      <trkpt lat="44.10953" lon="6.35121">
        <ele>1429.4000244141</ele>
        <time>2017-05-25T11:05:02.000Z</time>
      </trkpt>
      <trkpt lat="44.10947" lon="6.35091">
        <ele>1426.1999511719</ele>
        <time>2017-05-25T11:05:05.000Z</time>
      </trkpt>
      <trkpt lat="44.10939" lon="6.35062">
        <ele>1423.5999755859</ele>
        <time>2017-05-25T11:05:08.000Z</time>
      </trkpt>
      <trkpt lat="44.10932" lon="6.35031">
        <ele>1419.4000244141</ele>
        <time>2017-05-25T11:05:11.000Z</time>
      </trkpt>
      <trkpt lat="44.10925" lon="6.35001">
        <ele>1415.5999755859</ele>
        <time>2017-05-25T11:05:14.000Z</time>
      </trkpt>
      <trkpt lat="44.10918" lon="6.34977">
        <ele>1412</ele>
        <time>2017-05-25T11:05:17.000Z</time>
      </trkpt>
      <trkpt lat="44.10913" lon="6.34946">
        <ele>1404.4000244141</ele>
        <time>2017-05-25T11:05:21.000Z</time>
      </trkpt>
      <trkpt lat="44.10912" lon="6.34921">
        <ele>1398.5999755859</ele>
        <time>2017-05-25T11:05:24.000Z</time>
      </trkpt>
      <trkpt lat="44.10908" lon="6.3489">
        <ele>1392.1999511719</ele>
        <time>2017-05-25T11:05:27.000Z</time>
      </trkpt>
      <trkpt lat="44.10905" lon="6.34864">
        <ele>1387.4000244141</ele>
        <time>2017-05-25T11:05:31.000Z</time>
      </trkpt>
      <trkpt lat="44.10901" lon="6.34845">
        <ele>1385</ele>
        <time>2017-05-25T11:07:36.000Z</time>
      </trkpt>
      <trkpt lat="44.10901" lon="6.34828">
        <ele>1381</ele>
        <time>2017-05-25T11:10:44.000Z</time>
      </trkpt>
      <trkpt lat="44.10901" lon="6.34797">
        <ele>1373.1999511719</ele>
        <time>2017-05-25T11:10:48.000Z</time>
      </trkpt>
      <trkpt lat="44.10901" lon="6.34767">
        <ele>1365.4000244141</ele>
        <time>2017-05-25T11:10:51.000Z</time>
      </trkpt>
      <trkpt lat="44.10899" lon="6.34757">
        <ele>1363.8000488281</ele>
        <time>2017-05-25T11:10:52.000Z</time>
      </trkpt>
      <trkpt lat="44.10888" lon="6.34727">
        <ele>1361.4000244141</ele>
        <time>2017-05-25T11:10:55.000Z</time>
      </trkpt>
      <trkpt lat="44.10878" lon="6.34706">
        <ele>1360.1999511719</ele>
        <time>2017-05-25T11:10:57.000Z</time>
      </trkpt>
      <trkpt lat="44.10869" lon="6.34683">
        <ele>1358.5999755859</ele>
        <time>2017-05-25T11:10:59.000Z</time>
      </trkpt>
      <trkpt lat="44.10865" lon="6.34669">
        <ele>1357</ele>
        <time>2017-05-25T11:11:00.000Z</time>
      </trkpt>
      <trkpt lat="44.10859" lon="6.3464">
        <ele>1352.8000488281</ele>
        <time>2017-05-25T11:11:02.000Z</time>
      </trkpt>
      <trkpt lat="44.10856" lon="6.34608">
        <ele>1347.5999755859</ele>
        <time>2017-05-25T11:11:04.000Z</time>
      </trkpt>
      <trkpt lat="44.10853" lon="6.34575">
        <ele>1342.1999511719</ele>
        <time>2017-05-25T11:11:06.000Z</time>
      </trkpt>
      <trkpt lat="44.10851" lon="6.34546">
        <ele>1337.4000244141</ele>
        <time>2017-05-25T11:11:08.000Z</time>
      </trkpt>
      <trkpt lat="44.10848" lon="6.34519">
        <ele>1334.5999755859</ele>
        <time>2017-05-25T11:11:10.000Z</time>
      </trkpt>
      <trkpt lat="44.10845" lon="6.34494">
        <ele>1332</ele>
        <time>2017-05-25T11:11:12.000Z</time>
      </trkpt>
      <trkpt lat="44.10843" lon="6.34468">
        <ele>1328.5999755859</ele>
        <time>2017-05-25T11:11:14.000Z</time>
      </trkpt>
      <trkpt lat="44.10842" lon="6.34441">
        <ele>1324.5999755859</ele>
        <time>2017-05-25T11:11:16.000Z</time>
      </trkpt>
      <trkpt lat="44.1084" lon="6.34415">
        <ele>1321</ele>
        <time>2017-05-25T11:11:18.000Z</time>
      </trkpt>
      <trkpt lat="44.10837" lon="6.34383">
        <ele>1316.1999511719</ele>
        <time>2017-05-25T11:11:21.000Z</time>
      </trkpt>
      <trkpt lat="44.10833" lon="6.34366">
        <ele>1313.8000488281</ele>
        <time>2017-05-25T11:11:23.000Z</time>
      </trkpt>
      <trkpt lat="44.10824" lon="6.34337">
        <ele>1311.1999511719</ele>
        <time>2017-05-25T11:11:26.000Z</time>
      </trkpt>
      <trkpt lat="44.1082" lon="6.34321">
        <ele>1309.5999755859</ele>
        <time>2017-05-25T11:11:28.000Z</time>
      </trkpt>
      <trkpt lat="44.10815" lon="6.34298">
        <ele>1304.8000488281</ele>
        <time>2017-05-25T11:19:27.000Z</time>
      </trkpt>
      <trkpt lat="44.1081" lon="6.34283">
        <ele>1301</ele>
        <time>2017-05-25T11:19:30.000Z</time>
      </trkpt>
      <trkpt lat="44.1083" lon="6.34286">
        <ele>1296.8000488281</ele>
        <time>2017-05-25T11:19:35.000Z</time>
      </trkpt>
      <trkpt lat="44.10843" lon="6.34288">
        <ele>1294.4000244141</ele>
        <time>2017-05-25T11:19:37.000Z</time>
      </trkpt>
      <trkpt lat="44.10862" lon="6.34292">
        <ele>1291.1999511719</ele>
        <time>2017-05-25T11:19:40.000Z</time>
      </trkpt>
      <trkpt lat="44.10873" lon="6.34294">
        <ele>1289</ele>
        <time>2017-05-25T11:19:42.000Z</time>
      </trkpt>
      <trkpt lat="44.10865" lon="6.34272">
        <ele>1284.8000488281</ele>
        <time>2017-05-25T11:19:48.000Z</time>
      </trkpt>
      <trkpt lat="44.1085" lon="6.34258">
        <ele>1284.4000244141</ele>
        <time>2017-05-25T11:19:55.000Z</time>
      </trkpt>
      <trkpt lat="44.10831" lon="6.34251">
        <ele>1286.4000244141</ele>
        <time>2017-05-25T11:20:02.000Z</time>
      </trkpt>
      <trkpt lat="44.10812" lon="6.34247">
        <ele>1289.8000488281</ele>
        <time>2017-05-25T11:20:07.000Z</time>
      </trkpt>
      <trkpt lat="44.10792" lon="6.34243">
        <ele>1293</ele>
        <time>2017-05-25T11:20:12.000Z</time>
      </trkpt>
      <trkpt lat="44.10771" lon="6.34233">
        <ele>1294.1999511719</ele>
        <time>2017-05-25T11:20:16.000Z</time>
      </trkpt>
      <trkpt lat="44.10752" lon="6.34219">
        <ele>1290.4000244141</ele>
        <time>2017-05-25T11:20:19.000Z</time>
      </trkpt>
      <trkpt lat="44.10734" lon="6.34208">
        <ele>1287.5999755859</ele>
        <time>2017-05-25T11:20:22.000Z</time>
      </trkpt>
      <trkpt lat="44.10724" lon="6.34201">
        <ele>1285.5999755859</ele>
        <time>2017-05-25T11:20:24.000Z</time>
      </trkpt>
      <trkpt lat="44.10705" lon="6.34182">
        <ele>1279.4000244141</ele>
        <time>2017-05-25T11:20:28.000Z</time>
      </trkpt>
      <trkpt lat="44.107" lon="6.34177">
        <ele>1277.5999755859</ele>
        <time>2017-05-25T11:20:29.000Z</time>
      </trkpt>
      <trkpt lat="44.10684" lon="6.3416">
        <ele>1269.4000244141</ele>
        <time>2017-05-25T11:20:32.000Z</time>
      </trkpt>
      <trkpt lat="44.10673" lon="6.34154">
        <ele>1264.5999755859</ele>
        <time>2017-05-25T11:20:35.000Z</time>
      </trkpt>
      <trkpt lat="44.10664" lon="6.34176">
        <ele>1272</ele>
        <time>2017-05-25T11:20:42.000Z</time>
      </trkpt>
      <trkpt lat="44.10651" lon="6.34198">
        <ele>1278.5999755859</ele>
        <time>2017-05-25T11:20:47.000Z</time>
      </trkpt>
      <trkpt lat="44.10643" lon="6.342">
        <ele>1277.8000488281</ele>
        <time>2017-05-25T11:20:49.000Z</time>
      </trkpt>
      <trkpt lat="44.10623" lon="6.34193">
        <ele>1270.8000488281</ele>
        <time>2017-05-25T11:20:54.000Z</time>
      </trkpt>
      <trkpt lat="44.10619" lon="6.34195">
        <ele>1271</ele>
        <time>2017-05-25T11:20:55.000Z</time>
      </trkpt>
      <trkpt lat="44.10606" lon="6.34198">
        <ele>1270.4000244141</ele>
        <time>2017-05-25T11:20:59.000Z</time>
      </trkpt>
      <trkpt lat="44.10592" lon="6.34196">
        <ele>1268.8000488281</ele>
        <time>2017-05-25T11:21:02.000Z</time>
      </trkpt>
      <trkpt lat="44.10571" lon="6.34192">
        <ele>1266.1999511719</ele>
        <time>2017-05-25T11:21:07.000Z</time>
      </trkpt>
      <trkpt lat="44.10561" lon="6.34193">
        <ele>1265.4000244141</ele>
        <time>2017-05-25T11:21:10.000Z</time>
      </trkpt>
      <trkpt lat="44.10559" lon="6.34192">
        <ele>1264.8000488281</ele>
        <time>2017-05-25T11:21:14.000Z</time>
      </trkpt>
      <trkpt lat="44.10577" lon="6.34188">
        <ele>1265</ele>
        <time>2017-05-25T11:21:21.000Z</time>
      </trkpt>
      <trkpt lat="44.10598" lon="6.34176">
        <ele>1260.5999755859</ele>
        <time>2017-05-25T11:21:27.000Z</time>
      </trkpt>
      <trkpt lat="44.10601" lon="6.34172">
        <ele>1258.8000488281</ele>
        <time>2017-05-25T11:21:28.000Z</time>
      </trkpt>
      <trkpt lat="44.10611" lon="6.34163">
        <ele>1255.8000488281</ele>
        <time>2017-05-25T11:21:31.000Z</time>
      </trkpt>
      <trkpt lat="44.10614" lon="6.34155">
        <ele>1253</ele>
        <time>2017-05-25T11:21:39.000Z</time>
      </trkpt>
      <trkpt lat="44.10607" lon="6.34157">
        <ele>1252.8000488281</ele>
        <time>2017-05-25T11:21:41.000Z</time>
      </trkpt>
      <trkpt lat="44.10585" lon="6.3415">
        <ele>1249.1999511719</ele>
        <time>2017-05-25T11:21:46.000Z</time>
      </trkpt>
      <trkpt lat="44.10581" lon="6.34147">
        <ele>1247.8000488281</ele>
        <time>2017-05-25T11:21:47.000Z</time>
      </trkpt>
      <trkpt lat="44.10566" lon="6.34138">
        <ele>1245.1999511719</ele>
        <time>2017-05-25T11:21:52.000Z</time>
      </trkpt>
      <trkpt lat="44.10573" lon="6.34129">
        <ele>1243.1999511719</ele>
        <time>2017-05-25T11:21:56.000Z</time>
      </trkpt>
      <trkpt lat="44.10577" lon="6.34125">
        <ele>1242.4000244141</ele>
        <time>2017-05-25T11:21:57.000Z</time>
      </trkpt>
      <trkpt lat="44.10588" lon="6.34112">
        <ele>1238.1999511719</ele>
        <time>2017-05-25T11:22:03.000Z</time>
      </trkpt>
      <trkpt lat="44.1057" lon="6.34105">
        <ele>1237.1999511719</ele>
        <time>2017-05-25T11:22:10.000Z</time>
      </trkpt>
      <trkpt lat="44.10565" lon="6.34103">
        <ele>1236.8000488281</ele>
        <time>2017-05-25T11:23:08.000Z</time>
      </trkpt>
      <trkpt lat="44.10552" lon="6.34084">
        <ele>1231</ele>
        <time>2017-05-25T11:23:24.000Z</time>
      </trkpt>
      <trkpt lat="44.10553" lon="6.34081">
        <ele>1230</ele>
        <time>2017-05-25T11:23:25.000Z</time>
      </trkpt>
      <trkpt lat="44.10554" lon="6.34075">
        <ele>1228</ele>
        <time>2017-05-25T11:23:27.000Z</time>
      </trkpt>
      <trkpt lat="44.10545" lon="6.34071">
        <ele>1227.1999511719</ele>
        <time>2017-05-25T11:23:32.000Z</time>
      </trkpt>
      <trkpt lat="44.10538" lon="6.3407">
        <ele>1227.1999511719</ele>
        <time>2017-05-25T11:23:35.000Z</time>
      </trkpt>
      <trkpt lat="44.10531" lon="6.34052">
        <ele>1224</ele>
        <time>2017-05-25T11:23:40.000Z</time>
      </trkpt>
      <trkpt lat="44.10525" lon="6.34045">
        <ele>1223.5999755859</ele>
        <time>2017-05-25T11:23:44.000Z</time>
      </trkpt>
      <trkpt lat="44.10524" lon="6.34022">
        <ele>1220.4000244141</ele>
        <time>2017-05-25T11:24:12.000Z</time>
      </trkpt>
      <trkpt lat="44.10528" lon="6.34015">
        <ele>1218.8000488281</ele>
        <time>2017-05-25T11:24:16.000Z</time>
      </trkpt>
      <trkpt lat="44.10534" lon="6.33989">
        <ele>1214.5999755859</ele>
        <time>2017-05-25T11:24:23.000Z</time>
      </trkpt>
      <trkpt lat="44.10533" lon="6.33981">
        <ele>1213</ele>
        <time>2017-05-25T11:24:24.000Z</time>
      </trkpt>
      <trkpt lat="44.1053" lon="6.33968">
        <ele>1213</ele>
        <time>2017-05-25T11:24:26.000Z</time>
      </trkpt>
      <trkpt lat="44.10526" lon="6.33947">
        <ele>1213</ele>
        <time>2017-05-25T11:24:29.000Z</time>
      </trkpt>
      <trkpt lat="44.10525" lon="6.33923">
        <ele>1212.4000244141</ele>
        <time>2017-05-25T11:24:34.000Z</time>
      </trkpt>
      <trkpt lat="44.10517" lon="6.33908">
        <ele>1214</ele>
        <time>2017-05-25T11:24:51.000Z</time>
      </trkpt>
      <trkpt lat="44.10519" lon="6.33893">
        <ele>1213.4000244141</ele>
        <time>2017-05-25T11:25:00.000Z</time>
      </trkpt>
      <trkpt lat="44.10523" lon="6.33866">
        <ele>1212.1999511719</ele>
        <time>2017-05-25T11:25:12.000Z</time>
      </trkpt>
      <trkpt lat="44.10522" lon="6.33859">
        <ele>1212.4000244141</ele>
        <time>2017-05-25T11:25:15.000Z</time>
      </trkpt>
      <trkpt lat="44.10511" lon="6.33839">
        <ele>1215.8000488281</ele>
        <time>2017-05-25T11:25:25.000Z</time>
      </trkpt>
      <trkpt lat="44.10498" lon="6.33818">
        <ele>1219.8000488281</ele>
        <time>2017-05-25T11:25:37.000Z</time>
      </trkpt>
      <trkpt lat="44.10487" lon="6.33797">
        <ele>1222.1999511719</ele>
        <time>2017-05-25T11:25:47.000Z</time>
      </trkpt>
      <trkpt lat="44.10471" lon="6.33783">
        <ele>1226.1999511719</ele>
        <time>2017-05-25T11:25:58.000Z</time>
      </trkpt>
      <trkpt lat="44.1047" lon="6.33783">
        <ele>1226.4000244141</ele>
        <time>2017-05-25T11:25:59.000Z</time>
      </trkpt>
      <trkpt lat="44.10469" lon="6.33785">
        <ele>1226.8000488281</ele>
        <time>2017-05-25T11:26:02.000Z</time>
      </trkpt>
      <trkpt lat="44.10471" lon="6.33805">
        <ele>1227.8000488281</ele>
        <time>2017-05-25T11:26:15.000Z</time>
      </trkpt>
      <trkpt lat="44.10473" lon="6.3383">
        <ele>1227.8000488281</ele>
        <time>2017-05-25T11:26:33.000Z</time>
      </trkpt>
      <trkpt lat="44.10458" lon="6.33822">
        <ele>1232.4000244141</ele>
        <time>2017-05-25T11:26:54.000Z</time>
      </trkpt>
      <trkpt lat="44.10442" lon="6.33809">
        <ele>1237</ele>
        <time>2017-05-25T11:27:10.000Z</time>
      </trkpt>
      <trkpt lat="44.10425" lon="6.33802">
        <ele>1242.1999511719</ele>
        <time>2017-05-25T11:27:28.000Z</time>
      </trkpt>
      <trkpt lat="44.10408" lon="6.33797">
        <ele>1247.1999511719</ele>
        <time>2017-05-25T11:27:50.000Z</time>
      </trkpt>
      <trkpt lat="44.10395" lon="6.33778">
        <ele>1250.4000244141</ele>
        <time>2017-05-25T11:28:02.000Z</time>
      </trkpt>
      <trkpt lat="44.10381" lon="6.33763">
        <ele>1254.1999511719</ele>
        <time>2017-05-25T11:28:16.000Z</time>
      </trkpt>
      <trkpt lat="44.10365" lon="6.3375">
        <ele>1258.5999755859</ele>
        <time>2017-05-25T11:28:29.000Z</time>
      </trkpt>
      <trkpt lat="44.10355" lon="6.33728">
        <ele>1260.8000488281</ele>
        <time>2017-05-25T11:28:56.000Z</time>
      </trkpt>
      <trkpt lat="44.10345" lon="6.3371">
        <ele>1264.8000488281</ele>
        <time>2017-05-25T11:29:14.000Z</time>
      </trkpt>
      <trkpt lat="44.10334" lon="6.33691">
        <ele>1269.1999511719</ele>
        <time>2017-05-25T11:29:31.000Z</time>
      </trkpt>
      <trkpt lat="44.10324" lon="6.3367">
        <ele>1273</ele>
        <time>2017-05-25T11:29:46.000Z</time>
      </trkpt>
      <trkpt lat="44.10315" lon="6.33648">
        <ele>1276.5999755859</ele>
        <time>2017-05-25T11:30:02.000Z</time>
      </trkpt>
      <trkpt lat="44.10315" lon="6.33622">
        <ele>1278.4000244141</ele>
        <time>2017-05-25T11:30:16.000Z</time>
      </trkpt>
      <trkpt lat="44.1031" lon="6.336">
        <ele>1281.4000244141</ele>
        <time>2017-05-25T11:31:06.000Z</time>
      </trkpt>
      <trkpt lat="44.10315" lon="6.33581">
        <ele>1282.5999755859</ele>
        <time>2017-05-25T11:31:35.000Z</time>
      </trkpt>
      <trkpt lat="44.10328" lon="6.33565">
        <ele>1281.4000244141</ele>
        <time>2017-05-25T11:31:52.000Z</time>
      </trkpt>
      <trkpt lat="44.10312" lon="6.33552">
        <ele>1285.1999511719</ele>
        <time>2017-05-25T11:32:25.000Z</time>
      </trkpt>
      <trkpt lat="44.10321" lon="6.33539">
        <ele>1282.5999755859</ele>
        <time>2017-05-25T11:33:28.000Z</time>
      </trkpt>
      <trkpt lat="44.10305" lon="6.33529">
        <ele>1286.4000244141</ele>
        <time>2017-05-25T11:33:44.000Z</time>
      </trkpt>
      <trkpt lat="44.10293" lon="6.3351">
        <ele>1288.8000488281</ele>
        <time>2017-05-25T11:34:00.000Z</time>
      </trkpt>
      <trkpt lat="44.10305" lon="6.33503">
        <ele>1286.1999511719</ele>
        <time>2017-05-25T11:35:55.000Z</time>
      </trkpt>
      <trkpt lat="44.10295" lon="6.33507">
        <ele>1288.1999511719</ele>
        <time>2017-05-25T11:36:42.000Z</time>
      </trkpt>
      <trkpt lat="44.10295" lon="6.33482">
        <ele>1289.5999755859</ele>
        <time>2017-05-25T11:37:17.000Z</time>
      </trkpt>
      <trkpt lat="44.10303" lon="6.33457">
        <ele>1284.1999511719</ele>
        <time>2017-05-25T11:37:22.000Z</time>
      </trkpt>
      <trkpt lat="44.10313" lon="6.33458">
        <ele>1283.1999511719</ele>
        <time>2017-05-25T11:37:28.000Z</time>
      </trkpt>
      <trkpt lat="44.10331" lon="6.33459">
        <ele>1281.4000244141</ele>
        <time>2017-05-25T11:37:34.000Z</time>
      </trkpt>
      <trkpt lat="44.10351" lon="6.33452">
        <ele>1279.5999755859</ele>
        <time>2017-05-25T11:37:37.000Z</time>
      </trkpt>
      <trkpt lat="44.10357" lon="6.33448">
        <ele>1279.1999511719</ele>
        <time>2017-05-25T11:37:38.000Z</time>
      </trkpt>
      <trkpt lat="44.10368" lon="6.33439">
        <ele>1274.5999755859</ele>
        <time>2017-05-25T11:37:40.000Z</time>
      </trkpt>
      <trkpt lat="44.10379" lon="6.33413">
        <ele>1267.1999511719</ele>
        <time>2017-05-25T11:37:44.000Z</time>
      </trkpt>
      <trkpt lat="44.10396" lon="6.33398">
        <ele>1264</ele>
        <time>2017-05-25T11:37:48.000Z</time>
      </trkpt>
      <trkpt lat="44.10407" lon="6.33378">
        <ele>1257.5999755859</ele>
        <time>2017-05-25T11:37:53.000Z</time>
      </trkpt>
      <trkpt lat="44.10423" lon="6.33364">
        <ele>1253.5999755859</ele>
        <time>2017-05-25T11:37:57.000Z</time>
      </trkpt>
      <trkpt lat="44.10439" lon="6.3335">
        <ele>1253.8000488281</ele>
        <time>2017-05-25T11:38:02.000Z</time>
      </trkpt>
      <trkpt lat="44.10447" lon="6.33337">
        <ele>1252.8000488281</ele>
        <time>2017-05-25T11:38:05.000Z</time>
      </trkpt>
      <trkpt lat="44.10453" lon="6.33326">
        <ele>1250.4000244141</ele>
        <time>2017-05-25T11:38:07.000Z</time>
      </trkpt>
      <trkpt lat="44.10457" lon="6.33297">
        <ele>1251</ele>
        <time>2017-05-25T11:38:11.000Z</time>
      </trkpt>
      <trkpt lat="44.10463" lon="6.3328">
        <ele>1247.5999755859</ele>
        <time>2017-05-25T11:38:17.000Z</time>
      </trkpt>
      <trkpt lat="44.10477" lon="6.33263">
        <ele>1242.8000488281</ele>
        <time>2017-05-25T11:38:24.000Z</time>
      </trkpt>
      <trkpt lat="44.10489" lon="6.33243">
        <ele>1245</ele>
        <time>2017-05-25T11:38:31.000Z</time>
      </trkpt>
      <trkpt lat="44.10499" lon="6.33218">
        <ele>1244.8000488281</ele>
        <time>2017-05-25T11:40:55.000Z</time>
      </trkpt>
      <trkpt lat="44.10504" lon="6.33199">
        <ele>1242.8000488281</ele>
        <time>2017-05-25T11:41:01.000Z</time>
      </trkpt>
      <trkpt lat="44.1051" lon="6.33189">
        <ele>1242.5999755859</ele>
        <time>2017-05-25T11:41:06.000Z</time>
      </trkpt>
      <trkpt lat="44.10528" lon="6.33177">
        <ele>1242.5999755859</ele>
        <time>2017-05-25T11:41:13.000Z</time>
      </trkpt>
      <trkpt lat="44.10539" lon="6.33163">
        <ele>1239.1999511719</ele>
        <time>2017-05-25T11:41:16.000Z</time>
      </trkpt>
      <trkpt lat="44.10553" lon="6.33142">
        <ele>1238.8000488281</ele>
        <time>2017-05-25T11:41:21.000Z</time>
      </trkpt>
      <trkpt lat="44.10555" lon="6.33132">
        <ele>1238</ele>
        <time>2017-05-25T11:41:24.000Z</time>
      </trkpt>
      <trkpt lat="44.1056" lon="6.33105">
        <ele>1235.5999755859</ele>
        <time>2017-05-25T11:41:31.000Z</time>
      </trkpt>
      <trkpt lat="44.10563" lon="6.33093">
        <ele>1235.1999511719</ele>
        <time>2017-05-25T11:41:34.000Z</time>
      </trkpt>
      <trkpt lat="44.10564" lon="6.33062">
        <ele>1236.1999511719</ele>
        <time>2017-05-25T11:41:40.000Z</time>
      </trkpt>
      <trkpt lat="44.10559" lon="6.33037">
        <ele>1234.5999755859</ele>
        <time>2017-05-25T11:41:44.000Z</time>
      </trkpt>
      <trkpt lat="44.10556" lon="6.33019">
        <ele>1233.4000244141</ele>
        <time>2017-05-25T11:41:47.000Z</time>
      </trkpt>
      <trkpt lat="44.10553" lon="6.32998">
        <ele>1232.1999511719</ele>
        <time>2017-05-25T11:41:50.000Z</time>
      </trkpt>
      <trkpt lat="44.10542" lon="6.32969">
        <ele>1229.8000488281</ele>
        <time>2017-05-25T11:41:54.000Z</time>
      </trkpt>
      <trkpt lat="44.1054" lon="6.32963">
        <ele>1228.8000488281</ele>
        <time>2017-05-25T11:41:55.000Z</time>
      </trkpt>
      <trkpt lat="44.10522" lon="6.32955">
        <ele>1226.1999511719</ele>
        <time>2017-05-25T11:42:00.000Z</time>
      </trkpt>
      <trkpt lat="44.10517" lon="6.32929">
        <ele>1222.4000244141</ele>
        <time>2017-05-25T11:42:04.000Z</time>
      </trkpt>
      <trkpt lat="44.10515" lon="6.32913">
        <ele>1220.1999511719</ele>
        <time>2017-05-25T11:42:08.000Z</time>
      </trkpt>
      <trkpt lat="44.10508" lon="6.32888">
        <ele>1216</ele>
        <time>2017-05-25T11:42:15.000Z</time>
      </trkpt>
      <trkpt lat="44.10506" lon="6.32864">
        <ele>1211.4000244141</ele>
        <time>2017-05-25T11:42:19.000Z</time>
      </trkpt>
      <trkpt lat="44.10503" lon="6.32852">
        <ele>1208.8000488281</ele>
        <time>2017-05-25T11:42:21.000Z</time>
      </trkpt>
      <trkpt lat="44.10503" lon="6.32822">
        <ele>1203.5999755859</ele>
        <time>2017-05-25T11:42:25.000Z</time>
      </trkpt>
      <trkpt lat="44.10502" lon="6.32813">
        <ele>1202.1999511719</ele>
        <time>2017-05-25T11:42:26.000Z</time>
      </trkpt>
      <trkpt lat="44.10502" lon="6.32805">
        <ele>1200.1999511719</ele>
        <time>2017-05-25T11:42:27.000Z</time>
      </trkpt>
      <trkpt lat="44.10507" lon="6.32775">
        <ele>1195.5999755859</ele>
        <time>2017-05-25T11:42:30.000Z</time>
      </trkpt>
      <trkpt lat="44.10518" lon="6.32748">
        <ele>1193.1999511719</ele>
        <time>2017-05-25T11:42:33.000Z</time>
      </trkpt>
      <trkpt lat="44.10519" lon="6.32742">
        <ele>1192.4000244141</ele>
        <time>2017-05-25T11:42:34.000Z</time>
      </trkpt>
      <trkpt lat="44.1053" lon="6.32715">
        <ele>1190</ele>
        <time>2017-05-25T11:42:39.000Z</time>
      </trkpt>
      <trkpt lat="44.10534" lon="6.32711">
        <ele>1190</ele>
        <time>2017-05-25T11:42:40.000Z</time>
      </trkpt>
      <trkpt lat="44.10538" lon="6.32705">
        <ele>1189.5999755859</ele>
        <time>2017-05-25T11:42:41.000Z</time>
      </trkpt>
      <trkpt lat="44.10549" lon="6.32678">
        <ele>1187</ele>
        <time>2017-05-25T11:42:45.000Z</time>
      </trkpt>
      <trkpt lat="44.10549" lon="6.32649">
        <ele>1182.5999755859</ele>
        <time>2017-05-25T11:42:49.000Z</time>
      </trkpt>
      <trkpt lat="44.10544" lon="6.32631">
        <ele>1179.4000244141</ele>
        <time>2017-05-25T11:42:52.000Z</time>
      </trkpt>
      <trkpt lat="44.10548" lon="6.32612">
        <ele>1177.8000488281</ele>
        <time>2017-05-25T11:43:47.000Z</time>
      </trkpt>
      <trkpt lat="44.10541" lon="6.32589">
        <ele>1173.8000488281</ele>
        <time>2017-05-25T11:43:52.000Z</time>
      </trkpt>
      <trkpt lat="44.10541" lon="6.32585">
        <ele>1173.1999511719</ele>
        <time>2017-05-25T11:43:53.000Z</time>
      </trkpt>
      <trkpt lat="44.10537" lon="6.32559">
        <ele>1169.5999755859</ele>
        <time>2017-05-25T11:43:58.000Z</time>
      </trkpt>
      <trkpt lat="44.10532" lon="6.32544">
        <ele>1167.1999511719</ele>
        <time>2017-05-25T11:44:02.000Z</time>
      </trkpt>
      <trkpt lat="44.10535" lon="6.32521">
        <ele>1165.5999755859</ele>
        <time>2017-05-25T11:44:06.000Z</time>
      </trkpt>
      <trkpt lat="44.10537" lon="6.325">
        <ele>1163.8000488281</ele>
        <time>2017-05-25T11:44:10.000Z</time>
      </trkpt>
      <trkpt lat="44.10536" lon="6.32495">
        <ele>1163.1999511719</ele>
        <time>2017-05-25T11:44:11.000Z</time>
      </trkpt>
      <trkpt lat="44.10533" lon="6.32466">
        <ele>1159.5999755859</ele>
        <time>2017-05-25T11:44:16.000Z</time>
      </trkpt>
      <trkpt lat="44.1053" lon="6.32462">
        <ele>1158.5999755859</ele>
        <time>2017-05-25T11:44:18.000Z</time>
      </trkpt>
      <trkpt lat="44.10518" lon="6.32441">
        <ele>1152.1999511719</ele>
        <time>2017-05-25T11:44:38.000Z</time>
      </trkpt>
      <trkpt lat="44.10512" lon="6.32417">
        <ele>1147.4000244141</ele>
        <time>2017-05-25T11:45:29.000Z</time>
      </trkpt>
      <trkpt lat="44.10512" lon="6.32396">
        <ele>1145.1999511719</ele>
        <time>2017-05-25T11:45:41.000Z</time>
      </trkpt>
      <trkpt lat="44.10494" lon="6.32399">
        <ele>1138.4000244141</ele>
        <time>2017-05-25T11:45:50.000Z</time>
      </trkpt>
      <trkpt lat="44.10481" lon="6.3238">
        <ele>1133.4000244141</ele>
        <time>2017-05-25T11:45:56.000Z</time>
      </trkpt>
      <trkpt lat="44.10477" lon="6.32369">
        <ele>1132</ele>
        <time>2017-05-25T11:45:58.000Z</time>
      </trkpt>
      <trkpt lat="44.10469" lon="6.3235">
        <ele>1129.1999511719</ele>
        <time>2017-05-25T11:46:02.000Z</time>
      </trkpt>
      <trkpt lat="44.10464" lon="6.3234">
        <ele>1127.4000244141</ele>
        <time>2017-05-25T11:46:04.000Z</time>
      </trkpt>
      <trkpt lat="44.10457" lon="6.32322">
        <ele>1124.5999755859</ele>
        <time>2017-05-25T11:46:07.000Z</time>
      </trkpt>
      <trkpt lat="44.10452" lon="6.32311">
        <ele>1122.5999755859</ele>
        <time>2017-05-25T11:46:09.000Z</time>
      </trkpt>
      <trkpt lat="44.10445" lon="6.32296">
        <ele>1121</ele>
        <time>2017-05-25T11:46:15.000Z</time>
      </trkpt>
      <trkpt lat="44.10436" lon="6.32274">
        <ele>1119.1999511719</ele>
        <time>2017-05-25T11:46:21.000Z</time>
      </trkpt>
      <trkpt lat="44.10422" lon="6.32264">
        <ele>1116.1999511719</ele>
        <time>2017-05-25T11:47:37.000Z</time>
      </trkpt>
      <trkpt lat="44.10411" lon="6.32259">
        <ele>1114</ele>
        <time>2017-05-25T11:47:40.000Z</time>
      </trkpt>
      <trkpt lat="44.10401" lon="6.32265">
        <ele>1111.4000244141</ele>
        <time>2017-05-25T11:47:43.000Z</time>
      </trkpt>
      <trkpt lat="44.10387" lon="6.32268">
        <ele>1108.1999511719</ele>
        <time>2017-05-25T11:47:46.000Z</time>
      </trkpt>
      <trkpt lat="44.10368" lon="6.32259">
        <ele>1103.8000488281</ele>
        <time>2017-05-25T11:47:51.000Z</time>
      </trkpt>
      <trkpt lat="44.10365" lon="6.32254">
        <ele>1103.4000244141</ele>
        <time>2017-05-25T11:47:52.000Z</time>
      </trkpt>
      <trkpt lat="44.10359" lon="6.32241">
        <ele>1102.4000244141</ele>
        <time>2017-05-25T11:47:54.000Z</time>
      </trkpt>
      <trkpt lat="44.10342" lon="6.32231">
        <ele>1100</ele>
        <time>2017-05-25T11:47:58.000Z</time>
      </trkpt>
      <trkpt lat="44.10327" lon="6.32246">
        <ele>1097</ele>
        <time>2017-05-25T11:48:30.000Z</time>
      </trkpt>
      <trkpt lat="44.10319" lon="6.32243">
        <ele>1095.5999755859</ele>
        <time>2017-05-25T11:48:34.000Z</time>
      </trkpt>
      <trkpt lat="44.1031" lon="6.32244">
        <ele>1094.1999511719</ele>
        <time>2017-05-25T11:48:36.000Z</time>
      </trkpt>
      <trkpt lat="44.10291" lon="6.3224">
        <ele>1091</ele>
        <time>2017-05-25T11:48:42.000Z</time>
      </trkpt>
      <trkpt lat="44.10287" lon="6.3222">
        <ele>1089.4000244141</ele>
        <time>2017-05-25T11:48:48.000Z</time>
      </trkpt>
      <trkpt lat="44.10268" lon="6.32217">
        <ele>1087.1999511719</ele>
        <time>2017-05-25T11:48:53.000Z</time>
      </trkpt>
      <trkpt lat="44.10267" lon="6.32216">
        <ele>1087</ele>
        <time>2017-05-25T11:48:54.000Z</time>
      </trkpt>
      <trkpt lat="44.10255" lon="6.32196">
        <ele>1084.4000244141</ele>
        <time>2017-05-25T11:49:01.000Z</time>
      </trkpt>
      <trkpt lat="44.10255" lon="6.32194">
        <ele>1084</ele>
        <time>2017-05-25T11:49:02.000Z</time>
      </trkpt>
      <trkpt lat="44.1025" lon="6.32171">
        <ele>1081.1999511719</ele>
        <time>2017-05-25T11:49:06.000Z</time>
      </trkpt>
      <trkpt lat="44.10243" lon="6.32153">
        <ele>1078.8000488281</ele>
        <time>2017-05-25T11:49:33.000Z</time>
      </trkpt>
      <trkpt lat="44.10225" lon="6.32149">
        <ele>1078</ele>
        <time>2017-05-25T11:49:41.000Z</time>
      </trkpt>
      <trkpt lat="44.10219" lon="6.3214">
        <ele>1077.1999511719</ele>
        <time>2017-05-25T11:49:47.000Z</time>
      </trkpt>
      <trkpt lat="44.10213" lon="6.3211">
        <ele>1075.5999755859</ele>
        <time>2017-05-25T11:49:52.000Z</time>
      </trkpt>
      <trkpt lat="44.10196" lon="6.32091">
        <ele>1074.4000244141</ele>
        <time>2017-05-25T11:49:55.000Z</time>
      </trkpt>
      <trkpt lat="44.10193" lon="6.32087">
        <ele>1074</ele>
        <time>2017-05-25T11:49:57.000Z</time>
      </trkpt>
      <trkpt lat="44.10193" lon="6.32079">
        <ele>1073.8000488281</ele>
        <time>2017-05-25T11:50:13.000Z</time>
      </trkpt>
      <trkpt lat="44.10176" lon="6.32069">
        <ele>1071.5999755859</ele>
        <time>2017-05-25T11:50:19.000Z</time>
      </trkpt>
      <trkpt lat="44.10159" lon="6.32062">
        <ele>1069.8000488281</ele>
        <time>2017-05-25T11:50:25.000Z</time>
      </trkpt>
      <trkpt lat="44.10144" lon="6.32053">
        <ele>1068.5999755859</ele>
        <time>2017-05-25T12:01:41.000Z</time>
      </trkpt>
      <trkpt lat="44.10138" lon="6.32027">
        <ele>1068.5999755859</ele>
        <time>2017-05-25T12:01:49.000Z</time>
      </trkpt>
      <trkpt lat="44.10139" lon="6.32022">
        <ele>1068.8000488281</ele>
        <time>2017-05-25T12:01:50.000Z</time>
      </trkpt>
      <trkpt lat="44.10141" lon="6.31999">
        <ele>1066.5999755859</ele>
        <time>2017-05-25T12:01:55.000Z</time>
      </trkpt>
      <trkpt lat="44.10137" lon="6.31973">
        <ele>1062</ele>
        <time>2017-05-25T12:02:03.000Z</time>
      </trkpt>
      <trkpt lat="44.1015" lon="6.31954">
        <ele>1056.8000488281</ele>
        <time>2017-05-25T12:02:09.000Z</time>
      </trkpt>
      <trkpt lat="44.10153" lon="6.31943">
        <ele>1054.4000244141</ele>
        <time>2017-05-25T12:02:14.000Z</time>
      </trkpt>
      <trkpt lat="44.10149" lon="6.31927">
        <ele>1052.5999755859</ele>
        <time>2017-05-25T12:02:18.000Z</time>
      </trkpt>
      <trkpt lat="44.10153" lon="6.31922">
        <ele>1051.4000244141</ele>
        <time>2017-05-25T12:02:21.000Z</time>
      </trkpt>
      <trkpt lat="44.10161" lon="6.31922">
        <ele>1050.5999755859</ele>
        <time>2017-05-25T12:02:25.000Z</time>
      </trkpt>
      <trkpt lat="44.10162" lon="6.31925">
        <ele>1050.8000488281</ele>
        <time>2017-05-25T12:02:27.000Z</time>
      </trkpt>
      <trkpt lat="44.1017" lon="6.31937">
        <ele>1051.4000244141</ele>
        <time>2017-05-25T12:02:33.000Z</time>
      </trkpt>
      <trkpt lat="44.10177" lon="6.31938">
        <ele>1051</ele>
        <time>2017-05-25T12:02:39.000Z</time>
      </trkpt>
      <trkpt lat="44.10187" lon="6.31936">
        <ele>1049.4000244141</ele>
        <time>2017-05-25T12:02:43.000Z</time>
      </trkpt>
      <trkpt lat="44.1019" lon="6.31935">
        <ele>1049</ele>
        <time>2017-05-25T12:02:44.000Z</time>
      </trkpt>
      <trkpt lat="44.10203" lon="6.31916">
        <ele>1044.1999511719</ele>
        <time>2017-05-25T12:02:50.000Z</time>
      </trkpt>
      <trkpt lat="44.10208" lon="6.31902">
        <ele>1042</ele>
        <time>2017-05-25T12:02:53.000Z</time>
      </trkpt>
      <trkpt lat="44.10211" lon="6.31889">
        <ele>1039.4000244141</ele>
        <time>2017-05-25T12:03:03.000Z</time>
      </trkpt>
      <trkpt lat="44.10214" lon="6.3188">
        <ele>1037.1999511719</ele>
        <time>2017-05-25T12:03:08.000Z</time>
      </trkpt>
      <trkpt lat="44.10215" lon="6.31873">
        <ele>1035.8000488281</ele>
        <time>2017-05-25T12:03:11.000Z</time>
      </trkpt>
      <trkpt lat="44.10213" lon="6.31862">
        <ele>1033.8000488281</ele>
        <time>2017-05-25T12:03:15.000Z</time>
      </trkpt>
      <trkpt lat="44.10214" lon="6.31854">
        <ele>1032</ele>
        <time>2017-05-25T12:03:17.000Z</time>
      </trkpt>
      <trkpt lat="44.10221" lon="6.3184">
        <ele>1028.5999755859</ele>
        <time>2017-05-25T12:03:22.000Z</time>
      </trkpt>
      <trkpt lat="44.10225" lon="6.31824">
        <ele>1028.5999755859</ele>
        <time>2017-05-25T12:03:30.000Z</time>
      </trkpt>
      <trkpt lat="44.10222" lon="6.31799">
        <ele>1026.1999511719</ele>
        <time>2017-05-25T12:06:38.000Z</time>
      </trkpt>
      <trkpt lat="44.10222" lon="6.31773">
        <ele>1023.200012207</ele>
        <time>2017-05-25T12:06:48.000Z</time>
      </trkpt>
      <trkpt lat="44.1022" lon="6.31751">
        <ele>1021.200012207</ele>
        <time>2017-05-25T12:07:36.000Z</time>
      </trkpt>
      <trkpt lat="44.10236" lon="6.31738">
        <ele>1024.1999511719</ele>
        <time>2017-05-25T12:07:50.000Z</time>
      </trkpt>
      <trkpt lat="44.10252" lon="6.31725">
        <ele>1027</ele>
        <time>2017-05-25T12:08:00.000Z</time>
      </trkpt>
      <trkpt lat="44.1027" lon="6.31718">
        <ele>1029.4000244141</ele>
        <time>2017-05-25T12:08:11.000Z</time>
      </trkpt>
      <trkpt lat="44.10289" lon="6.3172">
        <ele>1030.4000244141</ele>
        <time>2017-05-25T12:08:23.000Z</time>
      </trkpt>
      <trkpt lat="44.10301" lon="6.3174">
        <ele>1033.1999511719</ele>
        <time>2017-05-25T12:08:31.000Z</time>
      </trkpt>
      <trkpt lat="44.1031" lon="6.31764">
        <ele>1036.4000244141</ele>
        <time>2017-05-25T12:08:39.000Z</time>
      </trkpt>
      <trkpt lat="44.10319" lon="6.31788">
        <ele>1037.5999755859</ele>
        <time>2017-05-25T12:08:48.000Z</time>
      </trkpt>
      <trkpt lat="44.10331" lon="6.3181">
        <ele>1039.1999511719</ele>
        <time>2017-05-25T12:08:58.000Z</time>
      </trkpt>
      <trkpt lat="44.10347" lon="6.31825">
        <ele>1041.5999755859</ele>
        <time>2017-05-25T12:09:08.000Z</time>
      </trkpt>
      <trkpt lat="44.10355" lon="6.31829">
        <ele>1042.8000488281</ele>
        <time>2017-05-25T12:09:13.000Z</time>
      </trkpt>
      <trkpt lat="44.10371" lon="6.31819">
        <ele>1045.4000244141</ele>
        <time>2017-05-25T12:09:23.000Z</time>
      </trkpt>
      <trkpt lat="44.10371" lon="6.31817">
        <ele>1045</ele>
        <time>2017-05-25T12:09:24.000Z</time>
      </trkpt>
      <trkpt lat="44.10384" lon="6.31801">
        <ele>1044.1999511719</ele>
        <time>2017-05-25T12:09:36.000Z</time>
      </trkpt>
      <trkpt lat="44.10402" lon="6.31795">
        <ele>1045.5999755859</ele>
        <time>2017-05-25T12:09:46.000Z</time>
      </trkpt>
      <trkpt lat="44.1042" lon="6.31788">
        <ele>1046.8000488281</ele>
        <time>2017-05-25T12:10:18.000Z</time>
      </trkpt>
      <trkpt lat="44.10439" lon="6.31782">
        <ele>1048</ele>
        <time>2017-05-25T12:10:30.000Z</time>
      </trkpt>
      <trkpt lat="44.10457" lon="6.31785">
        <ele>1050</ele>
        <time>2017-05-25T12:10:41.000Z</time>
      </trkpt>
      <trkpt lat="44.10472" lon="6.31798">
        <ele>1053.1999511719</ele>
        <time>2017-05-25T12:10:51.000Z</time>
      </trkpt>
      <trkpt lat="44.10486" lon="6.31815">
        <ele>1057</ele>
        <time>2017-05-25T12:11:00.000Z</time>
      </trkpt>
      <trkpt lat="44.10501" lon="6.3183">
        <ele>1061.1999511719</ele>
        <time>2017-05-25T12:11:10.000Z</time>
      </trkpt>
      <trkpt lat="44.1052" lon="6.31835">
        <ele>1063.8000488281</ele>
        <time>2017-05-25T12:11:20.000Z</time>
      </trkpt>
      <trkpt lat="44.10537" lon="6.31847">
        <ele>1068</ele>
        <time>2017-05-25T12:11:31.000Z</time>
      </trkpt>
      <trkpt lat="44.10555" lon="6.31848">
        <ele>1070.5999755859</ele>
        <time>2017-05-25T12:11:41.000Z</time>
      </trkpt>
      <trkpt lat="44.10573" lon="6.3185">
        <ele>1072.8000488281</ele>
        <time>2017-05-25T12:11:50.000Z</time>
      </trkpt>
      <trkpt lat="44.10588" lon="6.31847">
        <ele>1072.8000488281</ele>
        <time>2017-05-25T12:11:58.000Z</time>
      </trkpt>
      <trkpt lat="44.10606" lon="6.31844">
        <ele>1073</ele>
        <time>2017-05-25T12:12:09.000Z</time>
      </trkpt>
      <trkpt lat="44.10612" lon="6.31845">
        <ele>1074</ele>
        <time>2017-05-25T12:12:14.000Z</time>
      </trkpt>
      <trkpt lat="44.10613" lon="6.31844">
        <ele>1074</ele>
        <time>2017-05-25T12:12:16.000Z</time>
      </trkpt>
      <trkpt lat="44.10631" lon="6.31837">
        <ele>1076.1999511719</ele>
        <time>2017-05-25T12:12:28.000Z</time>
      </trkpt>
      <trkpt lat="44.10648" lon="6.31829">
        <ele>1078.1999511719</ele>
        <time>2017-05-25T12:12:40.000Z</time>
      </trkpt>
      <trkpt lat="44.10664" lon="6.31816">
        <ele>1078.5999755859</ele>
        <time>2017-05-25T12:12:52.000Z</time>
      </trkpt>
      <trkpt lat="44.1068" lon="6.31805">
        <ele>1080</ele>
        <time>2017-05-25T12:13:05.000Z</time>
      </trkpt>
      <trkpt lat="44.10698" lon="6.31806">
        <ele>1084.1999511719</ele>
        <time>2017-05-25T12:13:19.000Z</time>
      </trkpt>
      <trkpt lat="44.10714" lon="6.31804">
        <ele>1086.5999755859</ele>
        <time>2017-05-25T12:13:34.000Z</time>
      </trkpt>
      <trkpt lat="44.10731" lon="6.31792">
        <ele>1087</ele>
        <time>2017-05-25T12:13:49.000Z</time>
      </trkpt>
      <trkpt lat="44.10749" lon="6.31785">
        <ele>1088.5999755859</ele>
        <time>2017-05-25T12:14:01.000Z</time>
      </trkpt>
      <trkpt lat="44.10767" lon="6.31795">
        <ele>1094</ele>
        <time>2017-05-25T12:14:14.000Z</time>
      </trkpt>
      <trkpt lat="44.1077" lon="6.31797">
        <ele>1094.8000488281</ele>
        <time>2017-05-25T12:14:16.000Z</time>
      </trkpt>
      <trkpt lat="44.10777" lon="6.31803">
        <ele>1097.4000244141</ele>
        <time>2017-05-25T12:14:22.000Z</time>
      </trkpt>
      <trkpt lat="44.1079" lon="6.31822">
        <ele>1098.1999511719</ele>
        <time>2017-05-25T12:14:34.000Z</time>
      </trkpt>
      <trkpt lat="44.10798" lon="6.31848">
        <ele>1100.1999511719</ele>
        <time>2017-05-25T12:14:43.000Z</time>
      </trkpt>
      <trkpt lat="44.10804" lon="6.31874">
        <ele>1102.1999511719</ele>
        <time>2017-05-25T12:14:50.000Z</time>
      </trkpt>
      <trkpt lat="44.10809" lon="6.31901">
        <ele>1105</ele>
        <time>2017-05-25T12:14:58.000Z</time>
      </trkpt>
      <trkpt lat="44.10809" lon="6.31912">
        <ele>1106</ele>
        <time>2017-05-25T12:15:02.000Z</time>
      </trkpt>
      <trkpt lat="44.10812" lon="6.31922">
        <ele>1106.5999755859</ele>
        <time>2017-05-25T12:15:06.000Z</time>
      </trkpt>
      <trkpt lat="44.10819" lon="6.31944">
        <ele>1107.4000244141</ele>
        <time>2017-05-25T12:15:16.000Z</time>
      </trkpt>
      <trkpt lat="44.10819" lon="6.31962">
        <ele>1108.8000488281</ele>
        <time>2017-05-25T12:15:22.000Z</time>
      </trkpt>
      <trkpt lat="44.10821" lon="6.31989">
        <ele>1110.5999755859</ele>
        <time>2017-05-25T12:15:30.000Z</time>
      </trkpt>
      <trkpt lat="44.10824" lon="6.32018">
        <ele>1112.4000244141</ele>
        <time>2017-05-25T12:15:38.000Z</time>
      </trkpt>
      <trkpt lat="44.10828" lon="6.32044">
        <ele>1113.8000488281</ele>
        <time>2017-05-25T12:15:46.000Z</time>
      </trkpt>
      <trkpt lat="44.10828" lon="6.3207">
        <ele>1116.5999755859</ele>
        <time>2017-05-25T12:15:55.000Z</time>
      </trkpt>
      <trkpt lat="44.10832" lon="6.32089">
        <ele>1118.4000244141</ele>
        <time>2017-05-25T12:16:02.000Z</time>
      </trkpt>
      <trkpt lat="44.10849" lon="6.32103">
        <ele>1117.1999511719</ele>
        <time>2017-05-25T12:16:09.000Z</time>
      </trkpt>
      <trkpt lat="44.10866" lon="6.32112">
        <ele>1116</ele>
        <time>2017-05-25T12:19:28.000Z</time>
      </trkpt>
      <trkpt lat="44.10882" lon="6.321">
        <ele>1113.8000488281</ele>
        <time>2017-05-25T12:20:38.000Z</time>
      </trkpt>
      <trkpt lat="44.10897" lon="6.32084">
        <ele>1110.5999755859</ele>
        <time>2017-05-25T12:20:47.000Z</time>
      </trkpt>
      <trkpt lat="44.10912" lon="6.32065">
        <ele>1106.5999755859</ele>
        <time>2017-05-25T12:20:54.000Z</time>
      </trkpt>
      <trkpt lat="44.10921" lon="6.32059">
        <ele>1105.1999511719</ele>
        <time>2017-05-25T12:20:57.000Z</time>
      </trkpt>
      <trkpt lat="44.10936" lon="6.32073">
        <ele>1106</ele>
        <time>2017-05-25T12:21:01.000Z</time>
      </trkpt>
      <trkpt lat="44.10954" lon="6.32094">
        <ele>1107.4000244141</ele>
        <time>2017-05-25T12:21:05.000Z</time>
      </trkpt>
      <trkpt lat="44.10959" lon="6.32099">
        <ele>1107.4000244141</ele>
        <time>2017-05-25T12:21:06.000Z</time>
      </trkpt>
      <trkpt lat="44.10978" lon="6.32109">
        <ele>1106.5999755859</ele>
        <time>2017-05-25T12:21:09.000Z</time>
      </trkpt>
      <trkpt lat="44.10985" lon="6.32112">
        <ele>1106</ele>
        <time>2017-05-25T12:21:10.000Z</time>
      </trkpt>
      <trkpt lat="44.10998" lon="6.32117">
        <ele>1105.1999511719</ele>
        <time>2017-05-25T12:21:12.000Z</time>
      </trkpt>
      <trkpt lat="44.11014" lon="6.3212">
        <ele>1104</ele>
        <time>2017-05-25T12:21:15.000Z</time>
      </trkpt>
      <trkpt lat="44.11034" lon="6.32115">
        <ele>1099.4000244141</ele>
        <time>2017-05-25T12:21:19.000Z</time>
      </trkpt>
      <trkpt lat="44.11039" lon="6.32112">
        <ele>1097.4000244141</ele>
        <time>2017-05-25T12:21:20.000Z</time>
      </trkpt>
      <trkpt lat="44.11044" lon="6.32109">
        <ele>1095.1999511719</ele>
        <time>2017-05-25T12:21:21.000Z</time>
      </trkpt>
      <trkpt lat="44.11063" lon="6.32115">
        <ele>1090.1999511719</ele>
        <time>2017-05-25T12:21:26.000Z</time>
      </trkpt>
      <trkpt lat="44.11062" lon="6.32147">
        <ele>1094.8000488281</ele>
        <time>2017-05-25T12:21:30.000Z</time>
      </trkpt>
      <trkpt lat="44.1106" lon="6.32156">
        <ele>1095.4000244141</ele>
        <time>2017-05-25T12:21:31.000Z</time>
      </trkpt>
      <trkpt lat="44.11058" lon="6.32174">
        <ele>1096.5999755859</ele>
        <time>2017-05-25T12:21:33.000Z</time>
      </trkpt>
      <trkpt lat="44.11058" lon="6.322">
        <ele>1096</ele>
        <time>2017-05-25T12:21:36.000Z</time>
      </trkpt>
      <trkpt lat="44.11058" lon="6.32209">
        <ele>1096</ele>
        <time>2017-05-25T12:21:37.000Z</time>
      </trkpt>
      <trkpt lat="44.11058" lon="6.32233">
        <ele>1095.4000244141</ele>
        <time>2017-05-25T12:21:40.000Z</time>
      </trkpt>
      <trkpt lat="44.11051" lon="6.32258">
        <ele>1098.8000488281</ele>
        <time>2017-05-25T12:21:46.000Z</time>
      </trkpt>
      <trkpt lat="44.11067" lon="6.32272">
        <ele>1095.4000244141</ele>
        <time>2017-05-25T12:21:53.000Z</time>
      </trkpt>
      <trkpt lat="44.11074" lon="6.32286">
        <ele>1094</ele>
        <time>2017-05-25T12:21:56.000Z</time>
      </trkpt>
      <trkpt lat="44.11078" lon="6.3229">
        <ele>1093.4000244141</ele>
        <time>2017-05-25T12:21:57.000Z</time>
      </trkpt>
      <trkpt lat="44.11099" lon="6.32287">
        <ele>1087.5999755859</ele>
        <time>2017-05-25T12:22:01.000Z</time>
      </trkpt>
      <trkpt lat="44.11117" lon="6.32297">
        <ele>1084</ele>
        <time>2017-05-25T12:22:06.000Z</time>
      </trkpt>
      <trkpt lat="44.11124" lon="6.32302">
        <ele>1083.1999511719</ele>
        <time>2017-05-25T12:22:09.000Z</time>
      </trkpt>
      <trkpt lat="44.11136" lon="6.3231">
        <ele>1081.8000488281</ele>
        <time>2017-05-25T12:24:21.000Z</time>
      </trkpt>
      <trkpt lat="44.1115" lon="6.32334">
        <ele>1078.4000244141</ele>
        <time>2017-05-25T12:24:26.000Z</time>
      </trkpt>
      <trkpt lat="44.11156" lon="6.32359">
        <ele>1075.5999755859</ele>
        <time>2017-05-25T12:24:30.000Z</time>
      </trkpt>
      <trkpt lat="44.11171" lon="6.3237">
        <ele>1072.4000244141</ele>
        <time>2017-05-25T12:24:35.000Z</time>
      </trkpt>
      <trkpt lat="44.11174" lon="6.32369">
        <ele>1072</ele>
        <time>2017-05-25T12:24:36.000Z</time>
      </trkpt>
      <trkpt lat="44.1118" lon="6.32369">
        <ele>1071</ele>
        <time>2017-05-25T12:24:38.000Z</time>
      </trkpt>
      <trkpt lat="44.112" lon="6.32375">
        <ele>1068.5999755859</ele>
        <time>2017-05-25T12:24:43.000Z</time>
      </trkpt>
      <trkpt lat="44.11208" lon="6.32374">
        <ele>1068.5999755859</ele>
        <time>2017-05-25T12:24:45.000Z</time>
      </trkpt>
      <trkpt lat="44.11227" lon="6.32374">
        <ele>1068.1999511719</ele>
        <time>2017-05-25T12:24:52.000Z</time>
      </trkpt>
      <trkpt lat="44.11247" lon="6.3237">
        <ele>1068.1999511719</ele>
        <time>2017-05-25T12:24:58.000Z</time>
      </trkpt>
      <trkpt lat="44.11266" lon="6.32362">
        <ele>1069.8000488281</ele>
        <time>2017-05-25T12:25:04.000Z</time>
      </trkpt>
      <trkpt lat="44.11272" lon="6.32362">
        <ele>1070</ele>
        <time>2017-05-25T12:25:06.000Z</time>
      </trkpt>
      <trkpt lat="44.11283" lon="6.32359">
        <ele>1069.1999511719</ele>
        <time>2017-05-25T12:25:10.000Z</time>
      </trkpt>
      <trkpt lat="44.11298" lon="6.32348">
        <ele>1067.8000488281</ele>
        <time>2017-05-25T12:25:16.000Z</time>
      </trkpt>
      <trkpt lat="44.1131" lon="6.32348">
        <ele>1065.5999755859</ele>
        <time>2017-05-25T12:25:20.000Z</time>
      </trkpt>
      <trkpt lat="44.11323" lon="6.32333">
        <ele>1070.1999511719</ele>
        <time>2017-05-25T12:25:26.000Z</time>
      </trkpt>
      <trkpt lat="44.1133" lon="6.32328">
        <ele>1071.4000244141</ele>
        <time>2017-05-25T12:25:29.000Z</time>
      </trkpt>
      <trkpt lat="44.11337" lon="6.32328">
        <ele>1071.4000244141</ele>
        <time>2017-05-25T12:25:33.000Z</time>
      </trkpt>
      <trkpt lat="44.11342" lon="6.32314">
        <ele>1076</ele>
        <time>2017-05-25T12:25:38.000Z</time>
      </trkpt>
      <trkpt lat="44.11345" lon="6.32309">
        <ele>1075.8000488281</ele>
        <time>2017-05-25T12:25:40.000Z</time>
      </trkpt>
      <trkpt lat="44.11355" lon="6.32311">
        <ele>1075.8000488281</ele>
        <time>2017-05-25T12:25:45.000Z</time>
      </trkpt>
      <trkpt lat="44.11374" lon="6.32309">
        <ele>1073.8000488281</ele>
        <time>2017-05-25T12:25:55.000Z</time>
      </trkpt>
      <trkpt lat="44.11392" lon="6.32308">
        <ele>1070.8000488281</ele>
        <time>2017-05-25T12:26:05.000Z</time>
      </trkpt>
      <trkpt lat="44.114" lon="6.32311">
        <ele>1069.5999755859</ele>
        <time>2017-05-25T12:26:27.000Z</time>
      </trkpt>
      <trkpt lat="44.11397" lon="6.32331">
        <ele>1067.5999755859</ele>
        <time>2017-05-25T12:26:32.000Z</time>
      </trkpt>
      <trkpt lat="44.11394" lon="6.3234">
        <ele>1066.8000488281</ele>
        <time>2017-05-25T12:26:34.000Z</time>
      </trkpt>
      <trkpt lat="44.11393" lon="6.32362">
        <ele>1060.8000488281</ele>
        <time>2017-05-25T12:26:41.000Z</time>
      </trkpt>
      <trkpt lat="44.11406" lon="6.32381">
        <ele>1054.8000488281</ele>
        <time>2017-05-25T12:26:45.000Z</time>
      </trkpt>
      <trkpt lat="44.11415" lon="6.32389">
        <ele>1052.4000244141</ele>
        <time>2017-05-25T12:26:48.000Z</time>
      </trkpt>
      <trkpt lat="44.11431" lon="6.32404">
        <ele>1047.8000488281</ele>
        <time>2017-05-25T12:26:51.000Z</time>
      </trkpt>
      <trkpt lat="44.11449" lon="6.3242">
        <ele>1042.5999755859</ele>
        <time>2017-05-25T12:26:55.000Z</time>
      </trkpt>
      <trkpt lat="44.11466" lon="6.32433">
        <ele>1037.4000244141</ele>
        <time>2017-05-25T12:27:04.000Z</time>
      </trkpt>
      <trkpt lat="44.11478" lon="6.3244">
        <ele>1034.5999755859</ele>
        <time>2017-05-25T12:27:25.000Z</time>
      </trkpt>
      <trkpt lat="44.11489" lon="6.32453">
        <ele>1029.8000488281</ele>
        <time>2017-05-25T12:27:34.000Z</time>
      </trkpt>
      <trkpt lat="44.11491" lon="6.32454">
        <ele>1029.4000244141</ele>
        <time>2017-05-25T12:27:35.000Z</time>
      </trkpt>
      <trkpt lat="44.11501" lon="6.32452">
        <ele>1029.1999511719</ele>
        <time>2017-05-25T12:27:39.000Z</time>
      </trkpt>
      <trkpt lat="44.11515" lon="6.3246">
        <ele>1025</ele>
        <time>2017-05-25T12:27:49.000Z</time>
      </trkpt>
      <trkpt lat="44.11532" lon="6.32448">
        <ele>1023</ele>
        <time>2017-05-25T12:27:55.000Z</time>
      </trkpt>
      <trkpt lat="44.11547" lon="6.32439">
        <ele>1019.799987793</ele>
        <time>2017-05-25T12:27:58.000Z</time>
      </trkpt>
      <trkpt lat="44.1156" lon="6.32437">
        <ele>1016</ele>
        <time>2017-05-25T12:28:03.000Z</time>
      </trkpt>
      <trkpt lat="44.11574" lon="6.32415">
        <ele>1018.200012207</ele>
        <time>2017-05-25T12:28:14.000Z</time>
      </trkpt>
      <trkpt lat="44.11586" lon="6.32396">
        <ele>1020.4000244141</ele>
        <time>2017-05-25T12:28:19.000Z</time>
      </trkpt>
      <trkpt lat="44.11593" lon="6.32394">
        <ele>1018.799987793</ele>
        <time>2017-05-25T12:28:35.000Z</time>
      </trkpt>
      <trkpt lat="44.11598" lon="6.32413">
        <ele>1013.4000244141</ele>
        <time>2017-05-25T12:28:39.000Z</time>
      </trkpt>
      <trkpt lat="44.11615" lon="6.32423">
        <ele>1007.799987793</ele>
        <time>2017-05-25T12:28:44.000Z</time>
      </trkpt>
      <trkpt lat="44.11626" lon="6.32423">
        <ele>1006.5999755859</ele>
        <time>2017-05-25T12:28:48.000Z</time>
      </trkpt>
      <trkpt lat="44.11645" lon="6.32423">
        <ele>1004.4000244141</ele>
        <time>2017-05-25T12:28:56.000Z</time>
      </trkpt>
      <trkpt lat="44.11657" lon="6.32427">
        <ele>1002.200012207</ele>
        <time>2017-05-25T12:29:03.000Z</time>
      </trkpt>
      <trkpt lat="44.11661" lon="6.32421">
        <ele>1003.5999755859</ele>
        <time>2017-05-25T12:29:05.000Z</time>
      </trkpt>
      <trkpt lat="44.11661" lon="6.32393">
        <ele>1010.200012207</ele>
        <time>2017-05-25T12:29:10.000Z</time>
      </trkpt>
      <trkpt lat="44.11662" lon="6.32381">
        <ele>1010.4000244141</ele>
        <time>2017-05-25T12:29:12.000Z</time>
      </trkpt>
      <trkpt lat="44.11667" lon="6.32359">
        <ele>1010.4000244141</ele>
        <time>2017-05-25T12:29:16.000Z</time>
      </trkpt>
      <trkpt lat="44.11685" lon="6.32355">
        <ele>1008.799987793</ele>
        <time>2017-05-25T12:29:22.000Z</time>
      </trkpt>
      <trkpt lat="44.11701" lon="6.32343">
        <ele>1005.799987793</ele>
        <time>2017-05-25T12:29:28.000Z</time>
      </trkpt>
      <trkpt lat="44.11705" lon="6.3234">
        <ele>1004.5999755859</ele>
        <time>2017-05-25T12:29:29.000Z</time>
      </trkpt>
      <trkpt lat="44.11723" lon="6.32334">
        <ele>1000.5999755859</ele>
        <time>2017-05-25T12:29:33.000Z</time>
      </trkpt>
      <trkpt lat="44.11742" lon="6.32328">
        <ele>999.40002441406</ele>
        <time>2017-05-25T12:29:36.000Z</time>
      </trkpt>
      <trkpt lat="44.11759" lon="6.32326">
        <ele>997.59997558594</ele>
        <time>2017-05-25T12:29:40.000Z</time>
      </trkpt>
      <trkpt lat="44.11779" lon="6.32319">
        <ele>996.20001220703</ele>
        <time>2017-05-25T12:29:44.000Z</time>
      </trkpt>
      <trkpt lat="44.11783" lon="6.32314">
        <ele>996.40002441406</ele>
        <time>2017-05-25T12:29:45.000Z</time>
      </trkpt>
      <trkpt lat="44.11785" lon="6.32312">
        <ele>996</ele>
        <time>2017-05-25T12:29:46.000Z</time>
      </trkpt>
      <trkpt lat="44.1179" lon="6.32306">
        <ele>994.40002441406</ele>
        <time>2017-05-25T12:31:14.000Z</time>
      </trkpt>
      <trkpt lat="44.11812" lon="6.32291">
        <ele>989</ele>
        <time>2017-05-25T12:31:17.000Z</time>
      </trkpt>
      <trkpt lat="44.11825" lon="6.32275">
        <ele>986.20001220703</ele>
        <time>2017-05-25T12:31:21.000Z</time>
      </trkpt>
      <trkpt lat="44.11828" lon="6.32268">
        <ele>987.40002441406</ele>
        <time>2017-05-25T12:31:22.000Z</time>
      </trkpt>
      <trkpt lat="44.11841" lon="6.32247">
        <ele>991.20001220703</ele>
        <time>2017-05-25T12:31:27.000Z</time>
      </trkpt>
      <trkpt lat="44.11855" lon="6.3223">
        <ele>993.40002441406</ele>
        <time>2017-05-25T12:31:32.000Z</time>
      </trkpt>
      <trkpt lat="44.11871" lon="6.32217">
        <ele>990.20001220703</ele>
        <time>2017-05-25T12:31:39.000Z</time>
      </trkpt>
      <trkpt lat="44.11888" lon="6.32205">
        <ele>985.59997558594</ele>
        <time>2017-05-25T12:31:48.000Z</time>
      </trkpt>
      <trkpt lat="44.1189" lon="6.32201">
        <ele>985.20001220703</ele>
        <time>2017-05-25T12:31:49.000Z</time>
      </trkpt>
      <trkpt lat="44.11885" lon="6.32181">
        <ele>987.40002441406</ele>
        <time>2017-05-25T12:31:56.000Z</time>
      </trkpt>
      <trkpt lat="44.11874" lon="6.32159">
        <ele>991.59997558594</ele>
        <time>2017-05-25T12:32:04.000Z</time>
      </trkpt>
      <trkpt lat="44.11868" lon="6.32134">
        <ele>993.59997558594</ele>
        <time>2017-05-25T12:34:59.000Z</time>
      </trkpt>
      <trkpt lat="44.11864" lon="6.32113">
        <ele>992.40002441406</ele>
        <time>2017-05-25T12:35:07.000Z</time>
      </trkpt>
      <trkpt lat="44.11861" lon="6.32109">
        <ele>992.59997558594</ele>
        <time>2017-05-25T12:37:51.000Z</time>
      </trkpt>
      <trkpt lat="44.11867" lon="6.32132">
        <ele>993.59997558594</ele>
        <time>2017-05-25T12:39:09.000Z</time>
      </trkpt>
      <trkpt lat="44.11871" lon="6.32135">
        <ele>993.20001220703</ele>
        <time>2017-05-25T12:39:11.000Z</time>
      </trkpt>
      <trkpt lat="44.11884" lon="6.3213">
        <ele>990.59997558594</ele>
        <time>2017-05-25T12:39:16.000Z</time>
      </trkpt>
      <trkpt lat="44.11901" lon="6.32135">
        <ele>988.20001220703</ele>
        <time>2017-05-25T12:40:13.000Z</time>
      </trkpt>
      <trkpt lat="44.11912" lon="6.32128">
        <ele>985.79998779297</ele>
        <time>2017-05-25T12:40:39.000Z</time>
      </trkpt>
      <trkpt lat="44.11922" lon="6.32129">
        <ele>984</ele>
        <time>2017-05-25T12:41:20.000Z</time>
      </trkpt>
      <trkpt lat="44.11931" lon="6.32121">
        <ele>982.59997558594</ele>
        <time>2017-05-25T12:41:24.000Z</time>
      </trkpt>
      <trkpt lat="44.11946" lon="6.32105">
        <ele>979.79998779297</ele>
        <time>2017-05-25T12:41:30.000Z</time>
      </trkpt>
      <trkpt lat="44.11958" lon="6.32088">
        <ele>976.20001220703</ele>
        <time>2017-05-25T12:41:35.000Z</time>
      </trkpt>
      <trkpt lat="44.11976" lon="6.32094">
        <ele>972.20001220703</ele>
        <time>2017-05-25T12:42:16.000Z</time>
      </trkpt>
      <trkpt lat="44.11979" lon="6.32096">
        <ele>971.59997558594</ele>
        <time>2017-05-25T12:42:17.000Z</time>
      </trkpt>
      <trkpt lat="44.11997" lon="6.32106">
        <ele>968.40002441406</ele>
        <time>2017-05-25T12:42:25.000Z</time>
      </trkpt>
      <trkpt lat="44.12016" lon="6.32107">
        <ele>965.79998779297</ele>
        <time>2017-05-25T12:42:34.000Z</time>
      </trkpt>
      <trkpt lat="44.12023" lon="6.32112">
        <ele>964.40002441406</ele>
        <time>2017-05-25T12:42:37.000Z</time>
      </trkpt>
      <trkpt lat="44.12034" lon="6.32134">
        <ele>961.40002441406</ele>
        <time>2017-05-25T12:42:43.000Z</time>
      </trkpt>
      <trkpt lat="44.12042" lon="6.32145">
        <ele>959.79998779297</ele>
        <time>2017-05-25T12:42:48.000Z</time>
      </trkpt>
      <trkpt lat="44.12059" lon="6.32155">
        <ele>956.40002441406</ele>
        <time>2017-05-25T12:42:54.000Z</time>
      </trkpt>
      <trkpt lat="44.12063" lon="6.32159">
        <ele>955.40002441406</ele>
        <time>2017-05-25T12:42:55.000Z</time>
      </trkpt>
      <trkpt lat="44.12079" lon="6.32173">
        <ele>951.40002441406</ele>
        <time>2017-05-25T12:42:58.000Z</time>
      </trkpt>
      <trkpt lat="44.12099" lon="6.32175">
        <ele>949</ele>
        <time>2017-05-25T12:43:02.000Z</time>
      </trkpt>
      <trkpt lat="44.12111" lon="6.32179">
        <ele>947.40002441406</ele>
        <time>2017-05-25T12:43:05.000Z</time>
      </trkpt>
      <trkpt lat="44.1213" lon="6.32185">
        <ele>947.79998779297</ele>
        <time>2017-05-25T12:43:12.000Z</time>
      </trkpt>
      <trkpt lat="44.12147" lon="6.32195">
        <ele>947.59997558594</ele>
        <time>2017-05-25T12:43:19.000Z</time>
      </trkpt>
      <trkpt lat="44.1215" lon="6.32198">
        <ele>947.20001220703</ele>
        <time>2017-05-25T12:43:20.000Z</time>
      </trkpt>
      <trkpt lat="44.12164" lon="6.32195">
        <ele>948.79998779297</ele>
        <time>2017-05-25T12:43:26.000Z</time>
      </trkpt>
      <trkpt lat="44.12165" lon="6.3219">
        <ele>949.59997558594</ele>
        <time>2017-05-25T12:43:46.000Z</time>
      </trkpt>
      <trkpt lat="44.12164" lon="6.32166">
        <ele>953.59997558594</ele>
        <time>2017-05-25T12:45:14.000Z</time>
      </trkpt>
      <trkpt lat="44.12154" lon="6.32148">
        <ele>956</ele>
        <time>2017-05-25T12:45:19.000Z</time>
      </trkpt>
      <trkpt lat="44.12143" lon="6.32121">
        <ele>956.20001220703</ele>
        <time>2017-05-25T12:45:23.000Z</time>
      </trkpt>
      <trkpt lat="44.1214" lon="6.32114">
        <ele>956.20001220703</ele>
        <time>2017-05-25T12:45:24.000Z</time>
      </trkpt>
      <trkpt lat="44.12127" lon="6.32091">
        <ele>956.20001220703</ele>
        <time>2017-05-25T12:45:28.000Z</time>
      </trkpt>
      <trkpt lat="44.12124" lon="6.32086">
        <ele>956.20001220703</ele>
        <time>2017-05-25T12:45:29.000Z</time>
      </trkpt>
      <trkpt lat="44.1211" lon="6.32068">
        <ele>955.79998779297</ele>
        <time>2017-05-25T12:45:33.000Z</time>
      </trkpt>
      <trkpt lat="44.121" lon="6.3205">
        <ele>956.40002441406</ele>
        <time>2017-05-25T12:45:36.000Z</time>
      </trkpt>
      <trkpt lat="44.12094" lon="6.32019">
        <ele>955.40002441406</ele>
        <time>2017-05-25T12:45:40.000Z</time>
      </trkpt>
      <trkpt lat="44.12093" lon="6.32013">
        <ele>955.20001220703</ele>
        <time>2017-05-25T12:45:41.000Z</time>
      </trkpt>
      <trkpt lat="44.12084" lon="6.31989">
        <ele>955</ele>
        <time>2017-05-25T12:45:47.000Z</time>
      </trkpt>
      <trkpt lat="44.12077" lon="6.31965">
        <ele>953.20001220703</ele>
        <time>2017-05-25T12:45:56.000Z</time>
      </trkpt>
      <trkpt lat="44.12066" lon="6.31945">
        <ele>951.79998779297</ele>
        <time>2017-05-25T12:46:06.000Z</time>
      </trkpt>
      <trkpt lat="44.12048" lon="6.31932">
        <ele>952.20001220703</ele>
        <time>2017-05-25T12:46:12.000Z</time>
      </trkpt>
      <trkpt lat="44.12033" lon="6.31916">
        <ele>951.79998779297</ele>
        <time>2017-05-25T12:46:17.000Z</time>
      </trkpt>
      <trkpt lat="44.1202" lon="6.31894">
        <ele>951.59997558594</ele>
        <time>2017-05-25T12:46:23.000Z</time>
      </trkpt>
      <trkpt lat="44.12008" lon="6.31874">
        <ele>953.40002441406</ele>
        <time>2017-05-25T12:46:29.000Z</time>
      </trkpt>
      <trkpt lat="44.11993" lon="6.31861">
        <ele>956.40002441406</ele>
        <time>2017-05-25T12:46:36.000Z</time>
      </trkpt>
      <trkpt lat="44.11983" lon="6.31836">
        <ele>957.20001220703</ele>
        <time>2017-05-25T12:46:42.000Z</time>
      </trkpt>
      <trkpt lat="44.11978" lon="6.31811">
        <ele>956.20001220703</ele>
        <time>2017-05-25T12:46:51.000Z</time>
      </trkpt>
      <trkpt lat="44.11978" lon="6.31785">
        <ele>950.59997558594</ele>
        <time>2017-05-25T12:46:59.000Z</time>
      </trkpt>
      <trkpt lat="44.11968" lon="6.31765">
        <ele>948.40002441406</ele>
        <time>2017-05-25T12:47:10.000Z</time>
      </trkpt>
      <trkpt lat="44.1195" lon="6.31758">
        <ele>951.79998779297</ele>
        <time>2017-05-25T12:47:16.000Z</time>
      </trkpt>
      <trkpt lat="44.11932" lon="6.31751">
        <ele>953.40002441406</ele>
        <time>2017-05-25T12:47:21.000Z</time>
      </trkpt>
      <trkpt lat="44.11924" lon="6.31748">
        <ele>954</ele>
        <time>2017-05-25T12:47:24.000Z</time>
      </trkpt>
      <trkpt lat="44.11906" lon="6.31748">
        <ele>956.40002441406</ele>
        <time>2017-05-25T12:47:31.000Z</time>
      </trkpt>
      <trkpt lat="44.11903" lon="6.31745">
        <ele>956.20001220703</ele>
        <time>2017-05-25T12:47:32.000Z</time>
      </trkpt>
      <trkpt lat="44.11891" lon="6.31734">
        <ele>955.59997558594</ele>
        <time>2017-05-25T12:47:38.000Z</time>
      </trkpt>
      <trkpt lat="44.11891" lon="6.31709">
        <ele>955</ele>
        <time>2017-05-25T12:47:48.000Z</time>
      </trkpt>
      <trkpt lat="44.11889" lon="6.31684">
        <ele>956</ele>
        <time>2017-05-25T12:48:13.000Z</time>
      </trkpt>
      <trkpt lat="44.11884" lon="6.31662">
        <ele>956.40002441406</ele>
        <time>2017-05-25T12:48:27.000Z</time>
      </trkpt>
      <trkpt lat="44.11871" lon="6.31652">
        <ele>958.59997558594</ele>
        <time>2017-05-25T12:48:36.000Z</time>
      </trkpt>
      <trkpt lat="44.11863" lon="6.31639">
        <ele>960.40002441406</ele>
        <time>2017-05-25T12:48:52.000Z</time>
      </trkpt>
      <trkpt lat="44.11871" lon="6.31618">
        <ele>958.79998779297</ele>
        <time>2017-05-25T12:49:17.000Z</time>
      </trkpt>
      <trkpt lat="44.11867" lon="6.31599">
        <ele>959.79998779297</ele>
        <time>2017-05-25T12:49:28.000Z</time>
      </trkpt>
      <trkpt lat="44.11856" lon="6.31577">
        <ele>962.59997558594</ele>
        <time>2017-05-25T12:49:43.000Z</time>
      </trkpt>
      <trkpt lat="44.11835" lon="6.3157">
        <ele>965.59997558594</ele>
        <time>2017-05-25T12:49:50.000Z</time>
      </trkpt>
      <trkpt lat="44.1182" lon="6.31566">
        <ele>967.79998779297</ele>
        <time>2017-05-25T12:49:53.000Z</time>
      </trkpt>
      <trkpt lat="44.11808" lon="6.31547">
        <ele>968</ele>
        <time>2017-05-25T12:49:58.000Z</time>
      </trkpt>
      <trkpt lat="44.11808" lon="6.3154">
        <ele>967.20001220703</ele>
        <time>2017-05-25T12:50:00.000Z</time>
      </trkpt>
      <trkpt lat="44.11813" lon="6.31514">
        <ele>964.20001220703</ele>
        <time>2017-05-25T12:50:09.000Z</time>
      </trkpt>
      <trkpt lat="44.11814" lon="6.3149">
        <ele>961.59997558594</ele>
        <time>2017-05-25T12:50:19.000Z</time>
      </trkpt>
      <trkpt lat="44.11799" lon="6.3147">
        <ele>961.79998779297</ele>
        <time>2017-05-25T12:50:26.000Z</time>
      </trkpt>
      <trkpt lat="44.11789" lon="6.31465">
        <ele>962.59997558594</ele>
        <time>2017-05-25T12:50:28.000Z</time>
      </trkpt>
      <trkpt lat="44.11773" lon="6.31449">
        <ele>962.59997558594</ele>
        <time>2017-05-25T12:50:31.000Z</time>
      </trkpt>
      <trkpt lat="44.11772" lon="6.31439">
        <ele>961.59997558594</ele>
        <time>2017-05-25T12:50:32.000Z</time>
      </trkpt>
      <trkpt lat="44.11768" lon="6.31425">
        <ele>960</ele>
        <time>2017-05-25T12:50:34.000Z</time>
      </trkpt>
      <trkpt lat="44.11761" lon="6.31414">
        <ele>958.59997558594</ele>
        <time>2017-05-25T12:50:38.000Z</time>
      </trkpt>
      <trkpt lat="44.11747" lon="6.31396">
        <ele>956.59997558594</ele>
        <time>2017-05-25T12:50:47.000Z</time>
      </trkpt>
      <trkpt lat="44.11729" lon="6.31383">
        <ele>955</ele>
        <time>2017-05-25T12:50:54.000Z</time>
      </trkpt>
      <trkpt lat="44.11729" lon="6.3137">
        <ele>953.59997558594</ele>
        <time>2017-05-25T13:03:51.000Z</time>
      </trkpt>
      <trkpt lat="44.11748" lon="6.31361">
        <ele>953.20001220703</ele>
        <time>2017-05-25T13:03:59.000Z</time>
      </trkpt>
      <trkpt lat="44.11762" lon="6.31345">
        <ele>953</ele>
        <time>2017-05-25T13:04:05.000Z</time>
      </trkpt>
      <trkpt lat="44.11771" lon="6.31322">
        <ele>952.20001220703</ele>
        <time>2017-05-25T13:04:12.000Z</time>
      </trkpt>
      <trkpt lat="44.11775" lon="6.31297">
        <ele>952</ele>
        <time>2017-05-25T13:04:20.000Z</time>
      </trkpt>
      <trkpt lat="44.11777" lon="6.31272">
        <ele>952.40002441406</ele>
        <time>2017-05-25T13:04:30.000Z</time>
      </trkpt>
      <trkpt lat="44.11789" lon="6.31251">
        <ele>952.79998779297</ele>
        <time>2017-05-25T13:04:39.000Z</time>
      </trkpt>
      <trkpt lat="44.11806" lon="6.31244">
        <ele>954.40002441406</ele>
        <time>2017-05-25T13:04:47.000Z</time>
      </trkpt>
      <trkpt lat="44.11823" lon="6.31252">
        <ele>955.20001220703</ele>
        <time>2017-05-25T13:04:55.000Z</time>
      </trkpt>
      <trkpt lat="44.11828" lon="6.31254">
        <ele>955.40002441406</ele>
        <time>2017-05-25T13:04:58.000Z</time>
      </trkpt>
      <trkpt lat="44.11829" lon="6.31246">
        <ele>956.40002441406</ele>
        <time>2017-05-25T13:05:03.000Z</time>
      </trkpt>
      <trkpt lat="44.11819" lon="6.31223">
        <ele>958</ele>
        <time>2017-05-25T13:05:14.000Z</time>
      </trkpt>
      <trkpt lat="44.11814" lon="6.31205">
        <ele>959.59997558594</ele>
        <time>2017-05-25T13:05:23.000Z</time>
      </trkpt>
      <trkpt lat="44.11811" lon="6.31196">
        <ele>960.40002441406</ele>
        <time>2017-05-25T13:05:28.000Z</time>
      </trkpt>
      <trkpt lat="44.11812" lon="6.3117">
        <ele>964</ele>
        <time>2017-05-25T13:05:39.000Z</time>
      </trkpt>
      <trkpt lat="44.11814" lon="6.31159">
        <ele>966</ele>
        <time>2017-05-25T13:05:44.000Z</time>
      </trkpt>
      <trkpt lat="44.1181" lon="6.3115">
        <ele>966.79998779297</ele>
        <time>2017-05-25T13:05:49.000Z</time>
      </trkpt>
      <trkpt lat="44.11801" lon="6.31148">
        <ele>966.20001220703</ele>
        <time>2017-05-25T13:05:55.000Z</time>
      </trkpt>
      <trkpt lat="44.11786" lon="6.31136">
        <ele>965.79998779297</ele>
        <time>2017-05-25T13:06:08.000Z</time>
      </trkpt>
      <trkpt lat="44.11775" lon="6.31115">
        <ele>967.20001220703</ele>
        <time>2017-05-25T13:06:19.000Z</time>
      </trkpt>
      <trkpt lat="44.11767" lon="6.31091">
        <ele>969.20001220703</ele>
        <time>2017-05-25T13:06:30.000Z</time>
      </trkpt>
      <trkpt lat="44.11762" lon="6.31066">
        <ele>971.79998779297</ele>
        <time>2017-05-25T13:06:41.000Z</time>
      </trkpt>
      <trkpt lat="44.11754" lon="6.31042">
        <ele>973.20001220703</ele>
        <time>2017-05-25T13:06:52.000Z</time>
      </trkpt>
      <trkpt lat="44.11749" lon="6.31016">
        <ele>975.79998779297</ele>
        <time>2017-05-25T13:07:04.000Z</time>
      </trkpt>
      <trkpt lat="44.11754" lon="6.30991">
        <ele>980.40002441406</ele>
        <time>2017-05-25T13:07:15.000Z</time>
      </trkpt>
      <trkpt lat="44.11759" lon="6.30966">
        <ele>985</ele>
        <time>2017-05-25T13:07:27.000Z</time>
      </trkpt>
      <trkpt lat="44.11753" lon="6.30942">
        <ele>986.40002441406</ele>
        <time>2017-05-25T13:07:38.000Z</time>
      </trkpt>
      <trkpt lat="44.11745" lon="6.30918">
        <ele>987.20001220703</ele>
        <time>2017-05-25T13:07:51.000Z</time>
      </trkpt>
      <trkpt lat="44.11742" lon="6.30909">
        <ele>987.59997558594</ele>
        <time>2017-05-25T13:07:56.000Z</time>
      </trkpt>
      <trkpt lat="44.11739" lon="6.30896">
        <ele>988.20001220703</ele>
        <time>2017-05-25T13:08:02.000Z</time>
      </trkpt>
      <trkpt lat="44.11733" lon="6.30872">
        <ele>988.79998779297</ele>
        <time>2017-05-25T13:08:14.000Z</time>
      </trkpt>
      <trkpt lat="44.11731" lon="6.30862">
        <ele>989.20001220703</ele>
        <time>2017-05-25T13:08:20.000Z</time>
      </trkpt>
      <trkpt lat="44.11731" lon="6.30856">
        <ele>989.79998779297</ele>
        <time>2017-05-25T13:08:23.000Z</time>
      </trkpt>
      <trkpt lat="44.11742" lon="6.30838">
        <ele>993.59997558594</ele>
        <time>2017-05-25T13:08:35.000Z</time>
      </trkpt>
      <trkpt lat="44.11759" lon="6.30827">
        <ele>998</ele>
        <time>2017-05-25T13:08:48.000Z</time>
      </trkpt>
      <trkpt lat="44.11776" lon="6.30814">
        <ele>1002.5999755859</ele>
        <time>2017-05-25T13:09:02.000Z</time>
      </trkpt>
      <trkpt lat="44.11792" lon="6.30802">
        <ele>1007.5999755859</ele>
        <time>2017-05-25T13:09:14.000Z</time>
      </trkpt>
      <trkpt lat="44.11799" lon="6.30798">
        <ele>1009.5999755859</ele>
        <time>2017-05-25T13:09:20.000Z</time>
      </trkpt>
      <trkpt lat="44.11804" lon="6.30791">
        <ele>1011.200012207</ele>
        <time>2017-05-25T13:09:25.000Z</time>
      </trkpt>
      <trkpt lat="44.11804" lon="6.30788">
        <ele>1011.5999755859</ele>
        <time>2017-05-25T13:09:27.000Z</time>
      </trkpt>
      <trkpt lat="44.11793" lon="6.30767">
        <ele>1011</ele>
        <time>2017-05-25T13:09:40.000Z</time>
      </trkpt>
      <trkpt lat="44.11787" lon="6.30745">
        <ele>1012</ele>
        <time>2017-05-25T13:10:32.000Z</time>
      </trkpt>
      <trkpt lat="44.11788" lon="6.3072">
        <ele>1015.4000244141</ele>
        <time>2017-05-25T13:10:41.000Z</time>
      </trkpt>
      <trkpt lat="44.1179" lon="6.30693">
        <ele>1020.5999755859</ele>
        <time>2017-05-25T13:10:51.000Z</time>
      </trkpt>
      <trkpt lat="44.11795" lon="6.30669">
        <ele>1026.1999511719</ele>
        <time>2017-05-25T13:11:00.000Z</time>
      </trkpt>
      <trkpt lat="44.11792" lon="6.30657">
        <ele>1027.4000244141</ele>
        <time>2017-05-25T13:11:05.000Z</time>
      </trkpt>
      <trkpt lat="44.11779" lon="6.30655">
        <ele>1024.8000488281</ele>
        <time>2017-05-25T13:11:12.000Z</time>
      </trkpt>
      <trkpt lat="44.11763" lon="6.30659">
        <ele>1021.200012207</ele>
        <time>2017-05-25T13:11:20.000Z</time>
      </trkpt>
      <trkpt lat="44.11757" lon="6.30658">
        <ele>1020.200012207</ele>
        <time>2017-05-25T13:11:24.000Z</time>
      </trkpt>
      <trkpt lat="44.11741" lon="6.30649">
        <ele>1018.799987793</ele>
        <time>2017-05-25T13:11:37.000Z</time>
      </trkpt>
      <trkpt lat="44.11729" lon="6.30628">
        <ele>1018.4000244141</ele>
        <time>2017-05-25T13:11:50.000Z</time>
      </trkpt>
      <trkpt lat="44.11721" lon="6.30605">
        <ele>1018.799987793</ele>
        <time>2017-05-25T13:12:02.000Z</time>
      </trkpt>
      <trkpt lat="44.11727" lon="6.30581">
        <ele>1023.4000244141</ele>
        <time>2017-05-25T13:12:14.000Z</time>
      </trkpt>
      <trkpt lat="44.11728" lon="6.30554">
        <ele>1029.1999511719</ele>
        <time>2017-05-25T13:12:26.000Z</time>
      </trkpt>
      <trkpt lat="44.11725" lon="6.30529">
        <ele>1035.1999511719</ele>
        <time>2017-05-25T13:12:38.000Z</time>
      </trkpt>
      <trkpt lat="44.11724" lon="6.30504">
        <ele>1041</ele>
        <time>2017-05-25T13:12:50.000Z</time>
      </trkpt>
      <trkpt lat="44.11714" lon="6.30486">
        <ele>1041.8000488281</ele>
        <time>2017-05-25T13:13:00.000Z</time>
      </trkpt>
      <trkpt lat="44.11693" lon="6.30488">
        <ele>1036.8000488281</ele>
        <time>2017-05-25T13:13:09.000Z</time>
      </trkpt>
      <trkpt lat="44.11674" lon="6.30484">
        <ele>1035.1999511719</ele>
        <time>2017-05-25T13:13:19.000Z</time>
      </trkpt>
      <trkpt lat="44.11664" lon="6.30479">
        <ele>1034.5999755859</ele>
        <time>2017-05-25T13:13:25.000Z</time>
      </trkpt>
      <trkpt lat="44.1167" lon="6.30463">
        <ele>1035.4000244141</ele>
        <time>2017-05-25T13:13:35.000Z</time>
      </trkpt>
      <trkpt lat="44.11687" lon="6.30455">
        <ele>1040.4000244141</ele>
        <time>2017-05-25T13:13:48.000Z</time>
      </trkpt>
      <trkpt lat="44.11701" lon="6.30441">
        <ele>1045.5999755859</ele>
        <time>2017-05-25T13:14:01.000Z</time>
      </trkpt>
      <trkpt lat="44.11712" lon="6.30435">
        <ele>1048.4000244141</ele>
        <time>2017-05-25T13:14:11.000Z</time>
      </trkpt>
      <trkpt lat="44.11726" lon="6.3042">
        <ele>1053</ele>
        <time>2017-05-25T13:15:10.000Z</time>
      </trkpt>
      <trkpt lat="44.11739" lon="6.30403">
        <ele>1057.8000488281</ele>
        <time>2017-05-25T13:15:39.000Z</time>
      </trkpt>
      <trkpt lat="44.11751" lon="6.30384">
        <ele>1062.1999511719</ele>
        <time>2017-05-25T13:16:11.000Z</time>
      </trkpt>
      <trkpt lat="44.11767" lon="6.30376">
        <ele>1066</ele>
        <time>2017-05-25T13:16:45.000Z</time>
      </trkpt>
      <trkpt lat="44.11784" lon="6.30372">
        <ele>1069.1999511719</ele>
        <time>2017-05-25T13:17:12.000Z</time>
      </trkpt>
      <trkpt lat="44.118" lon="6.30385">
        <ele>1070</ele>
        <time>2017-05-25T13:17:25.000Z</time>
      </trkpt>
      <trkpt lat="44.11815" lon="6.30396">
        <ele>1071.1999511719</ele>
        <time>2017-05-25T13:17:34.000Z</time>
      </trkpt>
      <trkpt lat="44.11833" lon="6.30404">
        <ele>1072.8000488281</ele>
        <time>2017-05-25T13:17:44.000Z</time>
      </trkpt>
      <trkpt lat="44.11849" lon="6.30418">
        <ele>1073.4000244141</ele>
        <time>2017-05-25T13:17:54.000Z</time>
      </trkpt>
      <trkpt lat="44.11866" lon="6.30426">
        <ele>1075.1999511719</ele>
        <time>2017-05-25T13:18:01.000Z</time>
      </trkpt>
      <trkpt lat="44.11883" lon="6.30437">
        <ele>1076.5999755859</ele>
        <time>2017-05-25T13:18:10.000Z</time>
      </trkpt>
      <trkpt lat="44.11899" lon="6.30446">
        <ele>1078.4000244141</ele>
        <time>2017-05-25T13:18:22.000Z</time>
      </trkpt>
      <trkpt lat="44.11917" lon="6.30452">
        <ele>1080.4000244141</ele>
        <time>2017-05-25T13:18:30.000Z</time>
      </trkpt>
      <trkpt lat="44.11936" lon="6.30455">
        <ele>1081</ele>
        <time>2017-05-25T13:18:40.000Z</time>
      </trkpt>
      <trkpt lat="44.11954" lon="6.30461">
        <ele>1081.8000488281</ele>
        <time>2017-05-25T13:18:51.000Z</time>
      </trkpt>
      <trkpt lat="44.11973" lon="6.30459">
        <ele>1082.5999755859</ele>
        <time>2017-05-25T13:19:01.000Z</time>
      </trkpt>
      <trkpt lat="44.1199" lon="6.30447">
        <ele>1083</ele>
        <time>2017-05-25T13:19:12.000Z</time>
      </trkpt>
      <trkpt lat="44.12002" lon="6.30429">
        <ele>1084.8000488281</ele>
        <time>2017-05-25T13:19:23.000Z</time>
      </trkpt>
      <trkpt lat="44.12003" lon="6.30422">
        <ele>1085.1999511719</ele>
        <time>2017-05-25T13:19:28.000Z</time>
      </trkpt>
      <trkpt lat="44.12" lon="6.30405">
        <ele>1085.4000244141</ele>
        <time>2017-05-25T13:22:38.000Z</time>
      </trkpt>
      <trkpt lat="44.11999" lon="6.30401">
        <ele>1085.4000244141</ele>
        <time>2017-05-25T13:22:39.000Z</time>
      </trkpt>
      <trkpt lat="44.11995" lon="6.30375">
        <ele>1082</ele>
        <time>2017-05-25T13:22:44.000Z</time>
      </trkpt>
      <trkpt lat="44.11991" lon="6.30348">
        <ele>1078.4000244141</ele>
        <time>2017-05-25T13:22:50.000Z</time>
      </trkpt>
      <trkpt lat="44.11999" lon="6.30322">
        <ele>1077.1999511719</ele>
        <time>2017-05-25T13:22:57.000Z</time>
      </trkpt>
      <trkpt lat="44.12004" lon="6.30309">
        <ele>1076.8000488281</ele>
        <time>2017-05-25T13:22:59.000Z</time>
      </trkpt>
      <trkpt lat="44.12006" lon="6.30293">
        <ele>1076.1999511719</ele>
        <time>2017-05-25T13:23:01.000Z</time>
      </trkpt>
      <trkpt lat="44.11999" lon="6.30264">
        <ele>1072.8000488281</ele>
        <time>2017-05-25T13:23:05.000Z</time>
      </trkpt>
      <trkpt lat="44.11998" lon="6.30237">
        <ele>1070.4000244141</ele>
        <time>2017-05-25T13:23:09.000Z</time>
      </trkpt>
      <trkpt lat="44.11993" lon="6.3021">
        <ele>1069.4000244141</ele>
        <time>2017-05-25T13:23:14.000Z</time>
      </trkpt>
      <trkpt lat="44.1199" lon="6.30199">
        <ele>1069</ele>
        <time>2017-05-25T13:23:18.000Z</time>
      </trkpt>
      <trkpt lat="44.11981" lon="6.30172">
        <ele>1068.4000244141</ele>
        <time>2017-05-25T13:23:26.000Z</time>
      </trkpt>
      <trkpt lat="44.11981" lon="6.30148">
        <ele>1069.1999511719</ele>
        <time>2017-05-25T13:23:32.000Z</time>
      </trkpt>
      <trkpt lat="44.11984" lon="6.30122">
        <ele>1071.5999755859</ele>
        <time>2017-05-25T13:23:40.000Z</time>
      </trkpt>
      <trkpt lat="44.11986" lon="6.30105">
        <ele>1073</ele>
        <time>2017-05-25T13:23:45.000Z</time>
      </trkpt>
      <trkpt lat="44.11976" lon="6.30088">
        <ele>1072.8000488281</ele>
        <time>2017-05-25T13:23:50.000Z</time>
      </trkpt>
      <trkpt lat="44.11966" lon="6.30067">
        <ele>1072.4000244141</ele>
        <time>2017-05-25T13:23:55.000Z</time>
      </trkpt>
      <trkpt lat="44.1196" lon="6.30045">
        <ele>1072.8000488281</ele>
        <time>2017-05-25T13:24:04.000Z</time>
      </trkpt>
      <trkpt lat="44.11955" lon="6.30035">
        <ele>1072.5999755859</ele>
        <time>2017-05-25T13:24:08.000Z</time>
      </trkpt>
      <trkpt lat="44.11946" lon="6.30011">
        <ele>1072.5999755859</ele>
        <time>2017-05-25T13:24:16.000Z</time>
      </trkpt>
      <trkpt lat="44.11945" lon="6.29986">
        <ele>1073.8000488281</ele>
        <time>2017-05-25T13:24:23.000Z</time>
      </trkpt>
      <trkpt lat="44.11954" lon="6.29962">
        <ele>1072.5999755859</ele>
        <time>2017-05-25T13:24:28.000Z</time>
      </trkpt>
      <trkpt lat="44.11964" lon="6.29935">
        <ele>1069.4000244141</ele>
        <time>2017-05-25T13:24:33.000Z</time>
      </trkpt>
      <trkpt lat="44.11972" lon="6.29905">
        <ele>1066.4000244141</ele>
        <time>2017-05-25T13:24:37.000Z</time>
      </trkpt>
      <trkpt lat="44.11977" lon="6.29886">
        <ele>1065.1999511719</ele>
        <time>2017-05-25T13:24:40.000Z</time>
      </trkpt>
      <trkpt lat="44.11985" lon="6.29862">
        <ele>1063.8000488281</ele>
        <time>2017-05-25T13:24:44.000Z</time>
      </trkpt>
      <trkpt lat="44.11986" lon="6.2983">
        <ele>1058.5999755859</ele>
        <time>2017-05-25T13:24:48.000Z</time>
      </trkpt>
      <trkpt lat="44.11985" lon="6.29819">
        <ele>1056.5999755859</ele>
        <time>2017-05-25T13:24:49.000Z</time>
      </trkpt>
      <trkpt lat="44.11983" lon="6.29809">
        <ele>1055.4000244141</ele>
        <time>2017-05-25T13:24:50.000Z</time>
      </trkpt>
      <trkpt lat="44.1198" lon="6.29792">
        <ele>1056</ele>
        <time>2017-05-25T13:24:52.000Z</time>
      </trkpt>
      <trkpt lat="44.11981" lon="6.2976">
        <ele>1057.4000244141</ele>
        <time>2017-05-25T13:24:56.000Z</time>
      </trkpt>
      <trkpt lat="44.11979" lon="6.29747">
        <ele>1056.1999511719</ele>
        <time>2017-05-25T13:24:58.000Z</time>
      </trkpt>
      <trkpt lat="44.11978" lon="6.2974">
        <ele>1055.5999755859</ele>
        <time>2017-05-25T13:24:59.000Z</time>
      </trkpt>
      <trkpt lat="44.11971" lon="6.29714">
        <ele>1053.1999511719</ele>
        <time>2017-05-25T13:25:04.000Z</time>
      </trkpt>
      <trkpt lat="44.11966" lon="6.29693">
        <ele>1051.4000244141</ele>
        <time>2017-05-25T13:25:07.000Z</time>
      </trkpt>
      <trkpt lat="44.11962" lon="6.29678">
        <ele>1050</ele>
        <time>2017-05-25T13:25:09.000Z</time>
      </trkpt>
      <trkpt lat="44.11968" lon="6.29655">
        <ele>1047.1999511719</ele>
        <time>2017-05-25T13:25:13.000Z</time>
      </trkpt>
      <trkpt lat="44.11974" lon="6.29628">
        <ele>1040.5999755859</ele>
        <time>2017-05-25T13:25:17.000Z</time>
      </trkpt>
      <trkpt lat="44.11967" lon="6.2961">
        <ele>1036.1999511719</ele>
        <time>2017-05-25T13:25:20.000Z</time>
      </trkpt>
      <trkpt lat="44.11957" lon="6.29583">
        <ele>1029.5999755859</ele>
        <time>2017-05-25T13:25:25.000Z</time>
      </trkpt>
      <trkpt lat="44.11943" lon="6.29556">
        <ele>1023</ele>
        <time>2017-05-25T13:25:29.000Z</time>
      </trkpt>
      <trkpt lat="44.11935" lon="6.29543">
        <ele>1015.5999755859</ele>
        <time>2017-05-25T13:25:31.000Z</time>
      </trkpt>
      <trkpt lat="44.11931" lon="6.29516">
        <ele>1008</ele>
        <time>2017-05-25T13:25:36.000Z</time>
      </trkpt>
      <trkpt lat="44.11929" lon="6.29504">
        <ele>1004.5999755859</ele>
        <time>2017-05-25T13:25:38.000Z</time>
      </trkpt>
      <trkpt lat="44.11923" lon="6.2948">
        <ele>995.59997558594</ele>
        <time>2017-05-25T13:25:42.000Z</time>
      </trkpt>
      <trkpt lat="44.11919" lon="6.2946">
        <ele>989.79998779297</ele>
        <time>2017-05-25T13:25:49.000Z</time>
      </trkpt>
      <trkpt lat="44.11916" lon="6.29454">
        <ele>986.59997558594</ele>
        <time>2017-05-25T13:25:53.000Z</time>
      </trkpt>
      <trkpt lat="44.11919" lon="6.29452">
        <ele>988</ele>
        <time>2017-05-25T13:25:55.000Z</time>
      </trkpt>
      <trkpt lat="44.11911" lon="6.29439">
        <ele>979.79998779297</ele>
        <time>2017-05-25T13:26:02.000Z</time>
      </trkpt>
      <trkpt lat="44.11909" lon="6.29424">
        <ele>974.40002441406</ele>
        <time>2017-05-25T13:26:09.000Z</time>
      </trkpt>
      <trkpt lat="44.11927" lon="6.29419">
        <ele>983.59997558594</ele>
        <time>2017-05-25T13:26:15.000Z</time>
      </trkpt>
      <trkpt lat="44.11933" lon="6.29405">
        <ele>983.40002441406</ele>
        <time>2017-05-25T13:26:25.000Z</time>
      </trkpt>
      <trkpt lat="44.11934" lon="6.29402">
        <ele>983</ele>
        <time>2017-05-25T13:26:26.000Z</time>
      </trkpt>
      <trkpt lat="44.11917" lon="6.29386">
        <ele>969.40002441406</ele>
        <time>2017-05-25T13:26:32.000Z</time>
      </trkpt>
      <trkpt lat="44.11913" lon="6.29382">
        <ele>966</ele>
        <time>2017-05-25T13:26:34.000Z</time>
      </trkpt>
      <trkpt lat="44.11914" lon="6.29378">
        <ele>965.59997558594</ele>
        <time>2017-05-25T13:26:36.000Z</time>
      </trkpt>
      <trkpt lat="44.11924" lon="6.29371">
        <ele>968.59997558594</ele>
        <time>2017-05-25T13:26:40.000Z</time>
      </trkpt>
      <trkpt lat="44.11944" lon="6.29366">
        <ele>973.40002441406</ele>
        <time>2017-05-25T13:26:46.000Z</time>
      </trkpt>
      <trkpt lat="44.11947" lon="6.29363">
        <ele>971</ele>
        <time>2017-05-25T13:26:48.000Z</time>
      </trkpt>
      <trkpt lat="44.11939" lon="6.29352">
        <ele>965.79998779297</ele>
        <time>2017-05-25T13:26:52.000Z</time>
      </trkpt>
      <trkpt lat="44.1194" lon="6.29346">
        <ele>962.79998779297</ele>
        <time>2017-05-25T13:26:56.000Z</time>
      </trkpt>
      <trkpt lat="44.11949" lon="6.29321">
        <ele>951.40002441406</ele>
        <time>2017-05-25T13:27:03.000Z</time>
      </trkpt>
      <trkpt lat="44.11947" lon="6.29312">
        <ele>948.79998779297</ele>
        <time>2017-05-25T13:27:05.000Z</time>
      </trkpt>
      <trkpt lat="44.11934" lon="6.29291">
        <ele>939.59997558594</ele>
        <time>2017-05-25T13:27:10.000Z</time>
      </trkpt>
      <trkpt lat="44.11928" lon="6.29281">
        <ele>934.79998779297</ele>
        <time>2017-05-25T13:27:13.000Z</time>
      </trkpt>
      <trkpt lat="44.11911" lon="6.29282">
        <ele>931.40002441406</ele>
        <time>2017-05-25T13:28:38.000Z</time>
      </trkpt>
      <trkpt lat="44.119" lon="6.29267">
        <ele>924</ele>
        <time>2017-05-25T13:28:43.000Z</time>
      </trkpt>
      <trkpt lat="44.11885" lon="6.29247">
        <ele>913.59997558594</ele>
        <time>2017-05-25T13:28:47.000Z</time>
      </trkpt>
      <trkpt lat="44.11866" lon="6.29239">
        <ele>906.20001220703</ele>
        <time>2017-05-25T13:28:50.000Z</time>
      </trkpt>
      <trkpt lat="44.11856" lon="6.29234">
        <ele>901.79998779297</ele>
        <time>2017-05-25T13:28:52.000Z</time>
      </trkpt>
      <trkpt lat="44.11837" lon="6.29228">
        <ele>895</ele>
        <time>2017-05-25T13:28:56.000Z</time>
      </trkpt>
      <trkpt lat="44.1183" lon="6.29219">
        <ele>892.59997558594</ele>
        <time>2017-05-25T13:28:58.000Z</time>
      </trkpt>
      <trkpt lat="44.11826" lon="6.29214">
        <ele>891.59997558594</ele>
        <time>2017-05-25T13:28:59.000Z</time>
      </trkpt>
      <trkpt lat="44.11819" lon="6.29206">
        <ele>889.20001220703</ele>
        <time>2017-05-25T13:29:01.000Z</time>
      </trkpt>
      <trkpt lat="44.118" lon="6.29196">
        <ele>883.59997558594</ele>
        <time>2017-05-25T13:29:05.000Z</time>
      </trkpt>
      <trkpt lat="44.11787" lon="6.29184">
        <ele>879.40002441406</ele>
        <time>2017-05-25T13:29:12.000Z</time>
      </trkpt>
      <trkpt lat="44.11769" lon="6.29174">
        <ele>874.20001220703</ele>
        <time>2017-05-25T13:29:19.000Z</time>
      </trkpt>
      <trkpt lat="44.11759" lon="6.29165">
        <ele>871.59997558594</ele>
        <time>2017-05-25T13:31:09.000Z</time>
      </trkpt>
      <trkpt lat="44.11753" lon="6.29138">
        <ele>870.20001220703</ele>
        <time>2017-05-25T13:31:15.000Z</time>
      </trkpt>
      <trkpt lat="44.11748" lon="6.2913">
        <ele>869.20001220703</ele>
        <time>2017-05-25T13:31:17.000Z</time>
      </trkpt>
      <trkpt lat="44.11732" lon="6.29111">
        <ele>866.20001220703</ele>
        <time>2017-05-25T13:31:22.000Z</time>
      </trkpt>
      <trkpt lat="44.11717" lon="6.2909">
        <ele>863.59997558594</ele>
        <time>2017-05-25T13:34:10.000Z</time>
      </trkpt>
      <trkpt lat="44.11713" lon="6.29085">
        <ele>862.79998779297</ele>
        <time>2017-05-25T13:34:11.000Z</time>
      </trkpt>
      <trkpt lat="44.11698" lon="6.2907">
        <ele>859.59997558594</ele>
        <time>2017-05-25T13:34:14.000Z</time>
      </trkpt>
      <trkpt lat="44.11686" lon="6.29061">
        <ele>858.20001220703</ele>
        <time>2017-05-25T13:34:16.000Z</time>
      </trkpt>
      <trkpt lat="44.11667" lon="6.2906">
        <ele>855.59997558594</ele>
        <time>2017-05-25T13:34:19.000Z</time>
      </trkpt>
      <trkpt lat="44.11664" lon="6.29058">
        <ele>855.20001220703</ele>
        <time>2017-05-25T13:34:20.000Z</time>
      </trkpt>
      <trkpt lat="44.1166" lon="6.29028">
        <ele>855.40002441406</ele>
        <time>2017-05-25T13:34:26.000Z</time>
      </trkpt>
      <trkpt lat="44.11647" lon="6.29002">
        <ele>854</ele>
        <time>2017-05-25T13:34:31.000Z</time>
      </trkpt>
      <trkpt lat="44.11641" lon="6.28993">
        <ele>853.20001220703</ele>
        <time>2017-05-25T13:34:33.000Z</time>
      </trkpt>
      <trkpt lat="44.11625" lon="6.28975">
        <ele>851.79998779297</ele>
        <time>2017-05-25T13:34:37.000Z</time>
      </trkpt>
      <trkpt lat="44.11617" lon="6.28949">
        <ele>852.20001220703</ele>
        <time>2017-05-25T13:34:42.000Z</time>
      </trkpt>
      <trkpt lat="44.11608" lon="6.28926">
        <ele>852.20001220703</ele>
        <time>2017-05-25T13:34:49.000Z</time>
      </trkpt>
      <trkpt lat="44.11602" lon="6.289">
        <ele>852.59997558594</ele>
        <time>2017-05-25T13:35:00.000Z</time>
      </trkpt>
      <trkpt lat="44.11599" lon="6.28876">
        <ele>852.79998779297</ele>
        <time>2017-05-25T13:35:06.000Z</time>
      </trkpt>
      <trkpt lat="44.11597" lon="6.28861">
        <ele>853</ele>
        <time>2017-05-25T13:35:09.000Z</time>
      </trkpt>
      <trkpt lat="44.11593" lon="6.28835">
        <ele>853.20001220703</ele>
        <time>2017-05-25T13:35:14.000Z</time>
      </trkpt>
      <trkpt lat="44.11589" lon="6.2881">
        <ele>853.59997558594</ele>
        <time>2017-05-25T13:35:19.000Z</time>
      </trkpt>
      <trkpt lat="44.11592" lon="6.28783">
        <ele>855.40002441406</ele>
        <time>2017-05-25T13:35:29.000Z</time>
      </trkpt>
      <trkpt lat="44.11592" lon="6.28781">
        <ele>855.40002441406</ele>
        <time>2017-05-25T13:35:30.000Z</time>
      </trkpt>
      <trkpt lat="44.11593" lon="6.28754">
        <ele>855.79998779297</ele>
        <time>2017-05-25T13:35:39.000Z</time>
      </trkpt>
      <trkpt lat="44.11591" lon="6.28746">
        <ele>855.79998779297</ele>
        <time>2017-05-25T13:35:42.000Z</time>
      </trkpt>
      <trkpt lat="44.1159" lon="6.28731">
        <ele>855.79998779297</ele>
        <time>2017-05-25T13:35:47.000Z</time>
      </trkpt>
      <trkpt lat="44.1159" lon="6.28722">
        <ele>856.59997558594</ele>
        <time>2017-05-25T13:35:50.000Z</time>
      </trkpt>
      <trkpt lat="44.11585" lon="6.28694">
        <ele>858.40002441406</ele>
        <time>2017-05-25T13:35:58.000Z</time>
      </trkpt>
      <trkpt lat="44.11577" lon="6.2867">
        <ele>859.20001220703</ele>
        <time>2017-05-25T13:36:07.000Z</time>
      </trkpt>
      <trkpt lat="44.11575" lon="6.28663">
        <ele>859.59997558594</ele>
        <time>2017-05-25T13:36:10.000Z</time>
      </trkpt>
      <trkpt lat="44.11575" lon="6.28659">
        <ele>859.59997558594</ele>
        <time>2017-05-25T13:36:12.000Z</time>
      </trkpt>
      <trkpt lat="44.11571" lon="6.28652">
        <ele>859.79998779297</ele>
        <time>2017-05-25T13:36:15.000Z</time>
      </trkpt>
      <trkpt lat="44.11554" lon="6.28643">
        <ele>859.20001220703</ele>
        <time>2017-05-25T13:36:20.000Z</time>
      </trkpt>
      <trkpt lat="44.1155" lon="6.28638">
        <ele>858.79998779297</ele>
        <time>2017-05-25T13:36:21.000Z</time>
      </trkpt>
      <trkpt lat="44.11532" lon="6.2862">
        <ele>857</ele>
        <time>2017-05-25T13:36:26.000Z</time>
      </trkpt>
      <trkpt lat="44.11523" lon="6.28614">
        <ele>856</ele>
        <time>2017-05-25T13:36:28.000Z</time>
      </trkpt>
      <trkpt lat="44.11507" lon="6.28598">
        <ele>853.79998779297</ele>
        <time>2017-05-25T13:36:33.000Z</time>
      </trkpt>
      <trkpt lat="44.11492" lon="6.28577">
        <ele>851.20001220703</ele>
        <time>2017-05-25T13:36:38.000Z</time>
      </trkpt>
      <trkpt lat="44.11488" lon="6.28572">
        <ele>850.59997558594</ele>
        <time>2017-05-25T13:36:39.000Z</time>
      </trkpt>
      <trkpt lat="44.11481" lon="6.28563">
        <ele>849.59997558594</ele>
        <time>2017-05-25T13:36:41.000Z</time>
      </trkpt>
      <trkpt lat="44.11469" lon="6.28543">
        <ele>847.79998779297</ele>
        <time>2017-05-25T13:36:47.000Z</time>
      </trkpt>
      <trkpt lat="44.11461" lon="6.28537">
        <ele>846.59997558594</ele>
        <time>2017-05-25T13:36:49.000Z</time>
      </trkpt>
      <trkpt lat="44.11448" lon="6.28523">
        <ele>845</ele>
        <time>2017-05-25T13:36:52.000Z</time>
      </trkpt>
      <trkpt lat="44.1143" lon="6.28514">
        <ele>843.79998779297</ele>
        <time>2017-05-25T13:36:56.000Z</time>
      </trkpt>
      <trkpt lat="44.11411" lon="6.28503">
        <ele>842.59997558594</ele>
        <time>2017-05-25T13:37:00.000Z</time>
      </trkpt>
      <trkpt lat="44.11406" lon="6.28501">
        <ele>842.40002441406</ele>
        <time>2017-05-25T13:37:01.000Z</time>
      </trkpt>
      <trkpt lat="44.11389" lon="6.28481">
        <ele>841</ele>
        <time>2017-05-25T13:37:05.000Z</time>
      </trkpt>
      <trkpt lat="44.11373" lon="6.28458">
        <ele>840</ele>
        <time>2017-05-25T13:37:09.000Z</time>
      </trkpt>
      <trkpt lat="44.11356" lon="6.28441">
        <ele>838.79998779297</ele>
        <time>2017-05-25T13:37:13.000Z</time>
      </trkpt>
      <trkpt lat="44.11352" lon="6.28437">
        <ele>838.40002441406</ele>
        <time>2017-05-25T13:37:14.000Z</time>
      </trkpt>
      <trkpt lat="44.11335" lon="6.28427">
        <ele>837</ele>
        <time>2017-05-25T13:37:19.000Z</time>
      </trkpt>
      <trkpt lat="44.11332" lon="6.28428">
        <ele>836.79998779297</ele>
        <time>2017-05-25T13:37:20.000Z</time>
      </trkpt>
      <trkpt lat="44.11327" lon="6.28431">
        <ele>836.40002441406</ele>
        <time>2017-05-25T13:37:21.000Z</time>
      </trkpt>
      <trkpt lat="44.11319" lon="6.28434">
        <ele>836</ele>
        <time>2017-05-25T13:37:24.000Z</time>
      </trkpt>
      <trkpt lat="44.11298" lon="6.2843">
        <ele>833.79998779297</ele>
        <time>2017-05-25T13:37:29.000Z</time>
      </trkpt>
      <trkpt lat="44.11287" lon="6.2843">
        <ele>832.40002441406</ele>
        <time>2017-05-25T13:37:31.000Z</time>
      </trkpt>
      <trkpt lat="44.1128" lon="6.2843">
        <ele>831.59997558594</ele>
        <time>2017-05-25T13:37:32.000Z</time>
      </trkpt>
      <trkpt lat="44.11261" lon="6.28417">
        <ele>829.20001220703</ele>
        <time>2017-05-25T13:37:37.000Z</time>
      </trkpt>
      <trkpt lat="44.11247" lon="6.28401">
        <ele>827.59997558594</ele>
        <time>2017-05-25T13:37:43.000Z</time>
      </trkpt>
      <trkpt lat="44.11241" lon="6.28395">
        <ele>826.79998779297</ele>
        <time>2017-05-25T13:37:45.000Z</time>
      </trkpt>
      <trkpt lat="44.11224" lon="6.28376">
        <ele>824</ele>
        <time>2017-05-25T13:37:50.000Z</time>
      </trkpt>
      <trkpt lat="44.1122" lon="6.28374">
        <ele>823.40002441406</ele>
        <time>2017-05-25T13:37:51.000Z</time>
      </trkpt>
      <trkpt lat="44.11197" lon="6.28374">
        <ele>820.20001220703</ele>
        <time>2017-05-25T13:37:55.000Z</time>
      </trkpt>
      <trkpt lat="44.11179" lon="6.28367">
        <ele>821</ele>
        <time>2017-05-25T13:37:59.000Z</time>
      </trkpt>
      <trkpt lat="44.11159" lon="6.28357">
        <ele>822.79998779297</ele>
        <time>2017-05-25T13:38:03.000Z</time>
      </trkpt>
      <trkpt lat="44.11143" lon="6.28338">
        <ele>824.20001220703</ele>
        <time>2017-05-25T13:38:07.000Z</time>
      </trkpt>
      <trkpt lat="44.11124" lon="6.28336">
        <ele>824.59997558594</ele>
        <time>2017-05-25T13:38:13.000Z</time>
      </trkpt>
      <trkpt lat="44.11118" lon="6.28334">
        <ele>824.40002441406</ele>
        <time>2017-05-25T13:38:16.000Z</time>
      </trkpt>
      <trkpt lat="44.11098" lon="6.28332">
        <ele>823</ele>
        <time>2017-05-25T13:39:26.000Z</time>
      </trkpt>
      <trkpt lat="44.11076" lon="6.28327">
        <ele>821.40002441406</ele>
        <time>2017-05-25T13:39:37.000Z</time>
      </trkpt>
      <trkpt lat="44.11058" lon="6.28317">
        <ele>820.79998779297</ele>
        <time>2017-05-25T13:39:50.000Z</time>
      </trkpt>
      <trkpt lat="44.1104" lon="6.28302">
        <ele>819.79998779297</ele>
        <time>2017-05-25T13:40:02.000Z</time>
      </trkpt>
      <trkpt lat="44.11027" lon="6.28283">
        <ele>819.20001220703</ele>
        <time>2017-05-25T13:40:10.000Z</time>
      </trkpt>
      <trkpt lat="44.11021" lon="6.2826">
        <ele>818.59997558594</ele>
        <time>2017-05-25T13:40:22.000Z</time>
      </trkpt>
      <trkpt lat="44.11015" lon="6.28252">
        <ele>817.59997558594</ele>
        <time>2017-05-25T13:43:47.000Z</time>
      </trkpt>
      <trkpt lat="44.10996" lon="6.28247">
        <ele>813.59997558594</ele>
        <time>2017-05-25T13:43:51.000Z</time>
      </trkpt>
      <trkpt lat="44.10978" lon="6.28238">
        <ele>810</ele>
        <time>2017-05-25T13:43:55.000Z</time>
      </trkpt>
      <trkpt lat="44.10962" lon="6.2824">
        <ele>806.79998779297</ele>
        <time>2017-05-25T13:43:58.000Z</time>
      </trkpt>
      <trkpt lat="44.10944" lon="6.2825">
        <ele>800.79998779297</ele>
        <time>2017-05-25T13:44:04.000Z</time>
      </trkpt>
      <trkpt lat="44.10939" lon="6.28252">
        <ele>799.20001220703</ele>
        <time>2017-05-25T13:44:05.000Z</time>
      </trkpt>
      <trkpt lat="44.10919" lon="6.28248">
        <ele>795</ele>
        <time>2017-05-25T13:44:08.000Z</time>
      </trkpt>
      <trkpt lat="44.10906" lon="6.28238">
        <ele>793</ele>
        <time>2017-05-25T13:44:11.000Z</time>
      </trkpt>
      <trkpt lat="44.10888" lon="6.28226">
        <ele>789.59997558594</ele>
        <time>2017-05-25T13:44:14.000Z</time>
      </trkpt>
      <trkpt lat="44.10868" lon="6.28215">
        <ele>784.79998779297</ele>
        <time>2017-05-25T13:44:18.000Z</time>
      </trkpt>
      <trkpt lat="44.10846" lon="6.28214">
        <ele>779</ele>
        <time>2017-05-25T13:44:22.000Z</time>
      </trkpt>
      <trkpt lat="44.10833" lon="6.28197">
        <ele>775.40002441406</ele>
        <time>2017-05-25T13:44:27.000Z</time>
      </trkpt>
      <trkpt lat="44.1082" lon="6.28173">
        <ele>771.59997558594</ele>
        <time>2017-05-25T13:44:30.000Z</time>
      </trkpt>
      <trkpt lat="44.10804" lon="6.28147">
        <ele>767.20001220703</ele>
        <time>2017-05-25T13:44:33.000Z</time>
      </trkpt>
      <trkpt lat="44.10791" lon="6.28132">
        <ele>764.20001220703</ele>
        <time>2017-05-25T13:44:35.000Z</time>
      </trkpt>
      <trkpt lat="44.10768" lon="6.28113">
        <ele>760.59997558594</ele>
        <time>2017-05-25T13:44:38.000Z</time>
      </trkpt>
      <trkpt lat="44.10745" lon="6.28099">
        <ele>759.79998779297</ele>
        <time>2017-05-25T13:44:41.000Z</time>
      </trkpt>
      <trkpt lat="44.10732" lon="6.28094">
        <ele>759.20001220703</ele>
        <time>2017-05-25T13:44:43.000Z</time>
      </trkpt>
      <trkpt lat="44.10722" lon="6.28083">
        <ele>759</ele>
        <time>2017-05-25T13:44:48.000Z</time>
      </trkpt>
      <trkpt lat="44.10714" lon="6.28066">
        <ele>759</ele>
        <time>2017-05-25T13:44:52.000Z</time>
      </trkpt>
      <trkpt lat="44.107" lon="6.28044">
        <ele>757.79998779297</ele>
        <time>2017-05-25T13:44:55.000Z</time>
      </trkpt>
      <trkpt lat="44.10691" lon="6.28031">
        <ele>756.59997558594</ele>
        <time>2017-05-25T13:44:57.000Z</time>
      </trkpt>
      <trkpt lat="44.10671" lon="6.28021">
        <ele>754.20001220703</ele>
        <time>2017-05-25T13:45:01.000Z</time>
      </trkpt>
      <trkpt lat="44.10648" lon="6.28013">
        <ele>751.40002441406</ele>
        <time>2017-05-25T13:45:05.000Z</time>
      </trkpt>
      <trkpt lat="44.10643" lon="6.28012">
        <ele>750.79998779297</ele>
        <time>2017-05-25T13:45:06.000Z</time>
      </trkpt>
      <trkpt lat="44.10625" lon="6.28024">
        <ele>747.40002441406</ele>
        <time>2017-05-25T13:45:10.000Z</time>
      </trkpt>
      <trkpt lat="44.10616" lon="6.28021">
        <ele>746</ele>
        <time>2017-05-25T13:45:13.000Z</time>
      </trkpt>
      <trkpt lat="44.106" lon="6.28016">
        <ele>744.20001220703</ele>
        <time>2017-05-25T13:45:38.000Z</time>
      </trkpt>
      <trkpt lat="44.10577" lon="6.28004">
        <ele>742.20001220703</ele>
        <time>2017-05-25T13:45:42.000Z</time>
      </trkpt>
      <trkpt lat="44.10563" lon="6.27987">
        <ele>741.20001220703</ele>
        <time>2017-05-25T13:45:46.000Z</time>
      </trkpt>
      <trkpt lat="44.10548" lon="6.27971">
        <ele>739.20001220703</ele>
        <time>2017-05-25T13:45:50.000Z</time>
      </trkpt>
      <trkpt lat="44.10527" lon="6.27964">
        <ele>736.40002441406</ele>
        <time>2017-05-25T13:45:54.000Z</time>
      </trkpt>
      <trkpt lat="44.1051" lon="6.27956">
        <ele>735</ele>
        <time>2017-05-25T13:45:58.000Z</time>
      </trkpt>
      <trkpt lat="44.10506" lon="6.27955">
        <ele>734.59997558594</ele>
        <time>2017-05-25T13:45:59.000Z</time>
      </trkpt>
      <trkpt lat="44.10485" lon="6.2795">
        <ele>732.20001220703</ele>
        <time>2017-05-25T13:46:03.000Z</time>
      </trkpt>
      <trkpt lat="44.10465" lon="6.27943">
        <ele>729.79998779297</ele>
        <time>2017-05-25T13:46:07.000Z</time>
      </trkpt>
      <trkpt lat="44.10448" lon="6.27934">
        <ele>727.40002441406</ele>
        <time>2017-05-25T13:46:11.000Z</time>
      </trkpt>
      <trkpt lat="44.10429" lon="6.27931">
        <ele>724.20001220703</ele>
        <time>2017-05-25T13:46:15.000Z</time>
      </trkpt>
      <trkpt lat="44.1041" lon="6.27924">
        <ele>720.79998779297</ele>
        <time>2017-05-25T13:46:18.000Z</time>
      </trkpt>
      <trkpt lat="44.10393" lon="6.27932">
        <ele>717.79998779297</ele>
        <time>2017-05-25T13:46:21.000Z</time>
      </trkpt>
      <trkpt lat="44.10387" lon="6.27935">
        <ele>717.40002441406</ele>
        <time>2017-05-25T13:46:22.000Z</time>
      </trkpt>
      <trkpt lat="44.10368" lon="6.27943">
        <ele>715.79998779297</ele>
        <time>2017-05-25T13:46:25.000Z</time>
      </trkpt>
      <trkpt lat="44.10348" lon="6.27947">
        <ele>713.59997558594</ele>
        <time>2017-05-25T13:46:29.000Z</time>
      </trkpt>
      <trkpt lat="44.10333" lon="6.27954">
        <ele>711.79998779297</ele>
        <time>2017-05-25T13:46:32.000Z</time>
      </trkpt>
      <trkpt lat="44.10312" lon="6.27954">
        <ele>706.79998779297</ele>
        <time>2017-05-25T13:46:36.000Z</time>
      </trkpt>
      <trkpt lat="44.10308" lon="6.27954">
        <ele>705.79998779297</ele>
        <time>2017-05-25T13:46:37.000Z</time>
      </trkpt>
      <trkpt lat="44.10292" lon="6.27947">
        <ele>702.20001220703</ele>
        <time>2017-05-25T13:46:41.000Z</time>
      </trkpt>
      <trkpt lat="44.10275" lon="6.27928">
        <ele>698.40002441406</ele>
        <time>2017-05-25T13:46:45.000Z</time>
      </trkpt>
      <trkpt lat="44.10257" lon="6.27921">
        <ele>696.59997558594</ele>
        <time>2017-05-25T13:46:49.000Z</time>
      </trkpt>
      <trkpt lat="44.10238" lon="6.2791">
        <ele>694.59997558594</ele>
        <time>2017-05-25T13:46:54.000Z</time>
      </trkpt>
      <trkpt lat="44.10226" lon="6.27903">
        <ele>693.40002441406</ele>
        <time>2017-05-25T13:46:57.000Z</time>
      </trkpt>
      <trkpt lat="44.10207" lon="6.27895">
        <ele>691.59997558594</ele>
        <time>2017-05-25T13:47:02.000Z</time>
      </trkpt>
      <trkpt lat="44.10188" lon="6.27889">
        <ele>690.20001220703</ele>
        <time>2017-05-25T13:47:09.000Z</time>
      </trkpt>
      <trkpt lat="44.10168" lon="6.27887">
        <ele>692.40002441406</ele>
        <time>2017-05-25T13:47:16.000Z</time>
      </trkpt>
      <trkpt lat="44.10149" lon="6.27882">
        <ele>694.59997558594</ele>
        <time>2017-05-25T13:47:25.000Z</time>
      </trkpt>
      <trkpt lat="44.10133" lon="6.27866">
        <ele>694.59997558594</ele>
        <time>2017-05-25T13:49:13.000Z</time>
      </trkpt>
      <trkpt lat="44.10124" lon="6.27856">
        <ele>694.59997558594</ele>
        <time>2017-05-25T13:49:17.000Z</time>
      </trkpt>
      <trkpt lat="44.10116" lon="6.27854">
        <ele>695.40002441406</ele>
        <time>2017-05-25T13:49:21.000Z</time>
      </trkpt>
      <trkpt lat="44.10108" lon="6.27832">
        <ele>693.20001220703</ele>
        <time>2017-05-25T13:49:30.000Z</time>
      </trkpt>
      <trkpt lat="44.10101" lon="6.2781">
        <ele>691</ele>
        <time>2017-05-25T13:49:38.000Z</time>
      </trkpt>
      <trkpt lat="44.10095" lon="6.27804">
        <ele>690.79998779297</ele>
        <time>2017-05-25T13:49:43.000Z</time>
      </trkpt>
      <trkpt lat="44.10079" lon="6.27789">
        <ele>690.40002441406</ele>
        <time>2017-05-25T13:49:52.000Z</time>
      </trkpt>
      <trkpt lat="44.10059" lon="6.27779">
        <ele>691.59997558594</ele>
        <time>2017-05-25T13:49:58.000Z</time>
      </trkpt>
      <trkpt lat="44.10041" lon="6.27772">
        <ele>693.40002441406</ele>
        <time>2017-05-25T13:50:02.000Z</time>
      </trkpt>
      <trkpt lat="44.10028" lon="6.27769">
        <ele>694.79998779297</ele>
        <time>2017-05-25T13:50:04.000Z</time>
      </trkpt>
      <trkpt lat="44.10013" lon="6.27754">
        <ele>694.40002441406</ele>
        <time>2017-05-25T13:50:09.000Z</time>
      </trkpt>
      <trkpt lat="44.09999" lon="6.27737">
        <ele>693.40002441406</ele>
        <time>2017-05-25T13:50:15.000Z</time>
      </trkpt>
      <trkpt lat="44.09988" lon="6.27717">
        <ele>690.79998779297</ele>
        <time>2017-05-25T13:50:24.000Z</time>
      </trkpt>
      <trkpt lat="44.09979" lon="6.27693">
        <ele>686.20001220703</ele>
        <time>2017-05-25T13:50:30.000Z</time>
      </trkpt>
      <trkpt lat="44.09976" lon="6.27681">
        <ele>683.79998779297</ele>
        <time>2017-05-25T13:50:32.000Z</time>
      </trkpt>
      <trkpt lat="44.09963" lon="6.27669">
        <ele>683.40002441406</ele>
        <time>2017-05-25T13:50:36.000Z</time>
      </trkpt>
      <trkpt lat="44.09949" lon="6.2765">
        <ele>681.40002441406</ele>
        <time>2017-05-25T13:50:40.000Z</time>
      </trkpt>
      <trkpt lat="44.09933" lon="6.27634">
        <ele>681.20001220703</ele>
        <time>2017-05-25T13:50:49.000Z</time>
      </trkpt>
      <trkpt lat="44.09915" lon="6.27621">
        <ele>680.79998779297</ele>
        <time>2017-05-25T13:50:58.000Z</time>
      </trkpt>
      <trkpt lat="44.09898" lon="6.27609">
        <ele>681</ele>
        <time>2017-05-25T13:51:03.000Z</time>
      </trkpt>
      <trkpt lat="44.09893" lon="6.27607">
        <ele>681.20001220703</ele>
        <time>2017-05-25T13:51:04.000Z</time>
      </trkpt>
      <trkpt lat="44.09874" lon="6.27603">
        <ele>682</ele>
        <time>2017-05-25T13:51:09.000Z</time>
      </trkpt>
      <trkpt lat="44.09867" lon="6.27602">
        <ele>682.40002441406</ele>
        <time>2017-05-25T13:51:10.000Z</time>
      </trkpt>
      <trkpt lat="44.09849" lon="6.27604">
        <ele>683</ele>
        <time>2017-05-25T13:51:14.000Z</time>
      </trkpt>
      <trkpt lat="44.09842" lon="6.2761">
        <ele>683.59997558594</ele>
        <time>2017-05-25T13:51:18.000Z</time>
      </trkpt>
      <trkpt lat="44.09838" lon="6.27609">
        <ele>683.59997558594</ele>
        <time>2017-05-25T13:51:21.000Z</time>
      </trkpt>
      <trkpt lat="44.09832" lon="6.27603">
        <ele>683.20001220703</ele>
        <time>2017-05-25T13:51:25.000Z</time>
      </trkpt>
      <trkpt lat="44.09814" lon="6.27589">
        <ele>682.40002441406</ele>
        <time>2017-05-25T13:51:32.000Z</time>
      </trkpt>
      <trkpt lat="44.09798" lon="6.27575">
        <ele>681.59997558594</ele>
        <time>2017-05-25T13:51:38.000Z</time>
      </trkpt>
      <trkpt lat="44.09784" lon="6.27556">
        <ele>680.79998779297</ele>
        <time>2017-05-25T13:51:44.000Z</time>
      </trkpt>
      <trkpt lat="44.09767" lon="6.27538">
        <ele>680.20001220703</ele>
        <time>2017-05-25T13:51:50.000Z</time>
      </trkpt>
      <trkpt lat="44.09752" lon="6.27519">
        <ele>679</ele>
        <time>2017-05-25T13:51:56.000Z</time>
      </trkpt>
      <trkpt lat="44.09736" lon="6.27503">
        <ele>677.79998779297</ele>
        <time>2017-05-25T13:52:02.000Z</time>
      </trkpt>
      <trkpt lat="44.09719" lon="6.27486">
        <ele>676.59997558594</ele>
        <time>2017-05-25T13:52:08.000Z</time>
      </trkpt>
      <trkpt lat="44.09709" lon="6.27476">
        <ele>676.79998779297</ele>
        <time>2017-05-25T13:52:10.000Z</time>
      </trkpt>
      <trkpt lat="44.09688" lon="6.27479">
        <ele>675.20001220703</ele>
        <time>2017-05-25T13:52:14.000Z</time>
      </trkpt>
      <trkpt lat="44.09667" lon="6.27489">
        <ele>679.59997558594</ele>
        <time>2017-05-25T13:52:19.000Z</time>
      </trkpt>
      <trkpt lat="44.09658" lon="6.27491">
        <ele>680.59997558594</ele>
        <time>2017-05-25T13:52:21.000Z</time>
      </trkpt>
      <trkpt lat="44.09641" lon="6.27481">
        <ele>678</ele>
        <time>2017-05-25T13:52:25.000Z</time>
      </trkpt>
      <trkpt lat="44.09628" lon="6.27471">
        <ele>678</ele>
        <time>2017-05-25T13:52:28.000Z</time>
      </trkpt>
      <trkpt lat="44.09608" lon="6.27466">
        <ele>678.40002441406</ele>
        <time>2017-05-25T13:52:33.000Z</time>
      </trkpt>
      <trkpt lat="44.0959" lon="6.27454">
        <ele>675.79998779297</ele>
        <time>2017-05-25T13:52:38.000Z</time>
      </trkpt>
      <trkpt lat="44.09581" lon="6.27453">
        <ele>675.40002441406</ele>
        <time>2017-05-25T13:53:24.000Z</time>
      </trkpt>
      <trkpt lat="44.09564" lon="6.27442">
        <ele>674.40002441406</ele>
        <time>2017-05-25T13:53:31.000Z</time>
      </trkpt>
      <trkpt lat="44.09548" lon="6.27435">
        <ele>674.40002441406</ele>
        <time>2017-05-25T13:53:35.000Z</time>
      </trkpt>
      <trkpt lat="44.09527" lon="6.27432">
        <ele>676.79998779297</ele>
        <time>2017-05-25T13:53:39.000Z</time>
      </trkpt>
      <trkpt lat="44.09518" lon="6.27432">
        <ele>676.79998779297</ele>
        <time>2017-05-25T13:53:41.000Z</time>
      </trkpt>
      <trkpt lat="44.09503" lon="6.27435">
        <ele>677.59997558594</ele>
        <time>2017-05-25T13:53:44.000Z</time>
      </trkpt>
      <trkpt lat="44.09484" lon="6.27433">
        <ele>677</ele>
        <time>2017-05-25T13:53:48.000Z</time>
      </trkpt>
      <trkpt lat="44.09469" lon="6.27416">
        <ele>672</ele>
        <time>2017-05-25T13:53:53.000Z</time>
      </trkpt>
      <trkpt lat="44.09467" lon="6.27388">
        <ele>665.20001220703</ele>
        <time>2017-05-25T13:53:57.000Z</time>
      </trkpt>
      <trkpt lat="44.09467" lon="6.27379">
        <ele>664.40002441406</ele>
        <time>2017-05-25T13:53:58.000Z</time>
      </trkpt>
      <trkpt lat="44.09456" lon="6.27354">
        <ele>662</ele>
        <time>2017-05-25T13:54:01.000Z</time>
      </trkpt>
      <trkpt lat="44.09443" lon="6.27348">
        <ele>661.40002441406</ele>
        <time>2017-05-25T13:54:03.000Z</time>
      </trkpt>
      <trkpt lat="44.09432" lon="6.27342">
        <ele>660</ele>
        <time>2017-05-25T13:54:05.000Z</time>
      </trkpt>
      <trkpt lat="44.09414" lon="6.27322">
        <ele>656.79998779297</ele>
        <time>2017-05-25T13:54:09.000Z</time>
      </trkpt>
      <trkpt lat="44.09394" lon="6.2731">
        <ele>654.79998779297</ele>
        <time>2017-05-25T13:54:12.000Z</time>
      </trkpt>
      <trkpt lat="44.09388" lon="6.27308">
        <ele>654.40002441406</ele>
        <time>2017-05-25T13:54:13.000Z</time>
      </trkpt>
      <trkpt lat="44.09366" lon="6.27301">
        <ele>653.40002441406</ele>
        <time>2017-05-25T13:54:17.000Z</time>
      </trkpt>
      <trkpt lat="44.09361" lon="6.27298">
        <ele>653.40002441406</ele>
        <time>2017-05-25T13:54:18.000Z</time>
      </trkpt>
      <trkpt lat="44.09345" lon="6.27287">
        <ele>653</ele>
        <time>2017-05-25T13:54:21.000Z</time>
      </trkpt>
      <trkpt lat="44.09322" lon="6.2728">
        <ele>652.20001220703</ele>
        <time>2017-05-25T13:54:25.000Z</time>
      </trkpt>
      <trkpt lat="44.09304" lon="6.27283">
        <ele>651.79998779297</ele>
        <time>2017-05-25T13:54:29.000Z</time>
      </trkpt>
      <trkpt lat="44.09284" lon="6.27285">
        <ele>651.20001220703</ele>
        <time>2017-05-25T13:54:33.000Z</time>
      </trkpt>
      <trkpt lat="44.09264" lon="6.27287">
        <ele>650.40002441406</ele>
        <time>2017-05-25T13:54:37.000Z</time>
      </trkpt>
      <trkpt lat="44.09245" lon="6.27287">
        <ele>649.59997558594</ele>
        <time>2017-05-25T13:54:41.000Z</time>
      </trkpt>
      <trkpt lat="44.09226" lon="6.27291">
        <ele>649.40002441406</ele>
        <time>2017-05-25T13:54:45.000Z</time>
      </trkpt>
      <trkpt lat="44.09207" lon="6.27297">
        <ele>649.20001220703</ele>
        <time>2017-05-25T13:54:49.000Z</time>
      </trkpt>
      <trkpt lat="44.09188" lon="6.27304">
        <ele>648.79998779297</ele>
        <time>2017-05-25T13:54:54.000Z</time>
      </trkpt>
      <trkpt lat="44.09169" lon="6.27306">
        <ele>648.40002441406</ele>
        <time>2017-05-25T13:55:04.000Z</time>
      </trkpt>
      <trkpt lat="44.09161" lon="6.27303">
        <ele>648.20001220703</ele>
        <time>2017-05-25T13:55:08.000Z</time>
      </trkpt>
      <trkpt lat="44.09146" lon="6.27288">
        <ele>647.79998779297</ele>
        <time>2017-05-25T13:55:16.000Z</time>
      </trkpt>
      <trkpt lat="44.09131" lon="6.2727">
        <ele>647.59997558594</ele>
        <time>2017-05-25T13:55:23.000Z</time>
      </trkpt>
      <trkpt lat="44.09119" lon="6.27252">
        <ele>647.20001220703</ele>
        <time>2017-05-25T13:55:30.000Z</time>
      </trkpt>
      <trkpt lat="44.09115" lon="6.27251">
        <ele>647.20001220703</ele>
        <time>2017-05-25T13:55:32.000Z</time>
      </trkpt>
      <trkpt lat="44.09109" lon="6.27272">
        <ele>647</ele>
        <time>2017-05-25T13:55:48.000Z</time>
      </trkpt>
      <trkpt lat="44.09123" lon="6.27287">
        <ele>647.40002441406</ele>
        <time>2017-05-25T13:55:56.000Z</time>
      </trkpt>
      <trkpt lat="44.09129" lon="6.2731">
        <ele>647.40002441406</ele>
        <time>2017-05-25T13:56:04.000Z</time>
      </trkpt>
      <trkpt lat="44.09118" lon="6.27329">
        <ele>647.79998779297</ele>
        <time>2017-05-25T13:56:14.000Z</time>
      </trkpt>
      <trkpt lat="44.09121" lon="6.27321">
        <ele>647.59997558594</ele>
        <time>2017-05-25T14:05:21.000Z</time>
      </trkpt>
      <trkpt lat="44.09128" lon="6.27297">
        <ele>647.40002441406</ele>
        <time>2017-05-25T14:05:26.000Z</time>
      </trkpt>
      <trkpt lat="44.09116" lon="6.27277">
        <ele>647.20001220703</ele>
        <time>2017-05-25T14:05:30.000Z</time>
      </trkpt>
      <trkpt lat="44.09107" lon="6.2727">
        <ele>647</ele>
        <time>2017-05-25T14:05:32.000Z</time>
      </trkpt>
      <trkpt lat="44.0909" lon="6.27258">
        <ele>646.79998779297</ele>
        <time>2017-05-25T14:05:36.000Z</time>
      </trkpt>
      <trkpt lat="44.0908" lon="6.27251">
        <ele>646.59997558594</ele>
        <time>2017-05-25T14:05:38.000Z</time>
      </trkpt>
      <trkpt lat="44.09065" lon="6.27225">
        <ele>646.40002441406</ele>
        <time>2017-05-25T14:05:42.000Z</time>
      </trkpt>
      <trkpt lat="44.09053" lon="6.27205">
        <ele>645.40002441406</ele>
        <time>2017-05-25T14:05:45.000Z</time>
      </trkpt>
      <trkpt lat="44.09034" lon="6.27189">
        <ele>644.59997558594</ele>
        <time>2017-05-25T14:05:49.000Z</time>
      </trkpt>
      <trkpt lat="44.09034" lon="6.27169">
        <ele>643.79998779297</ele>
        <time>2017-05-25T14:05:54.000Z</time>
      </trkpt>
      <trkpt lat="44.09044" lon="6.27142">
        <ele>643.79998779297</ele>
        <time>2017-05-25T14:06:00.000Z</time>
      </trkpt>
      <trkpt lat="44.09046" lon="6.27118">
        <ele>643.59997558594</ele>
        <time>2017-05-25T14:06:04.000Z</time>
      </trkpt>
      <trkpt lat="44.09045" lon="6.27111">
        <ele>643.40002441406</ele>
        <time>2017-05-25T14:06:05.000Z</time>
      </trkpt>
      <trkpt lat="44.09046" lon="6.27082">
        <ele>643.20001220703</ele>
        <time>2017-05-25T14:06:09.000Z</time>
      </trkpt>
      <trkpt lat="44.09044" lon="6.2705">
        <ele>642.20001220703</ele>
        <time>2017-05-25T14:06:13.000Z</time>
      </trkpt>
      <trkpt lat="44.09044" lon="6.27025">
        <ele>642</ele>
        <time>2017-05-25T14:06:16.000Z</time>
      </trkpt>
      <trkpt lat="44.09043" lon="6.26996">
        <ele>641.59997558594</ele>
        <time>2017-05-25T14:06:19.000Z</time>
      </trkpt>
      <trkpt lat="44.09042" lon="6.26967">
        <ele>641.59997558594</ele>
        <time>2017-05-25T14:06:22.000Z</time>
      </trkpt>
      <trkpt lat="44.09041" lon="6.26938">
        <ele>642.59997558594</ele>
        <time>2017-05-25T14:06:25.000Z</time>
      </trkpt>
      <trkpt lat="44.09037" lon="6.26911">
        <ele>643.59997558594</ele>
        <time>2017-05-25T14:06:28.000Z</time>
      </trkpt>
      <trkpt lat="44.09027" lon="6.26885">
        <ele>644.79998779297</ele>
        <time>2017-05-25T14:06:31.000Z</time>
      </trkpt>
      <trkpt lat="44.09015" lon="6.26861">
        <ele>644.59997558594</ele>
        <time>2017-05-25T14:06:34.000Z</time>
      </trkpt>
      <trkpt lat="44.09004" lon="6.26838">
        <ele>644.40002441406</ele>
        <time>2017-05-25T14:06:37.000Z</time>
      </trkpt>
      <trkpt lat="44.08992" lon="6.26816">
        <ele>644.40002441406</ele>
        <time>2017-05-25T14:06:40.000Z</time>
      </trkpt>
      <trkpt lat="44.08981" lon="6.26795">
        <ele>643</ele>
        <time>2017-05-25T14:06:43.000Z</time>
      </trkpt>
      <trkpt lat="44.0897" lon="6.26773">
        <ele>641.59997558594</ele>
        <time>2017-05-25T14:06:46.000Z</time>
      </trkpt>
      <trkpt lat="44.0896" lon="6.26749">
        <ele>640.20001220703</ele>
        <time>2017-05-25T14:06:49.000Z</time>
      </trkpt>
      <trkpt lat="44.0895" lon="6.26724">
        <ele>639</ele>
        <time>2017-05-25T14:06:52.000Z</time>
      </trkpt>
      <trkpt lat="44.0894" lon="6.26701">
        <ele>637.59997558594</ele>
        <time>2017-05-25T14:06:55.000Z</time>
      </trkpt>
      <trkpt lat="44.0893" lon="6.26678">
        <ele>636.79998779297</ele>
        <time>2017-05-25T14:06:58.000Z</time>
      </trkpt>
      <trkpt lat="44.08922" lon="6.26653">
        <ele>636</ele>
        <time>2017-05-25T14:07:01.000Z</time>
      </trkpt>
      <trkpt lat="44.08915" lon="6.26627">
        <ele>635.59997558594</ele>
        <time>2017-05-25T14:07:04.000Z</time>
      </trkpt>
      <trkpt lat="44.08907" lon="6.26602">
        <ele>634.79998779297</ele>
        <time>2017-05-25T14:07:07.000Z</time>
      </trkpt>
      <trkpt lat="44.089" lon="6.26577">
        <ele>633.59997558594</ele>
        <time>2017-05-25T14:07:10.000Z</time>
      </trkpt>
      <trkpt lat="44.08893" lon="6.26553">
        <ele>633.20001220703</ele>
        <time>2017-05-25T14:07:13.000Z</time>
      </trkpt>
      <trkpt lat="44.08885" lon="6.26527">
        <ele>633.40002441406</ele>
        <time>2017-05-25T14:07:16.000Z</time>
      </trkpt>
      <trkpt lat="44.08877" lon="6.26501">
        <ele>633.79998779297</ele>
        <time>2017-05-25T14:07:19.000Z</time>
      </trkpt>
      <trkpt lat="44.08869" lon="6.26475">
        <ele>633.79998779297</ele>
        <time>2017-05-25T14:07:22.000Z</time>
      </trkpt>
      <trkpt lat="44.08861" lon="6.26448">
        <ele>634.40002441406</ele>
        <time>2017-05-25T14:07:25.000Z</time>
      </trkpt>
      <trkpt lat="44.08853" lon="6.2642">
        <ele>636.79998779297</ele>
        <time>2017-05-25T14:07:28.000Z</time>
      </trkpt>
      <trkpt lat="44.0885" lon="6.26411">
        <ele>637.40002441406</ele>
        <time>2017-05-25T14:07:29.000Z</time>
      </trkpt>
      <trkpt lat="44.08848" lon="6.26381">
        <ele>638.20001220703</ele>
        <time>2017-05-25T14:07:32.000Z</time>
      </trkpt>
      <trkpt lat="44.08849" lon="6.26372">
        <ele>637.79998779297</ele>
        <time>2017-05-25T14:07:33.000Z</time>
      </trkpt>
      <trkpt lat="44.08853" lon="6.26345">
        <ele>636.59997558594</ele>
        <time>2017-05-25T14:07:36.000Z</time>
      </trkpt>
      <trkpt lat="44.08855" lon="6.26319">
        <ele>635.40002441406</ele>
        <time>2017-05-25T14:07:39.000Z</time>
      </trkpt>
      <trkpt lat="44.0886" lon="6.263">
        <ele>634.79998779297</ele>
        <time>2017-05-25T14:07:41.000Z</time>
      </trkpt>
      <trkpt lat="44.0887" lon="6.26273">
        <ele>635.79998779297</ele>
        <time>2017-05-25T14:07:44.000Z</time>
      </trkpt>
      <trkpt lat="44.08881" lon="6.26246">
        <ele>636.59997558594</ele>
        <time>2017-05-25T14:07:47.000Z</time>
      </trkpt>
      <trkpt lat="44.08891" lon="6.26221">
        <ele>637.40002441406</ele>
        <time>2017-05-25T14:07:50.000Z</time>
      </trkpt>
      <trkpt lat="44.08904" lon="6.26197">
        <ele>642</ele>
        <time>2017-05-25T14:07:53.000Z</time>
      </trkpt>
      <trkpt lat="44.08921" lon="6.26177">
        <ele>638.59997558594</ele>
        <time>2017-05-25T14:07:56.000Z</time>
      </trkpt>
      <trkpt lat="44.08936" lon="6.26158">
        <ele>634</ele>
        <time>2017-05-25T14:07:59.000Z</time>
      </trkpt>
      <trkpt lat="44.08951" lon="6.26139">
        <ele>632</ele>
        <time>2017-05-25T14:08:02.000Z</time>
      </trkpt>
      <trkpt lat="44.08963" lon="6.26117">
        <ele>632.40002441406</ele>
        <time>2017-05-25T14:08:05.000Z</time>
      </trkpt>
      <trkpt lat="44.08969" lon="6.26091">
        <ele>633</ele>
        <time>2017-05-25T14:08:08.000Z</time>
      </trkpt>
      <trkpt lat="44.08973" lon="6.26065">
        <ele>633</ele>
        <time>2017-05-25T14:08:11.000Z</time>
      </trkpt>
      <trkpt lat="44.0898" lon="6.26041">
        <ele>631.59997558594</ele>
        <time>2017-05-25T14:08:14.000Z</time>
      </trkpt>
      <trkpt lat="44.08986" lon="6.26016">
        <ele>630.59997558594</ele>
        <time>2017-05-25T14:08:17.000Z</time>
      </trkpt>
      <trkpt lat="44.08995" lon="6.25987">
        <ele>631.20001220703</ele>
        <time>2017-05-25T14:08:21.000Z</time>
      </trkpt>
      <trkpt lat="44.09005" lon="6.25962">
        <ele>633</ele>
        <time>2017-05-25T14:08:25.000Z</time>
      </trkpt>
      <trkpt lat="44.0902" lon="6.25938">
        <ele>631.20001220703</ele>
        <time>2017-05-25T14:08:29.000Z</time>
      </trkpt>
      <trkpt lat="44.09035" lon="6.25915">
        <ele>630.59997558594</ele>
        <time>2017-05-25T14:08:33.000Z</time>
      </trkpt>
      <trkpt lat="44.0905" lon="6.25892">
        <ele>634.40002441406</ele>
        <time>2017-05-25T14:08:37.000Z</time>
      </trkpt>
      <trkpt lat="44.09059" lon="6.25873">
        <ele>635.79998779297</ele>
        <time>2017-05-25T14:08:40.000Z</time>
      </trkpt>
      <trkpt lat="44.09065" lon="6.25844">
        <ele>636.40002441406</ele>
        <time>2017-05-25T14:08:44.000Z</time>
      </trkpt>
      <trkpt lat="44.09068" lon="6.2582">
        <ele>636.20001220703</ele>
        <time>2017-05-25T14:08:47.000Z</time>
      </trkpt>
      <trkpt lat="44.09069" lon="6.25794">
        <ele>636.40002441406</ele>
        <time>2017-05-25T14:08:50.000Z</time>
      </trkpt>
      <trkpt lat="44.09068" lon="6.25769">
        <ele>636.40002441406</ele>
        <time>2017-05-25T14:08:53.000Z</time>
      </trkpt>
      <trkpt lat="44.09065" lon="6.25741">
        <ele>636.20001220703</ele>
        <time>2017-05-25T14:08:56.000Z</time>
      </trkpt>
      <trkpt lat="44.09059" lon="6.25715">
        <ele>635.20001220703</ele>
        <time>2017-05-25T14:08:59.000Z</time>
      </trkpt>
      <trkpt lat="44.09049" lon="6.25694">
        <ele>633.40002441406</ele>
        <time>2017-05-25T14:09:02.000Z</time>
      </trkpt>
      <trkpt lat="44.09038" lon="6.2567">
        <ele>631.20001220703</ele>
        <time>2017-05-25T14:09:39.000Z</time>
      </trkpt>
      <trkpt lat="44.09032" lon="6.25644">
        <ele>630.20001220703</ele>
        <time>2017-05-25T14:09:45.000Z</time>
      </trkpt>
      <trkpt lat="44.0903" lon="6.25615">
        <ele>629.79998779297</ele>
        <time>2017-05-25T14:09:50.000Z</time>
      </trkpt>
      <trkpt lat="44.09028" lon="6.2559">
        <ele>629.40002441406</ele>
        <time>2017-05-25T14:09:54.000Z</time>
      </trkpt>
      <trkpt lat="44.09025" lon="6.25567">
        <ele>629</ele>
        <time>2017-05-25T14:09:57.000Z</time>
      </trkpt>
      <trkpt lat="44.09016" lon="6.25545">
        <ele>629.40002441406</ele>
        <time>2017-05-25T14:10:00.000Z</time>
      </trkpt>
      <trkpt lat="44.09006" lon="6.25533">
        <ele>629.59997558594</ele>
        <time>2017-05-25T14:10:02.000Z</time>
      </trkpt>
      <trkpt lat="44.08993" lon="6.25515">
        <ele>629.79998779297</ele>
        <time>2017-05-25T14:10:05.000Z</time>
      </trkpt>
      <trkpt lat="44.08977" lon="6.25491">
        <ele>630.40002441406</ele>
        <time>2017-05-25T14:10:09.000Z</time>
      </trkpt>
      <trkpt lat="44.08963" lon="6.25468">
        <ele>629.59997558594</ele>
        <time>2017-05-25T14:10:13.000Z</time>
      </trkpt>
      <trkpt lat="44.08948" lon="6.25445">
        <ele>626.79998779297</ele>
        <time>2017-05-25T14:10:17.000Z</time>
      </trkpt>
      <trkpt lat="44.08938" lon="6.25427">
        <ele>626.79998779297</ele>
        <time>2017-05-25T14:10:20.000Z</time>
      </trkpt>
      <trkpt lat="44.08932" lon="6.25398">
        <ele>627.79998779297</ele>
        <time>2017-05-25T14:10:24.000Z</time>
      </trkpt>
      <trkpt lat="44.08932" lon="6.25385">
        <ele>627</ele>
        <time>2017-05-25T14:10:26.000Z</time>
      </trkpt>
      <trkpt lat="44.08932" lon="6.25357">
        <ele>627.20001220703</ele>
        <time>2017-05-25T14:10:30.000Z</time>
      </trkpt>
      <trkpt lat="44.08933" lon="6.25331">
        <ele>627.40002441406</ele>
        <time>2017-05-25T14:10:34.000Z</time>
      </trkpt>
      <trkpt lat="44.08934" lon="6.25305">
        <ele>627.40002441406</ele>
        <time>2017-05-25T14:10:38.000Z</time>
      </trkpt>
      <trkpt lat="44.08935" lon="6.25278">
        <ele>626.59997558594</ele>
        <time>2017-05-25T14:10:42.000Z</time>
      </trkpt>
      <trkpt lat="44.08936" lon="6.25249">
        <ele>626</ele>
        <time>2017-05-25T14:10:46.000Z</time>
      </trkpt>
      <trkpt lat="44.08938" lon="6.2522">
        <ele>625</ele>
        <time>2017-05-25T14:10:50.000Z</time>
      </trkpt>
      <trkpt lat="44.08946" lon="6.25189">
        <ele>624.20001220703</ele>
        <time>2017-05-25T14:10:54.000Z</time>
      </trkpt>
      <trkpt lat="44.08951" lon="6.25164">
        <ele>625.40002441406</ele>
        <time>2017-05-25T14:10:57.000Z</time>
      </trkpt>
      <trkpt lat="44.08957" lon="6.2514">
        <ele>626</ele>
        <time>2017-05-25T14:11:00.000Z</time>
      </trkpt>
      <trkpt lat="44.08963" lon="6.25115">
        <ele>627.59997558594</ele>
        <time>2017-05-25T14:11:03.000Z</time>
      </trkpt>
      <trkpt lat="44.08968" lon="6.25089">
        <ele>629</ele>
        <time>2017-05-25T14:11:06.000Z</time>
      </trkpt>
      <trkpt lat="44.08973" lon="6.25064">
        <ele>626.59997558594</ele>
        <time>2017-05-25T14:11:09.000Z</time>
      </trkpt>
      <trkpt lat="44.08982" lon="6.25034">
        <ele>627.40002441406</ele>
        <time>2017-05-25T14:11:13.000Z</time>
      </trkpt>
      <trkpt lat="44.08993" lon="6.25006">
        <ele>625.79998779297</ele>
        <time>2017-05-25T14:11:17.000Z</time>
      </trkpt>
      <trkpt lat="44.09002" lon="6.24984">
        <ele>622.79998779297</ele>
        <time>2017-05-25T14:11:20.000Z</time>
      </trkpt>
      <trkpt lat="44.09004" lon="6.24976">
        <ele>622.40002441406</ele>
        <time>2017-05-25T14:11:21.000Z</time>
      </trkpt>
      <trkpt lat="44.09011" lon="6.24944">
        <ele>622</ele>
        <time>2017-05-25T14:11:25.000Z</time>
      </trkpt>
      <trkpt lat="44.09021" lon="6.24922">
        <ele>619.79998779297</ele>
        <time>2017-05-25T14:11:28.000Z</time>
      </trkpt>
      <trkpt lat="44.09034" lon="6.24904">
        <ele>622.79998779297</ele>
        <time>2017-05-25T14:11:31.000Z</time>
      </trkpt>
      <trkpt lat="44.09047" lon="6.24886">
        <ele>626</ele>
        <time>2017-05-25T14:11:34.000Z</time>
      </trkpt>
      <trkpt lat="44.0906" lon="6.24868">
        <ele>631.40002441406</ele>
        <time>2017-05-25T14:11:37.000Z</time>
      </trkpt>
      <trkpt lat="44.09073" lon="6.24848">
        <ele>633</ele>
        <time>2017-05-25T14:11:40.000Z</time>
      </trkpt>
      <trkpt lat="44.09083" lon="6.24828">
        <ele>627.59997558594</ele>
        <time>2017-05-25T14:11:43.000Z</time>
      </trkpt>
      <trkpt lat="44.09097" lon="6.24803">
        <ele>624.20001220703</ele>
        <time>2017-05-25T14:11:47.000Z</time>
      </trkpt>
      <trkpt lat="44.09109" lon="6.24778">
        <ele>620.59997558594</ele>
        <time>2017-05-25T14:11:51.000Z</time>
      </trkpt>
      <trkpt lat="44.09117" lon="6.24749">
        <ele>620.79998779297</ele>
        <time>2017-05-25T14:11:55.000Z</time>
      </trkpt>
      <trkpt lat="44.09125" lon="6.24721">
        <ele>620.40002441406</ele>
        <time>2017-05-25T14:11:59.000Z</time>
      </trkpt>
      <trkpt lat="44.09127" lon="6.24713">
        <ele>621.20001220703</ele>
        <time>2017-05-25T14:12:00.000Z</time>
      </trkpt>
      <trkpt lat="44.09132" lon="6.24683">
        <ele>624.40002441406</ele>
        <time>2017-05-25T14:12:04.000Z</time>
      </trkpt>
      <trkpt lat="44.0914" lon="6.24655">
        <ele>625</ele>
        <time>2017-05-25T14:12:08.000Z</time>
      </trkpt>
      <trkpt lat="44.09145" lon="6.24625">
        <ele>624.59997558594</ele>
        <time>2017-05-25T14:12:12.000Z</time>
      </trkpt>
      <trkpt lat="44.09148" lon="6.24594">
        <ele>624.20001220703</ele>
        <time>2017-05-25T14:12:16.000Z</time>
      </trkpt>
      <trkpt lat="44.09147" lon="6.24563">
        <ele>621</ele>
        <time>2017-05-25T14:12:20.000Z</time>
      </trkpt>
      <trkpt lat="44.09143" lon="6.24539">
        <ele>619.79998779297</ele>
        <time>2017-05-25T14:12:23.000Z</time>
      </trkpt>
      <trkpt lat="44.09138" lon="6.24509">
        <ele>618.59997558594</ele>
        <time>2017-05-25T14:12:27.000Z</time>
      </trkpt>
      <trkpt lat="44.09134" lon="6.24481">
        <ele>618.59997558594</ele>
        <time>2017-05-25T14:12:31.000Z</time>
      </trkpt>
      <trkpt lat="44.09131" lon="6.24456">
        <ele>617.79998779297</ele>
        <time>2017-05-25T14:12:34.000Z</time>
      </trkpt>
      <trkpt lat="44.09127" lon="6.2443">
        <ele>616.59997558594</ele>
        <time>2017-05-25T14:12:37.000Z</time>
      </trkpt>
      <trkpt lat="44.09116" lon="6.2441">
        <ele>612.79998779297</ele>
        <time>2017-05-25T14:12:41.000Z</time>
      </trkpt>
      <trkpt lat="44.09113" lon="6.2441">
        <ele>612</ele>
        <time>2017-05-25T14:12:43.000Z</time>
      </trkpt>
      <trkpt lat="44.09112" lon="6.24416">
        <ele>611.59997558594</ele>
        <time>2017-05-25T14:12:47.000Z</time>
      </trkpt>
      <trkpt lat="44.09096" lon="6.24432">
        <ele>613</ele>
        <time>2017-05-25T14:12:53.000Z</time>
      </trkpt>
      <trkpt lat="44.09083" lon="6.24453">
        <ele>614.79998779297</ele>
        <time>2017-05-25T14:12:57.000Z</time>
      </trkpt>
      <trkpt lat="44.0907" lon="6.24477">
        <ele>614</ele>
        <time>2017-05-25T14:13:01.000Z</time>
      </trkpt>
      <trkpt lat="44.09067" lon="6.24484">
        <ele>614</ele>
        <time>2017-05-25T14:13:02.000Z</time>
      </trkpt>
      <trkpt lat="44.09065" lon="6.24516">
        <ele>614.20001220703</ele>
        <time>2017-05-25T14:13:06.000Z</time>
      </trkpt>
      <trkpt lat="44.09066" lon="6.24542">
        <ele>612.40002441406</ele>
        <time>2017-05-25T14:13:09.000Z</time>
      </trkpt>
      <trkpt lat="44.09065" lon="6.24559">
        <ele>611.20001220703</ele>
        <time>2017-05-25T14:13:11.000Z</time>
      </trkpt>
      <trkpt lat="44.09058" lon="6.24587">
        <ele>611.79998779297</ele>
        <time>2017-05-25T14:13:15.000Z</time>
      </trkpt>
      <trkpt lat="44.0905" lon="6.24604">
        <ele>612.20001220703</ele>
        <time>2017-05-25T14:13:18.000Z</time>
      </trkpt>
      <trkpt lat="44.09037" lon="6.2463">
        <ele>612.79998779297</ele>
        <time>2017-05-25T14:13:22.000Z</time>
      </trkpt>
      <trkpt lat="44.09025" lon="6.24657">
        <ele>613.40002441406</ele>
        <time>2017-05-25T14:13:26.000Z</time>
      </trkpt>
      <trkpt lat="44.09014" lon="6.24681">
        <ele>615</ele>
        <time>2017-05-25T14:13:30.000Z</time>
      </trkpt>
      <trkpt lat="44.09002" lon="6.24705">
        <ele>617</ele>
        <time>2017-05-25T14:13:34.000Z</time>
      </trkpt>
      <trkpt lat="44.08993" lon="6.2473">
        <ele>613.20001220703</ele>
        <time>2017-05-25T14:13:38.000Z</time>
      </trkpt>
      <trkpt lat="44.08986" lon="6.24755">
        <ele>613</ele>
        <time>2017-05-25T14:13:42.000Z</time>
      </trkpt>
      <trkpt lat="44.08983" lon="6.24781">
        <ele>613.20001220703</ele>
        <time>2017-05-25T14:13:46.000Z</time>
      </trkpt>
      <trkpt lat="44.08984" lon="6.24789">
        <ele>613.40002441406</ele>
        <time>2017-05-25T14:13:47.000Z</time>
      </trkpt>
      <trkpt lat="44.08985" lon="6.24818">
        <ele>614.20001220703</ele>
        <time>2017-05-25T14:13:51.000Z</time>
      </trkpt>
      <trkpt lat="44.08979" lon="6.24843">
        <ele>615.20001220703</ele>
        <time>2017-05-25T14:13:55.000Z</time>
      </trkpt>
      <trkpt lat="44.08968" lon="6.24865">
        <ele>615.59997558594</ele>
        <time>2017-05-25T14:13:59.000Z</time>
      </trkpt>
      <trkpt lat="44.08953" lon="6.24882">
        <ele>615.79998779297</ele>
        <time>2017-05-25T14:14:03.000Z</time>
      </trkpt>
      <trkpt lat="44.08936" lon="6.24893">
        <ele>616.20001220703</ele>
        <time>2017-05-25T14:14:07.000Z</time>
      </trkpt>
      <trkpt lat="44.08916" lon="6.24906">
        <ele>616.20001220703</ele>
        <time>2017-05-25T14:14:11.000Z</time>
      </trkpt>
      <trkpt lat="44.08897" lon="6.24917">
        <ele>616</ele>
        <time>2017-05-25T14:14:15.000Z</time>
      </trkpt>
      <trkpt lat="44.08879" lon="6.24928">
        <ele>616.79998779297</ele>
        <time>2017-05-25T14:14:19.000Z</time>
      </trkpt>
      <trkpt lat="44.0886" lon="6.24939">
        <ele>618.40002441406</ele>
        <time>2017-05-25T14:14:23.000Z</time>
      </trkpt>
      <trkpt lat="44.08841" lon="6.24947">
        <ele>619.59997558594</ele>
        <time>2017-05-25T14:14:27.000Z</time>
      </trkpt>
      <trkpt lat="44.08821" lon="6.24955">
        <ele>620.59997558594</ele>
        <time>2017-05-25T14:14:31.000Z</time>
      </trkpt>
      <trkpt lat="44.08802" lon="6.24962">
        <ele>621.59997558594</ele>
        <time>2017-05-25T14:14:35.000Z</time>
      </trkpt>
      <trkpt lat="44.08781" lon="6.24971">
        <ele>622.59997558594</ele>
        <time>2017-05-25T14:14:40.000Z</time>
      </trkpt>
      <trkpt lat="44.08763" lon="6.24983">
        <ele>623.79998779297</ele>
        <time>2017-05-25T14:14:45.000Z</time>
      </trkpt>
      <trkpt lat="44.08748" lon="6.25003">
        <ele>627.40002441406</ele>
        <time>2017-05-25T14:14:50.000Z</time>
      </trkpt>
      <trkpt lat="44.08736" lon="6.25026">
        <ele>631.59997558594</ele>
        <time>2017-05-25T14:14:55.000Z</time>
      </trkpt>
      <trkpt lat="44.08721" lon="6.25044">
        <ele>631.79998779297</ele>
        <time>2017-05-25T14:15:00.000Z</time>
      </trkpt>
      <trkpt lat="44.08703" lon="6.2506">
        <ele>631.59997558594</ele>
        <time>2017-05-25T14:15:05.000Z</time>
      </trkpt>
      <trkpt lat="44.08684" lon="6.25073">
        <ele>633.79998779297</ele>
        <time>2017-05-25T14:15:11.000Z</time>
      </trkpt>
      <trkpt lat="44.08668" lon="6.25081">
        <ele>634.79998779297</ele>
        <time>2017-05-25T14:15:18.000Z</time>
      </trkpt>
    </trkseg>
  </trk>
</gpx>